GFSSW_500_rhum_000.txt.gz
RH
38 28 36 20 20 20 21 16 10 8 7 6 10 12 12 11 7 8 9 7 8 10 10 10 12 16 15 14 11 10 10 12 15 15 18 25 22 22 38 49 41 33 30 28 26
46 21 16 23 20 16 14 12 10 9 8 8 8 9 9 8 8 8 5 7 8 11 11 10 11 13 15 14 12 10 9 13 13 15 19 22 19 19 20 40 46 41 37 30 27
48 22 21 23 19 15 15 12 10 9 9 9 10 10 10 10 8 10 7 6 8 10 11 10 12 12 12 16 15 13 11 15 14 16 19 21 22 20 18 22 51 46 40 32 27
47 34 22 23 19 18 19 20 17 12 10 9 10 11 11 11 9 10 6 6 8 10 10 10 11 12 12 12 18 14 14 14 15 14 18 20 19 14 12 16 23 47 45 38 32
45 47 21 24 18 16 16 19 20 18 16 12 12 12 12 12 11 9 7 7 7 9 9 11 11 12 13 13 12 10 16 18 14 14 14 19 19 14 8 10 16 21 45 44 40
30 46 42 22 21 15 14 14 18 18 18 17 15 14 13 13 9 9 8 7 7 7 7 8 9 10 13 15 14 14 16 16 20 14 15 16 19 18 15 13 11 13 19 46 46
24 34 50 32 22 18 16 14 13 15 16 16 16 15 13 11 9 8 7 6 6 6 6 7 8 10 12 15 13 16 16 18 21 23 15 15 14 15 20 22 19 13 12 17 39
51 30 34 51 25 20 19 16 15 12 12 13 13 13 12 9 7 6 5 5 6 6 6 7 7 7 8 13 12 13 16 21 27 23 20 17 9 13 12 21 21 20 15 12 13
29 51 33 40 47 26 20 19 17 15 13 11 11 12 10 8 7 7 7 8 9 10 9 8 8 9 10 12 15 16 16 19 29 32 25 19 12 13 16 20 25 22 20 17 15
10 38 52 33 44 42 34 20 21 18 16 15 13 11 10 9 9 10 10 11 12 12 11 10 10 10 10 14 14 17 15 17 18 28 37 22 13 13 14 18 19 25 20 18 17
5 11 54 61 26 42 41 41 20 24 22 18 15 13 11 10 11 13 14 14 15 16 16 16 15 14 18 18 18 15 16 15 24 27 28 33 18 18 14 16 18 21 20 18 18
4 6 17 67 61 22 37 39 39 21 25 25 21 19 17 16 16 17 17 17 17 18 20 20 19 19 18 17 18 18 17 17 21 35 32 30 22 24 15 13 17 18 22 18 16
3 5 12 47 58 56 21 36 36 38 27 22 25 24 23 21 20 19 19 20 20 19 22 26 26 25 23 21 20 19 19 20 25 37 37 34 16 28 28 19 19 20 22 20 17
2 4 7 11 49 54 39 23 36 34 42 34 21 20 22 23 22 21 20 18 17 18 23 24 25 25 25 25 24 23 24 25 23 27 29 50 16 17 21 20 18 20 19 23 20
2 3 5 6 84 46 47 32 28 35 39 41 39 30 23 17 12 12 12 11 12 16 21 24 26 30 29 30 34 31 32 36 34 36 37 35 41 13 22 17 14 15 23 26 27
3 2 48 85 100 85 84 55 33 31 31 33 36 40 39 36 33 30 24 20 23 26 28 31 36 40 48 68 74 74 65 61 58 58 42 34 49 14 23 22 23 28 26 28 30
6 0 73 100 100 100 97 54 42 31 29 27 25 27 32 34 34 33 36 38 24 30 34 39 28 23 23 51 68 63 61 70 72 62 45 44 45 20 24 32 27 32 32 29 28
8 2 9 49 100 100 100 87 45 36 26 26 25 23 23 30 36 38 32 33 37 32 37 24 24 21 36 83 98 100 100 97 63 53 45 40 27 22 28 32 32 34 40 35 32
9 100 100 100 100 82 93 87 25 23 24 23 20 17 20 32 34 39 41 34 32 56 30 33 33 41 40 95 100 100 100 95 100 97 87 42 22 18 22 31 38 35 40 33 35
81 100 100 98 100 100 98 65 34 14 12 21 18 20 26 30 40 39 34 34 59 44 38 60 47 50 52 78 75 86 99 98 98 94 81 61 38 25 30 44 44 37 30 36 34
77 100 100 100 100 100 92 64 37 14 14 17 17 17 29 41 42 33 28 60 42 55 71 75 53 60 69 58 96 100 86 93 100 99 78 53 38 41 36 39 41 35 29 32 32
80 100 97 100 100 100 93 62 78 35 27 20 20 23 40 42 35 25 64 42 74 82 55 72 68 84 88 97 91 70 62 62 54 47 59 60 28 55 65 56 38 46 42 39 42
100 100 88 100 98 74 71 100 71 41 34 29 28 38 40 34 25 61 38 57 62 59 66 98 92 98 100 100 100 98 100 99 97 82 44 46 54 70 98 80 53 53 51 49 50
100 100 100 100 77 100 100 98 54 47 44 40 42 48 33 20 56 51 42 70 79 86 99 100 100 100 100 100 100 100 100 100 88 50 35 48 88 100 100 76 58 59 100 100 80
100 100 73 67 88 97 98 85 62 54 49 51 51 22 25 42 75 37 52 81 95 100 100 98 100 100 100 100 100 100 80 23 19 35 42 46 95 100 91 90 76 69 81 87 79
100 99 100 100 100 100 98 70 60 65 65 39 33 31 36 81 71 40 55 82 97 100 94 98 99 100 99 100 94 49 24 16 18 34 71 88 99 92 100 62 67 58 66 80 92
100 98 92 100 95 80 67 86 100 86 49 38 61 44 80 84 67 36 49 72 98 97 97 98 99 96 98 99 78 32 44 88 68 80 89 98 97 99 99 98 100 99 100 98 97

GFSSW_500_rhum_003.txt.gz
RH
43 28 29 30 28 28 29 25 22 24 23 18 11 8 7 6 6 8 12 11 11 9 8 11 10 10 11 13 12 11 9 11 15 16 18 19 20 20 17 15 37 43 36 30 29
24 30 30 37 37 24 26 27 21 21 21 16 11 8 8 7 6 10 12 12 9 7 8 9 8 9 10 12 10 11 10 12 11 14 18 20 21 20 15 15 16 36 43 35 34
42 11 41 47 46 25 18 22 20 17 15 17 12 10 9 7 9 16 13 10 8 7 7 7 8 9 10 12 12 11 13 14 12 12 13 14 14 17 11 12 17 17 36 40 35
52 28 12 45 47 24 21 21 18 16 14 12 12 11 11 10 10 14 10 10 8 7 7 7 9 10 10 12 11 8 13 15 15 13 14 15 14 14 12 12 13 14 15 34 42
30 43 18 26 47 31 23 22 19 19 20 18 15 11 11 12 13 12 11 10 8 8 7 7 9 9 10 11 11 10 13 12 13 14 13 15 15 16 14 12 12 12 13 17 39
30 25 43 20 47 42 23 23 18 18 20 22 21 16 12 15 13 16 12 11 9 8 7 8 9 9 9 11 10 11 13 14 14 13 13 15 15 14 18 19 12 12 11 13 18
6 20 27 50 27 50 26 24 19 15 17 20 21 20 20 15 15 16 13 10 8 7 7 7 7 8 9 9 10 10 11 13 17 17 13 12 11 11 16 21 16 13 17 14 13
5 6 17 49 38 39 47 21 22 16 15 16 18 17 20 17 17 15 12 9 7 6 6 6 6 6 7 7 7 9 10 13 15 18 17 15 10 14 14 14 19 18 16 18 15
6 4 7 20 54 32 46 34 20 18 15 14 14 12 14 18 16 12 7 5 4 5 5 6 6 7 7 8 8 11 9 12 14 14 16 14 12 14 14 12 13 16 12 12 18
3 5 5 10 46 52 32 47 23 17 16 15 14 12 10 11 10 6 4 5 6 7 8 9 9 9 10 14 11 9 8 8 10 12 12 12 10 12 14 13 13 14 13 10 13
3 3 5 7 15 68 61 36 45 17 19 17 16 14 10 10 9 7 7 9 11 12 12 10 10 14 17 16 15 14 13 12 12 15 15 15 14 12 14 13 12 13 13 12 11
3 3 4 5 12 41 69 48 43 41 23 22 16 16 15 11 10 9 10 12 14 15 14 15 15 18 19 19 20 19 18 17 17 17 16 15 14 13 13 13 14 15 16 13 16
1 3 3 5 13 21 64 66 40 44 40 25 23 20 18 16 14 14 14 15 16 18 18 19 18 18 18 19 21 23 23 23 22 22 21 18 14 16 15 14 15 17 20 23 22
0 3 2 4 6 14 39 61 80 36 45 40 26 26 25 24 22 21 21 21 20 20 20 19 17 14 14 16 24 23 24 25 24 23 19 22 14 13 17 17 16 16 22 24 29
0 3 3 3 4 18 67 65 64 47 44 46 43 30 23 25 25 26 25 24 22 18 14 12 12 13 16 27 33 34 33 33 40 40 29 23 22 10 14 17 18 29 22 28 27
9 3 5 4 5 95 96 74 100 98 41 43 43 44 39 29 22 22 20 21 24 26 27 27 30 32 30 38 31 22 22 21 21 20 44 36 30 17 16 18 18 27 38 29 23
39 2 8 5 79 100 100 100 100 96 69 35 37 40 45 44 42 41 39 38 37 36 34 32 32 34 42 43 36 40 36 27 32 32 40 61 62 25 20 20 20 22 37 43 28
91 4 7 4 100 100 100 100 100 91 75 43 33 31 31 32 33 35 33 32 36 35 34 34 34 47 50 46 45 28 36 33 98 100 100 100 64 31 27 25 26 28 38 44 42
89 15 7 1 66 100 100 100 98 95 77 64 34 28 26 25 23 23 29 34 32 35 34 32 36 40 47 51 42 38 46 69 100 100 100 82 66 44 35 32 32 32 36 44 35
96 19 3 15 96 100 100 96 92 92 69 67 37 29 26 23 20 26 27 28 36 33 31 40 38 46 63 58 57 45 43 41 62 100 94 78 55 43 42 41 37 28 25 36 37
85 16 0 97 100 100 100 100 95 86 60 50 50 37 35 24 23 26 32 36 30 30 48 53 45 58 58 69 70 57 68 65 65 100 100 84 57 42 45 44 35 30 21 29 37
100 49 62 100 100 100 98 91 84 61 59 42 29 23 23 22 24 30 39 34 30 52 56 65 60 56 52 80 94 98 100 100 93 59 62 58 32 39 48 61 56 30 28 22 33
100 100 47 89 91 94 48 84 88 96 57 28 18 13 18 25 28 38 37 33 51 74 69 67 66 70 60 85 100 100 100 100 100 100 62 69 31 71 80 57 83 53 44 26 31
100 100 90 95 96 96 91 100 100 100 58 27 17 12 27 34 34 36 28 49 77 70 73 73 75 73 85 100 100 100 100 100 100 73 77 52 81 84 99 74 94 72 56 42 39
100 95 80 97 98 96 97 100 100 100 70 38 33 34 38 40 38 22 48 72 78 84 100 75 85 79 95 100 84 86 57 44 25 33 58 64 94 81 64 83 90 80 66 61 47
100 79 87 84 100 91 77 83 91 82 60 59 53 44 47 40 25 30 54 66 76 96 92 88 96 93 96 98 84 62 25 10 12 34 47 41 81 51 78 70 84 84 69 63 88
100 84 86 100 100 100 100 98 76 67 69 62 55 50 35 21 23 66 45 57 82 86 87 85 83 81 98 99 99 96 92 49 48 46 71 96 80 94 94 98 94 85 94 92 88

GFSSW_500_rhum_006.txt.gz
RH
92 66 54 30 38 31 33 28 27 24 22 20 19 19 16 12 9 10 9 8 7 8 9 11 12 11 9 8 10 10 7 8 12 15 15 17 16 15 14 14 14 18 31 34 33
58 82 53 45 64 60 45 36 27 29 22 21 21 21 19 15 11 9 8 7 8 9 14 13 12 9 8 10 9 9 8 13 13 12 14 17 16 16 14 14 14 15 17 22 35
23 43 72 69 30 29 41 42 33 20 27 24 22 25 23 20 12 9 7 7 7 8 16 13 10 7 8 9 8 8 9 12 14 12 10 10 12 14 14 12 15 16 15 14 21
6 12 37 52 74 66 39 46 38 22 20 23 22 21 18 14 12 12 8 7 8 8 17 12 8 8 7 8 8 8 10 11 15 14 12 10 9 10 11 12 10 10 10 12 13
8 6 15 28 38 41 17 47 38 23 21 20 17 15 14 15 13 13 11 10 11 10 14 11 8 7 7 8 8 7 10 11 12 14 13 11 11 10 10 13 12 10 11 11 12
8 7 7 8 25 30 36 32 42 24 24 20 18 16 16 14 16 14 12 12 12 13 11 11 8 7 9 10 9 9 11 12 13 13 12 11 13 9 15 14 12 12 13 14 12
9 9 7 7 10 24 40 26 47 24 25 20 18 20 21 19 18 21 17 17 14 12 12 10 9 8 11 10 9 8 10 10 14 14 12 12 10 9 14 13 12 12 11 14 11
8 6 6 6 6 12 25 45 38 32 25 20 17 20 21 22 25 32 24 20 18 14 12 11 11 10 11 11 12 10 9 10 15 12 11 11 12 13 14 14 13 14 13 12 16
5 6 5 4 6 6 13 56 36 49 25 24 18 17 19 21 25 34 32 24 17 14 11 10 9 9 11 11 9 10 8 8 9 9 8 9 9 13 14 13 12 13 13 11 14
4 4 4 3 4 5 9 56 56 53 28 27 21 16 17 16 22 33 31 23 17 12 9 8 7 8 12 12 10 8 7 8 8 9 9 9 6 10 12 12 12 13 12 12 10
1 0 3 3 4 26 9 34 63 50 40 25 25 17 16 12 14 23 23 15 9 7 7 7 7 14 15 13 12 12 11 10 12 14 11 10 6 8 12 13 13 13 13 14 13
0 0 2 3 4 34 51 22 86 91 58 22 25 20 15 12 11 13 10 8 8 10 9 11 12 13 16 17 16 15 16 16 15 15 14 11 6 9 10 12 16 14 13 15 17
18 2 2 3 4 23 62 18 73 98 52 37 25 22 18 15 11 11 10 10 11 12 14 13 14 17 17 18 17 18 17 17 17 17 16 16 7 12 12 13 14 15 14 16 17
95 24 2 2 4 7 43 89 100 100 83 50 27 26 19 18 16 13 11 11 11 13 14 17 18 19 19 18 16 14 14 13 13 13 14 13 11 11 12 12 15 18 18 17 19
100 65 3 0 4 4 99 100 92 96 100 74 48 28 22 22 20 18 17 17 16 18 20 20 21 18 14 12 12 16 21 26 29 32 30 26 23 15 14 12 13 15 21 21 20
100 98 6 0 4 91 100 100 99 100 98 82 48 42 27 24 24 23 24 23 25 25 23 18 13 19 27 30 30 28 30 34 38 40 28 24 24 21 18 18 18 16 19 22 23
89 84 11 0 4 30 100 100 100 100 99 98 52 44 40 30 24 25 25 24 22 19 22 30 33 34 33 30 32 36 42 45 45 43 34 22 17 18 18 15 13 22 27 24 24
100 84 11 1 4 63 100 100 100 87 100 91 44 36 46 43 36 36 30 26 31 37 36 36 35 30 36 35 40 44 47 57 60 48 30 19 25 17 17 10 12 40 48 32 26
100 68 2 4 4 69 74 100 93 83 91 100 80 34 40 42 43 44 41 38 36 36 34 28 28 33 36 44 44 46 55 68 74 60 59 50 33 35 37 53 74 92 91 48 29
100 71 5 6 7 46 91 100 100 100 100 99 95 42 38 37 34 30 28 26 27 28 26 31 33 35 47 48 55 55 62 88 99 97 95 85 59 26 52 90 99 85 64 60 40
100 55 40 7 99 100 100 100 100 100 100 100 97 58 33 30 28 26 29 27 26 28 34 31 36 44 47 50 48 66 71 88 96 85 98 98 62 72 54 66 98 74 53 45 39
99 16 8 75 100 100 100 100 100 100 100 98 94 77 44 32 28 30 27 24 28 34 30 40 43 47 58 63 71 83 95 100 100 100 100 100 42 79 53 77 58 65 50 39 33
89 24 12 100 100 100 100 100 100 99 86 75 72 85 60 43 36 32 24 23 37 30 44 54 50 51 57 74 71 62 89 100 100 99 87 100 35 83 100 100 80 70 69 37 28
100 37 11 89 100 100 99 100 100 98 76 54 46 48 60 46 32 25 22 32 29 46 63 64 62 65 68 82 71 67 68 30 27 26 91 84 72 83 81 79 65 41 76 41 23
81 27 64 99 94 98 99 81 75 78 62 48 35 41 39 24 22 23 28 30 39 71 78 70 71 73 81 88 78 82 73 51 14 10 37 47 79 93 96 69 62 53 85 44 25
68 50 95 72 82 76 71 69 79 91 91 61 39 36 30 35 30 34 35 31 69 77 76 81 86 90 88 97 94 93 79 54 34 28 38 39 48 62 74 59 53 82 84 50 44
51 67 80 74 43 72 92 99 96 95 93 70 42 45 47 43 37 32 23 48 63 79 86 92 84 83 94 99 86 71 66 54 65 72 67 84 62 62 83 97 100 62 64 58 56

GFSSW_500_rhum_009.txt.gz
RH
18 44 96 80 92 42 66 38 30 27 24 22 22 21 17 17 15 12 10 10 10 12 12 13 13 12 10 10 12 14 9 6 9 12 14 14 10 13 11 12 12 14 18 14 23
7 10 38 84 79 44 50 47 42 38 32 29 25 22 20 18 18 17 13 9 10 11 12 12 11 11 10 11 12 12 8 8 14 13 12 11 11 12 10 12 12 14 17 15 16
7 6 7 21 52 88 54 47 58 45 41 30 29 25 23 21 20 20 17 13 10 10 11 10 7 8 10 14 12 10 8 14 11 13 13 11 10 12 10 12 13 14 16 16 16
11 8 7 6 12 42 72 75 38 72 59 40 25 28 23 22 21 20 18 16 11 9 9 8 8 8 12 14 12 8 9 11 11 11 14 13 11 10 9 11 12 11 12 11 16
18 14 9 7 7 8 35 54 72 53 50 42 23 21 26 23 21 21 19 17 12 9 8 8 8 7 12 14 10 8 9 9 10 10 13 13 11 10 8 11 12 10 8 10 12
16 15 12 8 7 6 12 26 49 60 79 44 25 22 22 21 20 19 18 16 14 10 9 9 7 8 13 11 10 8 8 10 10 10 11 10 13 8 10 11 9 9 8 8 9
15 12 12 10 7 7 6 8 23 45 25 48 26 25 20 18 17 17 18 16 14 13 10 13 12 15 14 10 9 9 11 11 11 11 10 9 9 9 13 11 10 10 10 9 8
12 14 12 10 9 7 6 6 12 26 33 45 27 27 20 20 19 18 15 16 14 14 12 17 19 15 13 10 12 12 10 11 10 12 10 10 10 11 12 11 10 10 11 11 11
6 9 10 10 9 8 6 6 6 13 43 41 30 29 20 20 21 22 19 16 17 17 18 20 19 16 14 13 12 14 14 14 12 12 9 9 9 13 12 13 11 11 12 12 11
4 4 4 5 7 6 6 5 5 59 53 40 34 30 21 20 21 22 22 22 20 26 28 30 25 21 17 14 17 18 16 16 16 14 13 9 7 10 11 14 12 13 13 13 12
4 2 2 3 3 4 5 8 54 80 70 49 41 28 28 22 21 20 24 27 29 30 32 31 23 27 23 15 13 15 15 14 15 13 11 8 6 5 7 8 14 13 14 13 13
4 5 3 1 1 3 4 34 66 35 100 82 63 28 29 22 19 16 22 29 36 34 30 29 28 23 15 16 15 14 15 14 13 14 12 12 7 8 9 8 9 10 12 13 14
46 89 62 10 0 1 4 100 63 90 100 71 90 27 30 23 18 13 19 32 35 27 20 18 24 24 21 18 17 17 15 15 14 13 12 11 6 12 8 8 10 14 12 13 16
97 100 100 41 1 2 43 100 100 68 85 86 99 32 28 24 18 12 15 16 14 16 16 17 20 19 18 18 17 15 16 16 16 15 14 12 8 10 10 9 10 11 16 14 16
100 100 98 35 12 5 100 100 100 89 100 100 91 44 26 25 19 13 14 13 13 13 15 13 15 16 18 19 19 18 15 13 12 15 17 18 22 8 15 16 17 14 12 12 16
80 92 100 73 18 4 100 100 100 100 100 96 82 57 28 24 21 20 14 12 12 13 14 14 16 20 21 19 14 15 20 29 28 26 20 22 38 11 16 24 19 18 15 15 17
100 95 100 87 10 7 100 100 100 68 98 96 91 61 41 26 24 21 20 19 20 20 21 22 23 22 17 20 30 31 26 25 25 27 25 35 43 24 24 35 32 28 26 25 22
90 98 86 50 2 9 99 100 89 96 98 96 96 90 50 30 26 28 26 25 24 25 24 23 20 23 33 33 28 25 25 39 35 38 43 40 47 37 41 35 32 28 21 15 12
90 98 55 9 1 28 100 100 100 100 98 90 98 84 50 44 32 27 26 26 25 23 22 24 31 37 32 25 27 29 34 41 46 52 61 40 46 50 45 53 38 24 22 20 36
100 75 61 1 4 24 91 100 100 85 86 97 97 60 49 45 41 38 36 34 35 36 38 38 33 26 25 30 34 36 44 52 65 60 74 49 75 68 86 80 49 32 54 48 67
98 81 77 19 6 55 100 100 100 84 97 85 99 87 53 46 46 46 46 43 41 36 30 25 25 27 33 39 43 48 52 58 72 82 92 63 22 98 100 100 96 77 70 74 90
89 67 70 27 33 99 100 100 93 91 96 88 98 95 50 43 42 42 40 35 31 26 23 26 32 34 44 50 53 52 60 62 74 93 76 64 23 71 83 86 71 46 46 67 87
37 23 27 16 32 100 100 97 90 100 100 99 100 98 56 43 40 37 32 30 26 22 26 34 40 51 52 57 54 57 80 69 87 92 57 60 25 75 53 70 85 82 48 53 75
29 7 11 64 97 100 100 100 95 100 100 99 95 92 81 60 45 38 32 30 25 24 33 33 52 59 67 66 56 65 69 79 94 63 54 34 31 54 77 99 85 72 48 49 60
48 10 84 99 97 92 100 100 99 100 100 89 80 97 96 88 63 49 36 28 22 31 33 53 74 73 80 84 87 90 72 63 53 58 54 43 40 57 65 97 90 73 66 61 48
30 77 100 98 98 100 100 97 100 100 89 78 72 69 65 74 71 56 40 22 31 34 52 79 90 84 79 95 91 75 61 44 53 59 60 67 92 87 100 100 76 73 61 62 85
37 93 88 95 88 84 87 83 73 78 70 61 55 55 49 43 41 28 19 25 34 55 78 89 94 83 93 93 86 65 54 57 70 79 72 78 100 96 100 97 83 81 81 97 71

GFSSW_500_rhum_012.txt.gz
RH
8 7 7 13 58 74 51 35 80 47 33 26 20 30 27 25 20 16 14 12 11 12 14 14 14 14 14 13 12 10 8 8 10 13 11 12 12 10 8 10 10 9 13 12 10
13 9 7 6 8 35 88 81 53 81 43 29 28 25 21 25 25 21 18 13 11 11 12 14 14 14 13 14 13 11 8 8 12 13 10 10 10 8 7 11 9 9 13 9 13
20 19 14 8 6 6 23 81 89 58 91 51 29 29 28 27 21 26 17 16 14 12 10 12 13 12 12 12 12 11 8 11 13 12 9 11 12 11 11 9 8 10 11 12 11
20 19 20 19 10 7 6 22 80 54 57 55 56 37 30 28 23 23 22 20 19 17 12 10 12 13 12 12 11 9 8 11 14 10 8 11 12 9 10 10 10 10 10 11 9
17 20 19 18 19 13 7 6 13 70 56 39 56 46 33 28 27 24 23 22 21 20 18 12 10 11 11 10 8 6 6 12 14 10 8 10 10 11 8 8 14 12 10 10 8
10 10 15 18 17 17 13 7 6 13 79 77 44 58 43 27 27 25 22 22 22 20 20 15 11 10 9 9 7 6 6 11 13 10 11 9 9 9 8 13 10 9 9 8 9
7 7 7 9 18 16 14 11 7 6 14 65 91 63 54 30 24 25 23 21 21 20 19 17 13 10 9 9 8 7 10 14 10 11 10 10 8 8 10 12 9 8 8 8 8
4 4 4 5 7 15 14 12 8 6 6 15 72 92 67 33 25 22 22 21 19 18 20 17 13 10 10 8 11 16 12 14 12 9 9 10 8 11 8 10 8 8 8 9 10
7 7 6 7 6 7 15 12 9 7 6 33 37 56 87 32 25 21 19 18 18 20 17 15 14 11 12 17 22 20 16 14 10 10 11 10 8 12 9 10 8 8 8 9 10
17 13 11 9 8 5 8 14 11 7 7 12 15 44 45 46 27 21 20 19 19 18 18 16 13 14 17 20 23 21 16 12 12 10 14 10 8 9 10 10 10 10 10 10 10
14 13 11 8 4 4 4 10 11 8 10 33 47 42 40 37 29 22 22 23 22 19 18 19 18 21 25 22 23 19 16 17 16 16 14 14 9 9 12 9 13 11 10 11 12
45 50 80 100 35 2 4 5 9 18 17 30 31 43 42 34 28 22 23 24 25 29 23 27 26 32 31 28 28 22 22 27 28 22 14 15 11 10 9 8 8 10 11 15 15
81 95 96 88 85 5 4 5 14 87 52 13 89 63 45 32 30 26 22 24 33 34 38 43 35 36 31 27 28 26 24 22 18 18 14 11 8 10 7 7 8 10 11 10 11
65 89 100 100 59 49 4 30 75 100 70 97 99 69 52 32 30 24 19 19 27 39 46 41 37 30 28 27 24 23 20 19 18 16 13 12 8 8 9 8 9 10 12 12 11
84 82 100 100 70 27 2 53 100 100 95 87 100 100 70 38 29 21 17 18 35 41 39 34 27 29 27 24 19 18 16 16 16 15 12 12 10 5 6 7 12 16 13 12 12
76 93 100 100 81 3 34 100 100 100 94 94 95 92 84 35 26 21 15 22 27 20 21 22 22 22 18 17 17 18 17 18 15 14 11 15 16 5 10 14 21 18 21 20 17
89 99 91 93 68 1 76 100 100 100 94 88 80 84 96 28 27 19 16 20 20 20 19 15 17 17 17 19 22 20 16 17 19 17 13 19 11 7 18 21 25 17 13 15 25
87 78 86 92 10 10 98 100 100 84 81 72 96 100 83 26 26 22 20 17 16 14 17 18 18 24 24 22 19 21 24 34 22 17 13 17 9 17 22 25 21 19 19 20 21
88 84 66 54 2 11 100 100 100 100 82 98 92 94 72 32 27 23 23 24 23 23 26 25 22 24 23 22 25 30 31 28 24 23 18 17 19 23 52 28 20 24 26 36 46
100 75 19 13 4 76 100 100 100 100 100 99 100 84 64 41 27 26 24 28 30 28 25 25 23 23 31 35 30 25 28 28 34 32 24 19 22 51 40 38 28 29 32 49 64
46 41 6 3 28 100 100 100 93 100 99 95 100 97 92 54 36 32 32 31 28 26 26 31 35 36 30 26 28 30 30 39 37 39 44 24 25 61 56 40 33 38 33 46 67
18 48 31 4 49 99 100 100 100 92 98 97 98 80 71 60 56 46 37 34 36 40 44 41 29 25 28 32 31 32 42 43 47 63 51 57 21 47 45 54 60 51 56 55 73
6 15 12 23 81 97 100 100 100 76 100 95 100 100 57 56 53 49 46 47 48 45 35 26 24 32 34 41 50 50 57 56 57 49 49 50 43 79 70 88 90 93 99 91 82
5 5 6 64 97 95 100 100 100 88 84 95 99 100 63 52 51 49 48 46 41 31 25 22 28 34 50 58 55 54 64 73 62 45 54 70 42 68 90 98 96 100 100 100 97
10 21 26 71 96 100 99 100 100 100 100 100 99 100 96 59 48 44 41 34 28 28 24 25 35 54 76 68 57 72 81 68 56 70 67 65 81 91 99 100 100 100 92 83 76
70 54 92 100 92 100 100 93 88 98 100 100 98 95 92 84 63 54 42 36 35 27 22 33 61 82 85 68 75 89 78 76 74 66 70 69 81 97 73 100 99 88 80 65 56
80 64 87 79 75 78 83 76 86 88 89 93 87 86 78 93 85 78 59 54 43 24 30 66 83 83 74 72 85 76 83 73 67 72 74 82 90 91 69 74 76 86 86 89 97

GFSSW_500_rhum_015.txt.gz
RH
18 21 18 11 8 7 11 68 69 47 68 69 69 28 27 29 21 19 18 15 14 16 16 14 15 15 16 16 16 16 11 10 10 11 13 13 10 10 9 7 11 11 10 8 7
13 16 20 20 14 9 7 7 45 59 42 90 53 61 23 24 29 17 22 17 14 14 16 17 16 16 15 17 15 13 11 11 13 12 12 11 10 9 6 6 11 12 10 10 10
10 11 15 20 21 17 11 7 7 44 60 50 81 41 37 22 22 38 23 20 17 14 13 16 16 14 13 15 14 12 10 12 14 12 10 9 10 8 7 7 10 13 10 9 8
9 12 11 11 19 22 20 15 7 6 66 76 63 65 32 29 24 28 32 27 20 17 14 13 14 15 14 13 14 12 12 12 13 12 8 10 10 8 7 8 8 12 11 8 9
10 11 11 12 10 16 22 20 16 7 7 81 60 72 67 30 29 26 27 31 28 23 20 15 12 12 14 14 14 12 11 11 12 11 8 9 10 7 8 10 12 12 10 10 9
6 7 10 16 14 10 16 22 19 16 7 12 90 56 87 52 31 29 27 28 27 24 23 19 16 13 11 12 12 12 11 10 9 8 6 8 11 6 8 11 10 10 10 9 10
8 8 8 11 21 16 10 16 21 17 12 6 42 83 70 72 64 38 29 27 25 24 23 23 22 18 13 11 10 11 11 11 11 11 9 11 10 6 11 10 8 8 10 9 8
35 35 29 22 13 8 12 10 19 18 14 8 36 68 77 58 57 39 29 28 24 24 24 23 23 22 19 15 11 10 10 10 16 11 10 10 8 10 9 8 7 8 7 8 8
31 38 30 23 22 17 9 8 12 21 14 8 8 19 73 66 54 44 30 25 26 30 36 23 22 21 20 17 13 10 10 10 12 14 10 9 8 9 8 7 7 7 7 7 8
16 19 30 35 18 14 12 6 7 17 17 10 12 24 34 80 88 53 31 25 25 64 40 43 25 21 19 17 14 13 10 9 10 12 11 10 8 8 8 8 8 8 8 7 7
48 80 81 68 74 49 10 8 6 12 17 20 12 36 53 65 97 81 32 24 22 21 22 32 30 23 24 18 14 12 11 14 21 16 13 13 9 7 10 8 9 8 8 9 9
68 72 75 94 97 93 15 6 7 10 16 14 26 47 30 69 89 88 33 25 22 22 20 20 24 29 19 16 14 12 13 19 21 18 10 12 10 9 10 10 10 12 11 12 13
65 64 88 84 100 66 22 4 9 12 42 68 24 20 51 61 56 87 39 25 24 21 25 27 31 21 22 22 25 19 17 19 20 20 17 11 9 10 11 14 14 13 13 11 11
80 83 82 100 98 68 15 5 10 37 90 74 21 71 86 52 48 47 34 23 22 23 27 29 32 30 30 34 32 26 25 24 22 22 17 14 8 10 12 11 11 11 10 9 9
59 68 97 100 83 58 18 10 94 48 98 100 50 90 49 50 46 41 27 22 22 22 27 41 44 38 42 39 31 26 22 24 22 19 15 13 10 6 9 10 10 9 8 8 9
91 100 91 93 87 65 5 10 62 100 100 92 39 31 70 52 43 34 24 21 19 20 34 44 50 46 37 32 27 23 22 20 17 15 10 10 9 6 6 8 13 13 13 14 12
100 100 98 89 76 15 36 100 100 100 99 49 34 92 100 67 42 31 23 19 18 30 44 43 46 44 33 26 19 18 21 21 17 12 9 8 7 6 13 15 17 18 16 16 18
98 84 38 75 15 33 99 100 100 99 63 56 99 96 80 95 60 30 23 16 27 30 35 41 35 27 21 20 20 22 23 21 16 13 11 12 10 11 15 22 23 20 18 16 25
44 25 35 16 15 97 100 100 98 100 91 58 84 92 84 91 39 26 21 18 23 26 26 20 24 26 25 26 26 28 26 24 21 18 14 14 14 14 26 41 37 32 34 34 37
22 11 14 74 76 96 100 100 100 99 96 94 84 71 59 60 27 24 21 19 21 23 21 24 28 28 28 26 27 26 26 23 20 18 18 16 20 26 41 37 32 32 37 46 56
11 11 74 97 99 100 100 98 98 100 100 98 86 78 86 46 27 26 24 27 28 26 27 30 29 34 34 28 28 26 21 22 26 36 31 27 22 56 42 37 40 48 60 73 87
8 39 99 100 100 100 100 100 100 70 99 94 90 66 89 58 31 32 31 29 32 32 30 29 32 41 35 28 23 21 30 39 47 44 40 38 30 46 52 50 69 68 69 90 100
9 65 96 100 98 100 81 94 99 100 98 98 94 100 85 78 45 32 31 31 33 32 36 40 38 33 24 24 26 39 51 52 48 54 61 47 50 57 54 73 81 65 92 85 100
40 64 92 90 100 99 77 77 98 83 96 99 96 96 87 67 51 46 41 41 35 44 44 40 28 25 26 29 40 57 62 70 60 60 50 51 32 51 48 50 54 63 92 85 87
54 72 80 94 92 100 99 96 72 73 60 97 98 94 83 63 56 55 53 51 48 45 39 28 26 27 30 44 55 68 74 66 77 68 59 47 56 58 63 60 61 72 66 52 62
59 57 53 54 71 75 73 82 90 73 94 90 86 86 96 56 55 55 51 48 43 33 29 25 27 41 55 73 77 85 81 89 66 52 43 54 66 86 84 80 60 48 50 63 66
45 46 70 69 58 57 55 67 76 80 84 90 93 91 88 87 51 46 41 38 37 35 31 26 34 72 78 76 84 91 96 74 54 46 39 58 66 74 75 91 62 50 40 51 63

GFSSW_500_rhum_018.txt.gz
RH
12 9 9 9 10 18 19 10 11 17 80 87 86 76 90 51 28 24 22 20 18 19 20 17 16 16 11 10 11 11 8 8 10 13 14 14 12 11 9 8 7 8 6 6 6
10 9 10 10 11 13 20 21 10 8 13 82 73 78 81 88 32 25 28 22 18 17 18 22 22 18 13 13 13 10 6 10 14 16 15 14 10 9 9 8 7 7 8 6 6
11 10 10 10 9 13 18 22 22 12 6 27 75 69 80 67 64 37 27 25 21 18 16 19 21 17 15 16 12 12 9 14 15 17 16 12 11 8 6 8 8 7 7 6 6
7 9 11 12 12 14 14 22 26 24 14 6 29 61 59 74 63 41 35 26 26 21 17 16 18 20 18 16 15 12 12 14 15 14 13 11 10 10 8 8 9 7 8 7 6
6 14 15 9 19 22 23 19 28 28 23 12 6 66 50 84 47 58 27 39 27 25 21 17 16 18 20 17 18 14 13 14 14 14 12 11 10 9 9 10 10 8 6 7 7
8 9 21 32 17 19 33 29 24 30 26 18 7 44 79 83 57 37 43 42 38 30 24 19 17 15 17 19 17 13 14 13 13 12 12 11 11 10 8 13 11 8 6 7 8
4 5 31 53 49 33 13 31 29 29 29 20 11 8 99 75 89 38 34 53 58 37 32 25 21 17 15 15 16 15 14 14 14 16 14 13 9 7 8 11 9 7 7 7 7
6 11 18 26 27 40 37 13 26 29 31 24 13 8 25 86 79 89 32 30 31 29 35 35 29 21 20 15 13 12 12 13 15 15 14 12 6 7 7 8 8 8 8 8 8
17 43 41 43 33 17 31 31 18 24 30 27 15 10 35 90 85 99 63 34 30 29 29 30 31 26 22 17 15 12 10 11 12 12 12 10 7 9 7 6 9 9 8 7 7
39 51 61 71 56 46 18 24 13 21 25 27 18 22 16 66 100 95 90 40 46 62 69 46 25 23 21 20 20 20 17 13 11 10 10 9 8 9 9 10 9 8 8 8 7
62 69 76 78 86 73 42 16 17 13 20 24 25 15 79 61 97 95 98 54 49 63 75 61 41 26 25 25 23 21 20 18 14 11 9 9 8 8 15 9 11 10 8 8 9
97 84 84 90 100 79 47 18 14 10 13 23 33 18 50 39 96 98 98 76 47 75 92 73 56 72 45 28 23 21 19 18 15 12 10 9 8 10 13 11 10 9 9 10 12
100 100 100 100 100 94 44 18 10 11 13 100 88 46 86 75 75 99 100 92 59 35 40 44 48 53 33 28 24 21 19 17 15 13 11 9 8 10 12 12 11 11 11 11 12
100 100 100 95 97 97 36 12 7 13 44 100 53 50 100 82 76 98 100 71 73 43 26 23 22 23 20 22 20 17 17 16 15 14 11 12 9 10 12 12 14 15 15 16 16
100 100 100 100 92 84 25 5 9 17 55 89 67 97 86 46 65 84 94 58 32 29 30 31 24 25 23 26 24 22 22 21 19 16 12 14 10 10 12 14 13 13 12 12 12
100 94 91 99 100 67 6 7 16 72 100 75 88 68 99 58 65 68 75 55 30 25 23 27 36 34 35 29 24 32 32 25 20 19 14 15 12 9 10 10 10 10 11 11 10
64 49 78 93 61 26 9 29 98 100 100 60 50 47 93 57 54 61 45 35 26 22 22 31 41 42 40 35 34 33 29 24 18 16 14 12 10 9 13 16 14 14 12 11 11
15 33 30 16 42 87 50 77 100 100 99 60 40 96 66 57 51 49 47 28 22 20 26 49 48 50 44 33 26 24 21 19 16 16 15 13 9 14 17 16 16 15 15 16 16
12 29 48 65 70 100 100 100 100 100 88 49 57 55 71 78 58 41 33 24 20 33 46 58 50 36 30 25 21 24 22 22 22 18 14 14 13 17 33 26 22 21 20 19 18
60 67 86 100 98 97 100 100 87 74 65 46 37 91 80 74 62 38 28 24 35 38 40 41 37 26 23 26 28 26 24 23 22 17 14 13 19 47 34 28 23 25 29 33 39
72 97 96 100 100 96 91 82 80 68 75 94 71 77 93 94 72 35 27 25 28 28 28 24 25 27 29 28 26 23 28 24 22 24 24 26 42 30 35 30 25 28 35 38 38
89 76 98 94 96 99 100 100 58 100 73 67 75 86 94 98 56 33 27 25 23 23 27 29 30 29 28 32 32 24 24 27 28 38 46 41 45 42 33 39 44 44 37 30 24
50 31 55 66 51 92 86 91 100 91 86 75 60 69 82 49 29 28 26 27 27 29 31 32 31 33 38 32 24 26 28 36 46 57 57 44 41 34 36 46 45 37 36 24 28
58 44 36 60 50 61 94 76 54 69 85 73 91 77 77 40 29 31 28 27 29 30 30 35 39 36 27 23 24 38 46 56 65 55 55 50 43 53 54 42 38 54 26 27 37
31 37 39 29 49 55 53 72 64 57 86 90 92 94 80 76 44 34 32 32 32 33 45 46 40 29 23 23 39 62 72 76 66 48 31 40 50 46 51 50 48 46 25 33 43
34 29 29 30 32 36 33 37 34 40 72 85 84 100 90 65 60 51 46 49 52 50 46 38 30 25 24 31 60 73 81 72 55 36 33 34 53 58 52 53 52 29 25 35 45
26 28 34 46 47 36 34 63 70 58 51 63 67 83 90 84 68 58 54 50 49 46 37 31 27 23 31 57 73 73 83 72 60 37 43 44 63 65 58 53 45 37 24 28 34

GFSSW_500_rhum_021.txt.gz
RH
17 9 8 8 8 9 13 12 13 19 13 10 20 64 67 61 74 50 27 31 27 26 25 26 27 28 30 29 27 24 18 14 19 16 14 14 10 8 7 7 7 6 7 7 6
10 7 7 8 9 12 16 16 14 24 20 9 8 50 95 77 67 67 49 31 26 24 25 26 25 22 19 19 20 20 15 14 20 14 16 14 10 10 9 8 8 7 7 7 6
9 8 8 7 12 14 16 21 20 29 28 22 8 10 82 91 73 78 64 36 28 24 20 22 26 23 18 16 12 12 11 12 17 14 16 14 12 11 10 9 8 8 7 6 6
8 9 7 7 9 10 16 20 24 32 37 28 20 7 70 91 73 79 90 50 30 28 22 19 19 23 21 18 13 10 9 12 17 17 16 13 12 9 10 11 9 9 8 7 6
11 13 12 8 16 37 31 19 27 34 40 36 27 9 66 91 74 80 97 63 37 30 27 21 18 18 22 21 18 12 12 15 16 18 15 14 12 12 11 12 10 9 8 7 5
29 36 39 20 28 39 51 21 32 38 40 42 30 13 28 86 86 91 99 93 44 34 30 26 21 17 17 22 21 14 14 17 17 18 16 15 14 12 11 11 11 9 9 8 6
51 72 56 38 40 42 37 61 14 37 41 46 33 19 32 77 93 93 98 97 89 49 34 30 29 22 16 17 21 18 18 18 16 18 16 16 12 9 10 13 10 7 7 8 7
74 93 78 65 69 57 36 36 26 28 42 46 34 20 10 25 97 97 97 96 98 87 49 35 29 27 22 16 17 19 18 17 18 18 17 15 9 12 11 12 9 8 6 7 8
80 100 99 79 81 81 63 29 51 14 41 45 34 20 93 26 93 100 96 97 100 98 94 51 41 29 26 19 16 15 16 17 19 18 16 13 8 13 12 10 9 8 6 6 9
99 100 100 98 96 93 84 41 42 15 36 44 31 25 64 71 100 99 98 95 86 99 100 93 48 37 28 20 16 16 15 15 15 14 14 11 8 12 12 10 8 8 8 8 9
100 100 100 100 100 98 85 44 38 20 34 39 32 29 34 65 99 90 97 98 83 90 77 64 57 29 35 30 26 18 15 13 14 13 11 10 8 10 11 9 9 8 7 8 11
100 100 100 100 100 100 98 48 32 18 31 36 34 46 94 52 89 100 89 98 94 96 95 90 74 48 36 29 25 19 17 16 18 18 14 13 10 10 10 9 9 8 8 10 10
100 100 100 100 98 100 100 40 26 16 26 32 30 71 89 59 97 100 88 99 95 98 97 93 87 86 100 49 23 20 19 21 22 21 19 19 17 14 11 9 9 9 8 9 11
100 100 100 86 100 100 97 34 20 16 29 31 29 33 73 100 73 100 99 99 91 87 99 97 100 85 67 47 34 28 28 25 23 21 20 19 15 16 14 12 11 11 10 11 11
65 100 96 98 100 100 35 13 16 21 26 36 49 38 87 94 61 81 98 96 95 86 97 100 98 88 100 74 37 30 27 24 21 19 19 17 15 14 16 15 14 14 12 12 12
48 44 88 90 96 62 9 12 16 22 98 100 49 51 98 100 68 79 96 100 95 85 83 64 47 27 24 22 20 21 21 20 18 16 16 16 14 14 15 14 14 14 13 12 12
3 22 59 54 30 30 8 15 20 94 99 99 58 72 100 84 76 87 100 84 73 70 61 54 34 26 24 21 24 24 24 21 20 18 16 16 13 14 16 11 10 11 11 12 11
86 42 13 5 7 10 12 26 99 100 100 70 62 91 78 59 64 96 95 95 77 60 45 32 45 30 26 28 33 30 27 27 21 19 16 13 12 15 17 13 10 10 10 10 9
83 91 69 51 26 79 99 100 100 78 59 44 78 98 89 63 69 97 74 64 40 33 37 30 34 36 42 50 45 38 31 26 18 15 13 14 17 19 15 12 11 13 18 23 24
49 55 78 76 90 88 76 96 92 69 32 61 40 48 63 50 59 90 72 40 29 24 26 35 55 57 56 46 37 27 23 21 20 16 15 13 20 28 18 16 21 29 28 23 21
47 71 85 58 65 56 57 61 76 50 36 37 74 51 63 74 66 69 52 29 26 43 53 56 58 49 42 29 22 24 25 23 24 20 16 16 40 28 25 30 33 27 22 24 27
65 44 60 82 47 44 42 52 56 49 64 69 93 94 99 100 95 38 30 26 38 45 48 47 37 27 24 27 26 30 30 25 22 20 28 40 52 48 39 33 26 27 30 30 26
34 42 35 63 75 70 45 46 50 70 71 66 83 84 84 89 70 33 28 28 28 30 31 30 28 28 29 29 34 28 24 25 27 37 62 60 52 33 32 40 32 30 33 33 28
30 24 34 44 41 50 74 69 83 80 69 59 55 66 82 73 37 31 26 27 29 31 32 31 31 30 34 33 28 25 25 36 50 60 76 46 37 50 49 44 45 40 38 24 23
28 31 31 24 28 46 50 37 54 72 90 89 92 81 88 46 29 28 27 29 31 32 32 34 38 40 32 24 25 26 43 60 69 59 39 40 34 34 35 37 39 38 36 21 27
36 27 22 29 29 43 34 50 49 73 79 76 82 88 79 59 44 31 31 30 32 34 39 44 44 37 30 25 27 45 66 72 73 45 37 40 38 51 45 39 35 45 29 26 31
24 32 32 39 41 29 26 27 24 38 44 55 56 72 76 69 57 48 42 37 37 41 46 46 40 32 27 26 34 70 74 78 69 51 36 38 43 63 51 49 42 45 38 36 49

GFSSW_500_rhum_024.txt.gz
RH
39 27 19 14 10 10 9 9 10 12 14 13 16 13 25 71 64 53 72 50 36 34 31 39 88 63 47 39 35 33 25 19 18 22 31 23 16 12 10 8 7 6 7 8 7
32 21 15 12 11 10 7 12 17 14 24 19 22 16 16 39 66 48 70 75 48 35 31 29 32 84 52 49 37 32 21 19 22 29 35 26 18 14 10 8 8 9 8 10 9
24 16 12 13 15 18 18 41 15 19 25 26 38 24 9 65 45 61 73 86 68 44 32 30 28 31 74 49 39 29 20 20 29 34 38 27 19 13 10 8 9 9 8 9 9
18 12 16 35 41 53 30 80 97 25 32 33 44 33 18 23 52 82 82 75 93 60 39 30 28 26 27 48 37 28 24 25 28 29 34 25 19 12 9 10 9 10 9 8 9
14 16 35 75 86 74 38 47 100 89 47 42 47 39 28 19 48 87 88 86 97 73 46 31 27 26 27 24 22 19 19 18 20 19 19 19 15 10 9 11 10 11 10 9 8
15 32 92 70 100 82 63 54 62 100 46 51 52 44 31 14 41 87 100 91 98 92 55 36 28 22 22 26 24 18 16 18 20 18 15 13 11 9 10 13 13 12 10 9 7
18 90 100 99 100 96 80 87 49 93 42 54 55 48 34 15 49 100 94 96 94 99 67 42 34 26 21 19 22 20 19 19 18 20 14 12 10 8 13 15 14 12 11 10 7
26 100 100 99 100 100 99 98 76 63 33 52 56 50 34 15 74 93 95 90 95 97 80 46 36 31 25 20 18 19 20 19 19 21 16 14 10 9 13 14 14 12 10 8 7
25 78 100 100 100 100 98 100 89 70 29 50 54 49 33 17 92 100 97 98 93 100 99 52 40 32 28 23 19 17 16 18 22 21 19 13 11 12 13 13 11 11 11 10 9
33 89 100 100 94 100 100 100 98 59 22 51 55 47 29 19 87 90 90 93 98 100 99 90 50 36 30 24 19 16 16 18 20 21 18 12 8 13 14 13 12 11 12 12 11
38 98 92 100 96 100 95 100 63 56 25 50 50 42 22 37 20 100 98 99 100 97 94 98 70 39 30 27 28 24 19 16 16 16 16 14 11 13 15 13 13 12 11 11 11
51 100 100 100 100 93 89 100 55 49 40 51 48 36 51 100 45 74 97 91 98 100 99 99 88 69 45 31 28 24 21 19 18 16 14 13 11 13 13 12 11 11 10 10 10
66 100 100 93 96 100 100 94 51 22 43 49 40 30 85 100 90 75 99 93 98 98 100 93 80 81 67 45 32 26 24 25 22 18 13 12 10 11 11 11 10 10 9 9 9
29 94 95 91 100 90 83 46 41 32 47 42 33 44 68 53 77 100 100 95 100 98 97 95 95 100 92 54 36 29 28 25 21 17 13 13 9 16 19 20 19 17 13 10 9
5 17 85 95 97 99 32 32 24 44 47 65 49 94 100 53 54 81 99 95 98 100 100 98 100 89 92 100 78 50 31 24 19 17 13 14 14 19 21 19 18 17 15 13 12
7 12 30 37 28 18 23 23 37 36 66 67 97 99 55 39 90 77 89 91 92 99 99 100 92 100 81 92 72 57 46 33 25 22 18 21 20 23 21 18 17 16 14 13 12
53 18 9 9 13 18 20 29 37 74 58 37 38 46 80 62 70 60 89 80 94 87 93 95 97 100 94 94 85 50 29 28 26 24 21 22 20 20 18 17 15 14 13 12 11
71 68 38 14 16 19 28 78 66 42 50 44 46 41 68 54 54 67 100 91 97 96 90 100 89 66 45 27 27 24 22 22 21 21 21 19 20 19 16 14 12 11 11 10 9
72 64 55 53 30 40 82 99 74 100 44 49 60 81 70 63 78 99 99 100 100 96 86 85 79 63 36 28 25 26 22 26 23 23 23 19 18 17 14 12 11 9 9 9 12
69 61 44 39 59 56 59 57 94 67 51 47 52 81 78 59 84 96 100 93 88 84 78 64 51 52 39 33 31 33 41 33 27 22 19 19 21 17 13 11 10 10 15 23 25
52 60 43 31 41 72 33 37 35 39 34 66 82 95 82 80 97 82 85 76 52 39 41 47 41 44 50 46 53 45 41 28 23 21 18 19 22 16 12 14 20 27 31 24 22
37 41 45 39 36 48 38 34 24 36 46 59 73 69 82 88 88 94 71 47 30 28 44 38 52 65 56 48 36 27 28 30 26 24 24 30 32 22 26 39 32 26 24 25 20
24 25 31 38 30 29 40 52 65 53 55 83 97 90 96 84 73 57 44 32 40 55 61 64 54 44 32 28 30 32 32 29 24 29 36 55 45 41 36 22 20 29 29 22 16
27 24 23 37 33 36 42 40 51 58 69 77 72 69 83 91 76 37 31 32 37 40 42 40 29 28 32 34 36 34 28 25 30 40 64 60 40 24 19 31 33 26 24 29 22
29 26 23 27 42 43 50 60 62 70 71 68 52 64 86 89 55 31 27 28 30 33 34 30 33 34 39 36 31 26 25 31 54 63 68 39 32 31 55 36 29 30 37 33 29
31 33 35 34 34 37 34 38 40 73 67 64 74 81 63 40 31 31 26 31 33 35 34 34 36 40 38 30 26 25 30 61 75 71 48 40 41 40 37 38 33 27 38 41 43
23 27 32 42 37 30 34 29 28 40 50 50 54 82 66 55 36 32 32 30 30 31 30 33 40 41 35 29 27 33 51 73 82 65 50 37 38 36 43 32 32 41 45 41 46

GFSSW_500_rhum_027.txt.gz
RH
83 64 51 36 24 17 16 14 14 15 13 12 10 10 12 17 32 48 43 63 71 44 36 36 52 87 94 62 47 36 32 23 21 22 27 30 26 19 17 15 13 11 7 6 6
82 54 34 23 19 16 17 19 23 18 28 28 16 19 19 16 24 49 48 50 76 67 38 35 35 63 90 86 67 36 29 24 23 28 32 32 26 19 16 15 13 11 8 7 8
53 32 21 16 15 26 37 57 72 85 49 28 27 20 30 41 29 22 85 69 68 85 49 37 35 38 72 89 67 35 29 29 30 36 36 30 26 21 17 16 14 11 8 7 8
27 18 11 13 34 57 84 92 95 77 76 100 53 27 41 46 49 30 58 88 77 87 67 40 38 34 43 74 74 45 33 33 38 38 34 31 26 22 19 18 15 12 9 8 10
14 10 21 28 68 91 100 100 100 74 69 100 97 42 54 46 36 41 56 66 78 83 97 51 38 36 31 38 77 57 45 40 46 40 34 30 24 22 20 20 16 13 10 9 9
10 19 25 65 100 100 100 100 100 88 55 95 98 59 59 39 31 51 94 73 81 87 92 83 45 34 29 29 38 79 63 50 43 40 36 29 26 21 19 21 18 13 11 10 10
23 25 28 99 100 100 100 100 100 90 63 78 96 68 58 39 29 35 52 76 100 97 95 98 66 40 30 27 30 38 66 43 29 26 24 22 20 15 21 19 17 14 12 11 10
39 23 100 90 100 97 100 100 100 90 73 86 81 69 56 37 24 94 100 90 100 98 96 99 74 47 35 26 26 27 34 38 29 20 17 15 14 12 13 16 16 13 12 12 12
9 26 71 100 100 100 100 99 97 100 74 100 58 64 53 38 24 38 94 89 100 100 95 98 83 51 38 29 24 24 26 25 24 21 17 14 14 12 11 14 14 14 15 14 14
12 96 85 83 100 100 92 100 99 94 87 81 54 63 46 30 25 21 76 87 100 98 99 100 90 55 39 31 24 21 21 20 22 22 19 16 17 14 16 13 14 16 17 16 14
12 100 100 89 84 85 82 88 94 68 71 52 62 52 41 26 71 85 94 99 100 99 99 96 74 61 40 31 27 24 20 19 18 18 16 15 13 12 17 16 17 16 16 15 15
10 51 100 95 83 90 100 96 57 64 52 60 62 47 34 24 99 98 88 94 99 99 99 98 84 75 46 36 33 29 24 20 18 16 16 15 13 17 18 16 15 14 14 14 14
11 11 82 89 86 85 86 50 58 42 62 64 70 39 26 21 72 99 96 100 99 99 100 100 99 93 57 38 30 28 26 25 22 18 15 14 14 16 17 16 14 12 13 13 12
13 10 26 69 84 99 45 51 31 61 56 81 44 69 88 20 45 62 100 100 97 99 98 100 100 100 75 47 36 29 29 27 24 20 18 15 13 15 14 13 12 11 10 10 9
14 12 14 20 30 40 38 30 57 54 48 53 80 87 98 79 88 71 100 100 99 100 100 100 96 88 95 73 52 42 36 30 24 21 18 16 15 17 15 13 12 12 15 17 17
15 19 24 28 30 28 36 54 48 47 47 54 86 86 99 96 78 94 100 100 100 100 99 99 100 100 100 88 80 58 44 35 28 20 16 15 15 18 16 15 16 18 18 17 16
16 18 20 20 26 43 45 40 44 45 90 77 61 62 36 61 83 100 100 99 99 100 99 99 100 100 99 98 100 96 67 44 34 22 19 20 19 20 20 19 19 19 18 18 17
37 55 61 56 74 37 41 61 64 51 81 90 75 34 22 44 77 72 80 100 96 99 99 99 95 100 98 97 99 89 65 56 37 30 26 25 22 22 21 20 19 18 17 16 15
28 29 42 48 46 31 37 29 39 60 60 44 31 43 32 47 54 56 89 100 97 99 98 98 92 97 100 90 79 74 57 38 30 29 26 26 24 23 21 19 17 14 13 12 11
35 27 26 31 27 32 52 25 30 36 36 25 31 43 49 64 72 71 81 80 80 100 100 92 97 88 74 48 34 30 33 35 30 29 29 26 21 18 17 15 13 11 11 10 10
33 28 31 29 18 20 44 36 36 40 32 52 87 81 68 69 93 96 98 93 95 93 92 83 73 68 72 50 37 33 35 33 35 31 26 22 20 17 14 12 11 11 13 16 23
30 36 26 25 23 18 20 24 29 42 54 60 74 69 51 70 92 92 100 97 96 93 81 74 63 46 47 49 41 40 40 39 32 26 24 21 18 14 13 17 18 24 26 24 23
24 34 33 28 54 20 20 24 30 44 51 48 51 64 69 73 77 72 73 67 53 35 28 35 39 36 49 56 50 49 37 29 26 30 26 21 18 19 29 34 29 23 21 21 19
22 26 43 42 58 41 45 43 46 59 78 78 75 81 91 98 86 69 51 35 29 38 52 52 62 61 52 41 34 30 29 32 31 28 28 35 37 44 29 21 18 25 25 23 25
19 23 32 43 49 72 60 80 71 74 72 68 59 63 86 89 83 40 30 32 40 46 51 58 41 37 35 34 36 37 34 28 28 34 62 57 51 34 29 27 40 36 25 24 22
22 19 24 31 40 41 42 44 71 70 56 58 75 73 82 81 56 32 28 29 32 34 35 34 37 36 40 42 37 29 26 31 47 66 68 57 38 43 30 49 36 30 24 23 24
28 23 21 26 34 40 40 35 32 53 50 46 63 80 60 43 31 30 28 32 33 34 35 35 35 41 42 36 29 27 27 50 64 78 69 48 48 38 36 31 27 26 23 22 24

GFSSW_500_rhum_030.txt.gz
RH
100 100 97 82 56 41 30 25 25 23 22 20 16 15 14 10 12 10 10 33 43 48 41 39 42 66 83 76 82 65 51 27 27 33 31 29 25 21 20 17 15 15 14 13 13
98 70 35 22 16 12 11 13 16 16 17 19 17 14 13 10 10 10 12 35 47 52 47 58 47 42 74 80 86 65 52 29 29 31 33 32 29 22 19 21 18 16 14 13 10
38 21 13 9 13 32 29 22 29 31 32 29 25 26 20 13 11 11 63 25 58 51 61 56 54 43 49 88 78 83 59 38 34 34 35 32 31 26 21 20 18 16 15 13 10
12 11 11 12 18 30 52 61 57 78 78 66 68 62 48 36 24 20 36 70 54 52 60 91 63 59 43 77 86 86 60 46 41 42 37 32 33 29 23 18 17 16 15 13 10
20 22 15 13 57 97 86 78 85 97 95 72 82 85 65 37 27 22 48 99 53 70 52 83 75 58 50 55 78 83 73 60 53 45 40 33 33 34 27 20 18 16 16 14 11
37 30 15 98 100 100 98 100 100 98 100 86 84 60 100 59 34 35 60 96 52 85 61 68 91 49 60 58 49 77 78 80 67 45 40 37 34 34 31 25 19 17 18 16 13
42 21 50 98 100 100 100 98 100 100 88 95 76 56 85 72 42 98 56 90 40 85 90 73 96 58 42 68 43 49 83 96 73 57 40 35 32 28 32 29 20 18 19 18 15
28 33 100 55 54 92 100 100 100 97 98 81 63 76 82 62 44 64 96 99 59 84 98 92 99 74 42 46 67 36 44 95 96 63 45 38 30 26 30 28 24 20 17 19 18
15 36 100 88 77 72 86 100 99 94 92 76 82 96 86 50 53 100 95 86 92 73 95 95 97 90 50 37 51 48 35 56 95 76 53 38 28 26 25 25 24 20 19 21 19
14 11 100 100 87 71 84 83 86 86 89 93 100 96 62 42 47 61 80 70 93 94 94 96 99 98 61 40 41 47 39 36 60 85 64 51 33 22 20 18 16 16 18 19 17
16 13 93 100 96 80 88 100 94 75 96 100 98 61 45 40 38 82 95 96 83 90 82 88 91 75 73 45 36 38 27 28 31 40 59 39 40 19 16 18 20 16 16 15 15
18 16 50 86 84 88 88 69 82 94 95 81 63 49 36 48 94 87 100 84 91 81 95 99 70 70 82 50 37 30 25 24 24 26 43 55 50 23 19 18 18 18 17 16 15
17 22 30 58 65 54 49 60 78 79 72 63 48 35 28 25 21 25 90 100 98 96 95 93 77 81 86 56 42 35 28 23 21 20 20 23 22 20 20 17 14 15 17 18 16
15 18 26 30 36 38 53 66 68 77 94 58 38 34 66 33 27 69 100 100 100 100 100 100 100 98 95 67 46 38 33 28 23 20 18 18 17 17 16 16 14 13 14 14 14
45 17 20 24 35 55 94 100 100 76 63 87 64 57 100 96 75 100 100 97 98 100 100 99 99 97 91 84 50 40 34 33 28 24 22 19 20 18 16 14 14 14 14 13 12
39 33 30 38 46 47 70 83 97 80 99 100 90 63 84 98 100 100 100 100 99 100 100 100 92 91 98 91 58 41 36 34 32 28 24 21 20 19 16 14 13 12 12 11 10
23 30 33 35 37 40 46 54 73 62 91 98 100 59 58 72 84 96 100 99 100 99 99 100 100 100 100 99 71 50 42 38 33 30 24 23 20 18 16 14 12 12 11 11 12
17 26 25 29 30 34 36 41 38 51 67 92 100 72 89 98 100 100 100 95 99 100 87 100 98 100 100 100 90 78 62 51 40 34 26 23 20 16 15 13 11 10 12 14 17
22 21 17 21 33 30 47 47 31 36 50 52 32 32 67 73 86 82 92 100 100 99 100 99 100 100 100 99 100 100 100 92 66 55 40 30 22 21 18 16 14 16 18 19 18
23 18 16 17 18 32 50 50 37 46 40 36 36 25 55 62 64 56 69 85 87 88 97 98 98 98 100 99 99 100 99 91 79 54 35 30 27 24 23 21 21 21 20 17 14
24 20 14 13 22 21 27 33 31 35 24 27 28 26 29 45 55 57 70 88 86 92 90 88 98 93 96 99 83 71 54 52 45 34 36 32 28 26 24 23 20 17 14 12 10
28 26 16 14 17 21 29 28 22 20 32 32 33 44 52 62 65 68 76 79 87 89 86 91 94 99 91 80 62 52 37 34 37 43 38 32 27 24 21 18 15 13 12 11 13
25 32 27 18 17 19 19 20 23 25 32 40 38 40 54 66 70 71 71 82 90 93 87 77 74 93 67 75 72 45 36 36 44 42 30 27 26 20 17 15 15 18 16 22 23
18 24 35 32 37 39 29 27 40 57 58 65 74 77 77 79 79 76 87 85 76 49 48 44 53 60 46 56 60 53 49 46 38 29 32 26 20 20 28 26 29 27 22 23 23
17 19 26 48 67 59 46 42 57 67 68 65 61 61 83 81 77 64 50 43 42 55 56 65 46 46 59 60 59 54 38 32 34 30 26 23 22 44 46 34 26 21 26 24 23
19 19 21 37 50 64 62 80 72 63 56 71 77 72 79 78 59 38 32 30 36 47 59 67 68 58 47 38 35 36 37 36 30 27 28 26 43 58 38 28 28 32 32 28 23
26 22 18 19 36 40 48 46 66 69 56 51 81 86 87 87 66 44 31 31 34 37 68 53 37 38 39 40 43 38 31 27 26 28 40 65 67 47 41 35 32 32 24 22 20

GFSSW_500_rhum_033.txt.gz
RH
88 79 59 39 25 22 22 27 33 36 61 67 73 59 47 34 19 15 12 12 32 37 36 41 75 91 96 91 94 96 98 85 56 40 38 43 44 35 30 28 24 20 20 18 16
42 23 15 16 15 16 14 14 14 14 17 20 30 40 43 36 26 18 15 12 14 36 37 42 41 91 87 98 94 82 88 90 73 43 36 39 42 34 28 24 22 21 18 16 14
18 18 30 39 28 19 17 17 12 24 37 39 21 19 23 33 28 20 17 17 14 16 40 40 46 54 96 96 96 78 70 84 76 45 32 38 42 34 28 24 23 20 17 16 15
21 29 25 13 16 34 68 100 100 71 63 50 34 27 22 20 22 18 18 19 16 16 33 42 50 46 88 88 96 80 67 93 72 58 37 38 44 35 31 28 22 19 18 16 16
12 11 14 19 48 98 94 96 97 69 55 53 53 42 37 28 20 27 18 25 19 29 13 44 51 47 74 79 75 97 74 85 75 53 44 39 38 42 32 26 25 21 19 18 16
9 15 29 77 73 100 100 93 100 88 76 71 71 69 65 46 42 22 51 15 22 27 26 34 51 52 58 92 54 72 84 78 92 79 49 41 37 39 37 27 24 22 21 19 17
10 16 64 100 90 60 97 98 100 100 100 100 86 86 73 60 50 35 54 30 59 100 54 29 59 64 59 78 82 48 81 90 97 96 64 45 36 33 39 31 25 22 20 19 19
10 16 55 100 97 77 75 100 90 100 99 86 83 58 57 72 60 35 31 47 31 100 77 66 65 72 81 79 86 46 64 92 98 96 80 50 39 40 41 34 26 23 22 19 20
10 14 56 100 100 75 79 96 97 98 87 92 85 75 68 52 50 41 36 54 55 100 87 62 73 69 97 90 76 61 45 88 98 94 91 59 44 38 41 41 36 31 25 21 21
9 13 45 100 96 94 74 80 84 78 89 93 74 71 63 60 54 60 60 46 31 65 80 72 85 69 90 93 65 76 71 82 73 82 95 66 48 42 37 41 39 34 27 22 20
9 14 27 59 79 96 95 100 100 76 74 84 100 99 74 82 100 92 54 95 99 89 67 60 88 65 50 79 50 52 67 72 58 54 84 83 59 49 38 35 33 31 27 22 19
12 15 22 31 46 57 71 78 84 82 94 100 94 74 92 100 100 100 96 98 75 64 52 68 80 85 81 94 57 50 57 70 76 54 62 93 70 53 49 32 24 22 20 18 15
23 35 40 45 52 60 67 74 80 82 74 71 68 57 73 100 100 86 68 100 76 72 55 58 74 92 87 91 60 48 42 46 56 65 39 58 78 73 52 33 20 18 17 16 14
21 68 67 65 60 100 100 100 81 58 54 62 70 73 94 100 100 91 86 72 74 77 96 90 97 84 73 79 77 46 38 36 31 75 33 32 38 79 62 38 27 21 19 18 16
25 33 58 44 57 59 64 64 90 95 86 67 74 85 100 100 97 98 89 100 100 95 87 83 95 97 91 91 96 68 42 33 28 54 65 24 24 31 32 53 54 46 25 17 13
23 28 46 40 39 47 76 100 82 80 93 50 88 63 56 81 94 100 100 100 98 99 100 100 100 100 99 98 96 72 49 40 32 27 51 40 21 20 20 18 16 15 15 14 13
22 25 28 34 37 44 52 92 85 80 96 78 99 100 90 60 99 100 100 100 100 100 100 100 99 99 100 99 96 73 51 42 38 33 29 40 32 23 19 18 17 15 13 12 11
15 19 25 21 28 42 45 51 59 59 57 59 78 69 84 97 100 97 100 100 100 100 100 100 99 100 98 95 99 100 58 45 38 34 30 29 28 26 22 18 16 14 13 12 11
14 12 24 26 23 27 36 52 60 81 65 63 85 100 95 99 100 99 97 99 100 100 100 98 96 100 100 100 99 88 76 51 44 38 35 33 28 24 20 17 15 13 12 11 10
14 14 17 24 28 26 30 44 39 34 63 62 63 80 95 89 75 79 84 96 97 100 100 99 100 97 97 99 98 96 86 76 60 54 48 42 34 27 22 17 14 13 13 14 15
16 14 16 17 30 36 32 32 36 31 29 30 26 47 58 54 55 54 55 69 84 92 92 99 94 94 100 95 98 98 100 99 98 89 85 66 51 31 26 22 18 18 20 19 20
16 15 15 14 23 25 27 28 31 25 23 25 24 25 30 46 57 55 52 49 54 65 71 81 91 88 99 100 100 100 95 98 94 88 69 56 37 33 27 26 26 24 23 22 19
22 16 14 18 19 23 28 24 21 20 21 23 26 36 47 56 53 57 62 59 52 57 67 73 84 89 87 88 94 92 65 54 43 45 45 39 34 31 29 28 24 22 18 15 12
17 23 18 16 19 18 20 23 23 23 32 34 44 51 58 66 62 64 73 81 89 91 83 74 69 83 91 81 77 77 72 57 47 40 51 42 33 33 29 25 21 18 17 19 22
16 17 24 22 25 31 31 30 44 51 46 57 64 69 74 83 73 66 70 84 79 61 44 72 57 58 68 76 57 62 62 49 36 48 42 36 30 28 26 27 26 33 37 31 26
26 18 17 27 35 50 50 41 48 62 63 66 65 62 62 73 84 74 58 45 44 55 70 64 60 48 49 49 50 56 59 51 44 41 32 32 31 28 35 51 50 35 33 30 31
86 22 20 21 32 51 54 78 74 70 63 53 67 80 74 82 85 62 41 33 32 38 50 72 84 77 62 59 52 51 53 54 38 36 32 28 34 44 63 54 40 35 39 34 31

GFSSW_500_rhum_036.txt.gz
RH
43 34 20 13 14 17 20 17 16 18 33 46 91 100 98 98 88 36 18 18 13 38 37 48 44 66 96 96 96 98 97 95 86 95 88 63 56 59 53 44 41 44 40 38 43
25 9 8 9 13 27 37 36 39 44 31 20 20 56 99 100 96 52 35 21 18 22 42 39 48 49 94 97 95 96 91 89 83 96 97 95 61 54 54 46 39 38 38 35 32
9 7 7 8 12 16 18 20 24 18 21 30 27 21 32 92 97 75 47 34 31 18 31 41 45 52 89 99 96 89 82 100 98 98 94 96 74 48 52 47 38 34 32 29 26
8 6 8 29 60 82 63 95 94 93 95 89 27 23 23 27 80 87 59 47 41 26 15 38 40 47 72 74 89 86 94 96 97 98 97 92 69 47 45 46 37 30 30 24 20
7 6 8 84 100 96 85 100 99 79 91 100 100 81 67 24 29 59 68 45 38 36 23 16 44 42 49 51 52 85 97 97 98 90 90 80 48 43 42 44 39 34 26 24 20
6 5 9 75 100 93 67 100 100 80 96 71 92 100 80 50 28 28 41 68 43 37 40 19 21 49 51 52 51 67 100 97 93 73 91 90 62 41 46 40 38 31 27 24 21
7 6 12 98 100 95 74 67 100 94 100 95 64 62 65 50 36 23 25 36 66 49 55 26 16 45 50 52 54 61 93 97 90 70 97 93 81 45 49 40 37 32 29 24 21
10 8 10 76 94 98 76 71 89 99 98 100 96 89 74 89 57 39 33 67 42 57 52 61 22 33 60 58 54 61 86 92 97 83 96 90 74 54 54 42 39 33 29 25 23
14 10 15 32 71 85 79 73 88 100 85 90 80 79 88 86 78 59 36 52 48 33 32 57 42 19 55 58 61 66 81 78 91 98 97 93 75 57 50 46 39 35 30 26 23
20 24 46 37 48 76 93 80 74 70 80 87 89 68 60 58 54 54 42 30 48 36 45 100 100 55 26 61 59 55 60 80 66 96 93 91 90 64 47 47 43 37 33 28 24
23 33 51 98 68 69 70 91 100 92 66 81 67 58 60 47 58 44 37 37 56 70 59 100 95 62 25 31 63 58 67 92 52 71 89 92 97 88 55 46 49 44 37 30 25
30 34 40 45 73 71 77 89 100 95 92 81 56 66 54 59 57 53 39 45 48 49 79 94 81 60 62 59 76 83 81 96 74 56 73 82 90 95 70 46 50 47 38 33 30
31 31 38 41 76 96 98 100 89 89 98 94 92 96 100 92 75 62 41 40 35 89 79 85 81 67 53 68 70 75 84 79 83 64 74 96 80 88 78 52 50 42 37 35 31
22 28 35 41 63 58 91 84 77 85 94 100 100 100 100 99 100 100 100 84 78 59 64 89 71 58 53 64 65 64 86 55 63 64 69 93 68 68 94 63 59 51 38 29 24
20 27 27 62 68 40 44 49 64 77 99 100 100 100 100 100 100 100 100 84 76 81 70 48 65 55 75 79 77 74 72 70 49 48 77 81 79 51 69 80 68 59 48 34 21
17 20 26 36 60 59 52 48 44 58 93 100 99 100 100 96 93 71 100 100 94 90 82 76 52 79 88 100 100 99 83 73 49 44 72 46 85 54 47 45 77 70 58 45 39
11 18 23 25 42 51 62 45 41 48 89 95 90 89 71 55 82 95 70 85 93 90 99 100 100 97 100 100 90 92 88 90 53 41 62 44 58 70 45 37 32 52 71 58 53
10 16 17 28 25 38 52 63 33 58 66 67 68 82 92 100 100 100 100 94 99 100 100 99 99 98 92 100 99 100 100 100 72 46 42 46 37 75 52 28 21 20 19 17 16
12 12 17 20 28 44 44 59 49 52 68 50 51 58 72 98 99 99 100 100 99 100 100 97 100 99 100 100 98 98 90 85 80 55 44 38 33 30 51 58 45 27 20 17 15
15 12 15 19 22 28 38 41 49 49 61 68 69 78 91 80 80 91 96 99 100 100 99 96 99 100 99 100 100 98 100 94 81 57 46 42 36 30 27 29 30 28 21 16 13
16 15 12 15 29 26 35 36 40 36 34 27 54 70 64 56 56 58 81 90 96 100 100 96 100 99 100 96 99 89 96 97 90 71 54 48 41 32 30 28 25 21 18 15 13
18 16 13 12 18 27 30 32 37 33 28 27 26 28 36 39 53 50 51 50 74 83 96 100 95 94 95 95 95 99 99 99 97 84 76 65 56 46 41 36 31 25 21 17 15
28 19 15 15 20 23 26 27 30 24 35 32 28 32 44 53 55 56 53 50 48 53 68 76 89 96 90 96 96 94 100 100 100 100 100 100 82 70 57 47 38 29 24 21 21
74 19 21 19 18 22 26 23 24 22 30 37 36 36 44 55 65 60 65 62 59 60 59 59 71 94 87 88 93 98 100 96 78 80 85 80 66 43 47 36 35 30 27 26 24
92 22 22 26 23 20 19 21 24 25 27 34 42 63 69 74 72 72 68 70 83 78 76 76 72 69 78 86 92 83 85 82 69 84 70 60 48 50 44 38 31 29 25 22 18
28 90 20 22 30 28 32 33 31 48 62 68 62 60 60 60 63 83 73 76 80 72 73 49 66 75 66 75 84 86 72 63 70 77 46 49 52 43 36 33 30 29 24 29 35
16 97 59 22 21 31 44 46 46 53 61 60 56 56 73 74 71 80 68 59 44 36 37 60 71 66 52 53 63 64 54 54 57 54 49 50 47 34 33 33 37 54 51 40 37

GFSSW_500_rhum_039.txt.gz
RH
23 8 7 5 5 5 7 10 14 22 24 24 59 94 100 100 98 100 72 42 18 28 36 48 48 70 87 97 97 97 96 95 97 95 97 95 86 69 63 54 52 50 46 45 46
10 6 5 5 6 24 47 48 18 31 35 33 25 29 68 97 98 90 92 55 34 20 40 39 49 55 84 96 97 96 94 84 95 100 97 96 98 77 70 62 48 50 50 47 46
7 5 5 5 33 99 100 99 89 62 36 32 42 41 32 44 93 100 100 77 52 34 18 47 46 59 53 85 96 96 89 100 97 98 96 96 94 98 69 66 55 47 48 46 44
6 6 6 5 56 100 100 92 100 95 96 68 28 39 34 29 45 97 98 93 72 58 38 27 51 49 54 58 90 91 97 97 98 96 98 95 97 94 69 59 60 51 42 40 39
7 8 9 7 56 100 96 67 96 100 91 93 100 100 88 30 41 46 99 98 82 63 44 24 35 45 52 57 72 92 97 97 97 96 98 97 89 100 84 61 56 55 45 38 36
14 13 11 12 58 96 88 82 78 90 83 76 100 100 100 78 33 31 90 99 90 70 48 39 21 41 49 55 67 71 96 96 96 89 96 97 96 99 90 72 51 53 49 37 34
20 17 21 31 27 78 82 86 76 84 100 81 85 100 100 100 77 25 32 100 100 86 95 45 28 26 51 50 55 68 93 96 90 88 96 98 98 95 96 74 50 45 48 35 30
23 26 60 70 57 41 61 66 72 79 100 86 86 100 99 100 92 66 30 94 100 100 95 94 41 21 30 49 57 66 93 90 88 86 95 98 84 88 76 65 53 43 43 38 30
25 24 65 99 94 64 48 49 60 86 82 72 76 82 84 76 82 88 53 80 100 100 100 98 64 25 16 46 58 75 88 80 82 96 97 96 81 92 74 58 51 45 40 39 33
26 24 76 100 100 96 67 76 73 74 69 58 72 82 78 84 67 76 56 71 100 100 100 92 78 55 17 23 35 39 56 60 67 80 97 94 80 94 88 65 51 43 41 39 35
26 34 54 41 55 81 100 73 63 50 50 67 64 69 79 76 69 59 100 84 97 99 97 83 74 42 21 11 25 49 63 55 58 66 91 92 94 97 87 80 58 46 41 39 38
23 31 28 34 46 56 69 68 55 67 58 47 43 44 54 60 76 59 78 97 86 73 77 83 58 45 41 24 26 41 59 58 62 74 93 89 89 96 83 74 62 51 42 38 34
20 30 18 31 49 50 64 70 76 89 100 88 79 61 44 36 46 51 38 77 68 69 71 86 57 43 71 70 51 24 45 57 56 60 74 69 71 88 89 81 68 64 49 40 37
16 25 18 31 42 45 53 75 90 100 100 100 100 97 73 47 40 41 34 47 73 98 100 100 100 73 83 73 56 28 46 65 60 62 74 76 59 74 92 93 83 67 58 48 39
13 18 19 23 36 38 39 71 66 72 99 100 100 100 100 100 73 46 38 36 74 98 68 52 60 78 53 61 50 45 59 63 81 84 80 86 65 61 80 84 78 70 59 48 42
9 13 20 18 28 30 32 39 57 63 98 100 99 96 100 100 100 87 50 47 62 98 89 49 69 85 57 62 49 46 58 62 65 96 81 78 76 57 73 74 76 77 58 57 48
12 13 13 22 25 33 32 42 53 44 58 89 98 100 100 95 100 100 72 46 41 84 100 85 90 78 78 73 68 45 70 75 73 66 66 62 59 50 60 68 69 76 69 63 66
21 11 14 15 26 29 30 36 50 33 43 73 83 89 99 100 92 99 73 75 74 55 62 64 72 88 58 46 53 76 94 84 88 62 61 68 54 51 53 66 72 46 53 72 78
33 12 16 15 20 32 38 45 57 56 48 59 79 97 98 100 100 100 100 79 94 82 65 56 49 45 44 42 62 76 73 86 94 89 82 63 56 54 50 52 68 40 24 31 50
19 22 12 17 19 26 35 37 52 47 52 70 65 77 84 90 100 95 93 94 97 94 91 90 81 80 77 80 81 80 100 100 99 94 86 69 56 44 48 41 60 70 37 25 21
6 41 16 13 23 21 26 33 36 36 28 63 82 73 53 53 59 93 91 91 88 100 97 92 98 98 99 95 93 99 93 100 100 100 93 82 64 52 45 38 31 37 72 53 42
5 45 22 14 15 31 29 30 29 32 28 26 30 36 36 40 48 49 57 87 100 100 100 100 98 100 91 100 99 93 100 94 98 98 99 83 68 58 48 42 38 33 29 26 25
4 32 33 17 14 20 24 28 29 29 23 28 27 28 38 45 48 47 47 44 58 87 99 100 94 97 99 100 97 88 99 94 92 99 95 91 68 68 60 52 47 40 32 27 23
4 16 61 21 16 21 26 28 28 27 22 31 39 36 41 49 58 59 53 51 48 45 56 75 86 94 100 94 96 95 97 100 99 99 97 90 84 90 98 84 75 59 50 42 36
6 10 66 23 22 19 22 26 28 28 26 27 37 47 64 67 72 79 70 63 62 61 61 59 71 77 90 90 88 86 90 82 84 100 85 94 90 86 71 56 54 48 40 40 32
8 11 53 77 21 26 25 27 25 24 34 41 49 49 50 54 59 61 79 76 84 85 72 72 78 70 74 91 95 93 77 71 76 84 79 91 76 65 68 52 52 42 34 32 29
6 12 32 100 56 18 30 38 43 40 36 44 52 54 53 61 66 73 72 73 73 70 66 72 69 58 68 74 69 81 100 90 78 68 72 74 73 51 86 46 41 36 32 30 36

GFSSW_500_rhum_042.txt.gz
RH
17 8 6 6 6 5 38 51 88 74 12 13 30 74 100 100 100 94 80 80 40 19 36 44 52 81 81 92 97 95 91 80 94 96 86 78 69 59 50 46 49 45 42 38 34
15 6 8 8 10 25 100 100 100 100 100 24 16 35 61 99 99 98 94 99 60 28 25 38 51 75 78 77 94 96 84 72 83 98 97 91 79 67 63 50 51 49 47 47 42
11 10 11 15 37 49 100 100 94 96 100 95 24 37 36 67 96 100 100 100 96 49 24 38 45 58 82 76 91 91 86 88 98 98 96 97 96 73 71 54 55 57 51 54 56
10 17 21 54 58 40 98 100 78 99 91 100 68 26 44 34 68 99 96 100 97 78 45 22 39 52 58 66 84 94 97 95 96 94 97 97 97 90 82 64 51 56 54 52 59
16 35 32 65 57 29 78 90 79 92 98 87 93 98 60 40 38 80 98 100 99 96 72 22 34 40 58 54 66 93 97 98 97 97 97 96 94 96 81 80 65 63 59 49 48
21 29 31 45 61 39 28 80 81 78 96 88 94 100 100 42 33 36 80 99 100 100 93 45 24 46 49 63 64 85 97 99 97 96 96 97 96 96 94 86 87 68 66 57 47
32 20 27 35 44 44 53 49 57 72 89 88 93 97 99 99 33 28 44 96 100 100 100 77 26 32 50 50 63 54 96 97 95 97 97 97 98 95 98 77 78 72 66 63 56
24 25 36 39 45 50 40 64 66 66 86 87 70 100 88 100 83 21 30 88 100 98 100 97 52 24 43 50 56 61 85 88 97 97 97 96 98 100 94 94 87 77 67 62 60
20 32 42 49 58 61 50 30 50 71 73 66 75 100 96 100 99 45 27 58 99 100 100 96 54 30 24 48 53 56 71 66 88 96 97 96 98 98 98 96 86 85 74 56 57
21 33 48 54 64 82 78 47 34 46 54 55 65 73 85 92 97 96 28 39 99 100 100 100 69 43 23 24 36 48 58 61 78 96 92 96 97 98 96 86 70 74 72 50 48
20 32 41 46 58 70 98 94 70 38 42 46 63 65 76 86 100 90 41 32 97 100 93 100 90 42 25 16 21 41 61 74 84 92 91 95 98 96 95 84 76 68 69 56 44
17 28 36 41 49 66 65 87 100 93 50 41 47 72 66 91 100 87 63 39 98 91 100 99 81 81 42 20 14 34 46 69 86 97 96 98 93 98 92 80 84 72 59 54 48
12 22 27 38 40 44 54 78 94 100 97 88 35 57 60 70 99 100 100 89 88 100 99 100 90 78 49 24 14 20 43 49 54 76 78 90 77 94 81 72 75 78 70 57 46
12 17 23 31 35 30 53 66 62 83 100 100 96 39 48 51 100 100 100 96 82 100 97 94 95 77 57 36 18 14 24 36 42 50 63 70 66 80 100 76 75 90 84 68 55
16 13 18 24 32 23 39 59 76 56 99 100 100 97 30 40 71 95 100 100 99 100 89 77 75 67 53 51 41 30 25 20 34 45 54 56 60 70 78 79 65 78 86 73 60
12 11 18 20 29 21 27 43 68 56 96 92 100 100 82 33 39 93 100 94 88 89 76 71 74 72 81 56 53 77 54 46 29 40 45 53 58 56 71 60 80 80 83 84 65
7 16 13 19 25 20 28 38 66 46 64 84 100 100 100 92 30 42 86 100 100 100 75 100 100 96 80 56 52 51 43 36 36 38 20 56 72 40 68 55 61 75 78 86 77
4 21 10 15 27 25 28 34 45 56 74 83 100 100 100 100 90 30 70 96 100 100 98 86 75 81 65 48 48 42 39 32 32 26 36 51 60 45 64 62 61 67 78 81 79
3 9 16 13 17 32 35 41 42 53 71 90 99 100 100 100 100 65 31 70 97 86 88 62 54 59 66 62 61 53 53 59 52 53 51 47 39 46 55 58 58 65 72 61 71
2 4 28 13 16 21 27 36 41 54 60 84 68 88 100 99 100 95 83 76 50 58 52 78 71 83 90 93 72 54 47 47 56 67 71 61 53 38 49 55 57 57 66 60 44
2 3 24 21 14 19 26 31 37 32 58 77 69 53 64 80 99 99 93 77 76 77 65 65 64 56 50 46 46 42 35 36 61 75 75 73 53 55 55 56 50 55 53 87 42
2 3 17 28 20 15 31 37 33 32 29 39 59 52 40 47 55 72 87 85 87 88 87 95 88 84 70 58 57 52 47 72 89 88 99 83 65 76 76 68 56 46 45 86 73
2 3 9 30 22 15 22 35 32 31 26 26 25 27 33 40 44 47 48 74 80 82 88 96 90 93 93 97 84 69 83 100 98 99 85 81 69 88 76 77 86 63 50 45 54
2 3 6 37 39 20 21 25 31 31 29 23 27 30 36 46 49 45 44 45 49 74 83 80 86 91 98 94 90 96 99 98 90 91 97 72 86 93 89 81 81 93 84 60 44
2 4 6 18 57 25 19 21 31 34 30 24 25 35 44 61 64 57 52 44 48 46 53 77 87 84 88 87 87 89 87 80 71 93 79 99 79 99 99 95 96 100 96 87 62
3 4 8 11 57 40 30 23 25 28 29 30 34 49 61 59 56 57 56 60 55 56 62 60 71 88 98 100 99 94 86 80 79 78 69 85 78 98 98 100 96 94 68 75 47
3 9 15 21 49 100 33 38 38 36 37 37 48 54 54 54 66 74 80 71 68 74 78 75 71 69 72 76 79 81 97 86 86 81 82 70 87 90 98 93 89 76 56 47 38

GFSSW_500_rhum_045.txt.gz
RH
10 11 12 11 10 7 17 100 100 100 100 100 48 23 31 100 100 100 96 74 42 28 28 25 31 34 97 89 91 97 96 89 93 97 93 74 64 54 40 29 21 21 18 18 18
11 15 23 25 15 10 36 100 100 95 100 100 100 44 25 51 100 92 100 99 48 46 29 26 32 40 63 97 92 96 97 75 87 98 98 88 74 62 51 39 33 34 26 24 26
16 20 29 37 46 21 32 100 100 97 95 92 91 99 35 28 86 98 100 99 79 76 51 31 35 45 53 82 90 98 91 96 100 96 97 96 94 73 62 50 41 49 37 35 34
18 26 34 44 52 47 16 35 90 81 79 98 92 89 100 29 49 92 100 97 93 93 95 27 33 36 40 70 78 90 90 99 97 93 93 97 96 82 66 61 55 47 50 42 44
20 24 33 43 48 65 34 20 81 83 87 79 85 96 100 60 33 68 100 100 100 100 98 46 25 34 34 48 75 82 99 99 97 96 88 96 97 97 75 68 62 56 60 60 52
21 21 31 32 41 67 55 16 25 75 86 88 86 99 100 87 39 48 99 100 100 100 100 65 24 35 42 44 62 80 88 98 92 97 97 96 97 97 96 84 69 63 60 68 59
19 17 37 28 46 65 83 48 18 65 74 75 60 90 100 98 42 40 92 100 100 99 99 90 44 27 39 44 58 82 96 97 98 97 97 100 96 95 97 95 79 73 79 67 61
20 17 45 37 46 64 86 78 39 34 66 76 65 82 92 100 57 46 56 96 100 94 98 100 84 27 39 46 59 60 90 97 94 98 98 96 91 95 96 92 83 81 87 94 71
19 18 37 35 37 57 86 100 71 32 53 47 54 98 87 100 84 46 43 86 100 92 100 100 98 48 35 44 50 66 61 76 97 97 97 93 98 97 98 98 98 85 94 95 95
17 20 26 38 36 54 70 94 92 76 38 47 57 67 91 100 100 48 33 59 100 99 100 99 96 49 40 35 23 37 52 60 84 96 96 99 98 96 95 97 91 100 100 91 89
13 17 25 32 39 52 61 61 80 96 62 37 57 69 58 85 93 62 31 42 100 100 100 100 82 56 25 18 32 41 45 57 55 93 96 98 94 98 98 96 96 94 86 93 97
9 14 21 27 28 41 54 61 61 72 100 34 54 60 65 85 83 96 41 46 100 100 100 98 74 76 32 21 30 36 44 51 51 65 96 98 91 98 95 93 96 81 72 82 100
4 13 15 24 26 29 42 60 65 70 96 80 39 54 69 76 85 100 52 37 98 100 100 97 84 75 44 23 20 29 42 54 68 74 88 92 91 88 92 97 97 88 86 84 76
2 13 14 16 26 26 37 47 68 63 96 100 47 49 71 95 97 100 71 63 100 100 100 100 97 78 45 33 20 21 35 51 56 71 70 92 77 89 96 94 94 97 88 74 66
2 9 12 16 23 19 35 46 57 79 98 100 69 30 71 100 96 95 100 90 100 100 100 98 97 94 62 43 26 18 20 34 48 47 49 50 69 80 94 88 90 72 81 76 69
2 5 13 16 22 18 24 40 53 74 97 100 100 38 37 96 100 100 58 100 100 100 100 97 99 94 83 63 40 20 17 19 28 32 31 40 39 38 78 77 86 89 88 81 72
2 3 14 12 24 23 22 37 61 78 92 95 100 86 43 44 100 100 67 89 99 100 100 99 94 77 70 61 41 24 16 17 20 18 16 20 29 17 50 70 74 74 84 82 73
3 2 7 12 17 30 28 39 49 64 89 87 100 100 43 40 85 87 70 97 100 100 96 96 80 70 59 49 40 37 35 34 35 37 37 31 24 14 30 52 64 71 65 70 74
3 2 3 14 13 20 33 46 48 55 69 94 100 100 97 44 61 50 72 88 99 91 84 95 89 75 87 63 68 53 49 56 47 31 28 23 17 15 21 52 63 70 61 58 67
4 2 3 18 15 18 24 36 42 60 58 62 82 99 97 81 31 71 71 91 99 98 74 87 97 79 55 63 61 55 56 49 45 42 36 26 24 18 21 27 52 67 67 66 68
4 2 4 9 26 16 22 25 38 35 68 64 54 65 94 100 79 38 74 75 88 89 80 87 84 74 76 60 58 58 52 58 54 41 30 26 28 36 44 47 43 59 61 57 62
4 3 4 4 26 23 18 29 34 34 30 62 65 46 49 85 100 100 75 37 38 49 57 55 49 56 60 58 77 81 73 69 48 31 36 26 22 42 56 64 68 64 75 76 78
4 4 4 4 23 31 20 29 36 35 29 28 35 30 35 48 57 89 98 90 80 83 83 81 69 66 70 59 50 48 57 57 48 42 34 43 29 53 79 84 91 87 90 86 89
4 4 5 6 16 44 27 25 28 32 34 27 28 27 34 43 44 49 55 95 85 84 91 95 93 100 100 96 92 85 96 96 87 47 55 54 74 92 92 95 95 90 92 95 92
4 4 7 7 20 60 43 33 33 32 33 32 29 34 34 42 52 48 45 47 64 89 85 86 86 92 96 83 83 85 94 73 55 74 74 84 63 100 95 96 96 88 87 85 89
4 4 6 10 10 41 53 39 32 33 37 34 29 37 46 61 51 53 51 48 50 54 61 87 100 100 100 87 79 71 72 78 75 83 76 76 80 100 99 95 93 96 92 94 97
4 4 6 20 13 18 77 46 49 34 32 33 40 55 61 57 58 62 53 52 55 54 62 64 65 79 89 91 86 76 99 90 85 70 88 73 98 74 75 96 99 98 95 96 83

GFSSW_500_rhum_048.txt.gz
RH
4 10 20 18 21 30 28 24 59 100 100 100 100 100 32 30 62 100 98 100 57 27 41 23 23 18 53 78 96 100 53 69 81 95 95 81 56 44 36 29 24 20 18 14 11
4 13 17 29 24 40 40 44 18 86 98 99 100 100 100 31 36 99 100 100 96 45 39 43 24 22 30 72 100 97 96 63 72 97 97 93 68 55 45 39 30 21 21 25 14
4 14 17 19 30 41 40 47 26 65 92 90 93 94 98 63 32 54 100 100 97 82 68 50 32 26 28 55 92 94 82 84 100 98 97 93 88 64 55 45 39 28 26 28 34
4 14 19 17 30 33 37 48 52 20 54 68 85 84 82 100 40 34 92 100 100 97 91 71 42 24 16 21 69 94 86 100 100 97 98 97 89 75 63 56 48 39 35 33 47
5 10 26 22 26 36 45 44 66 20 63 96 62 80 86 89 66 30 61 100 100 100 94 86 61 31 22 16 49 85 100 99 99 96 96 94 95 86 71 60 57 47 43 42 55
4 10 30 29 25 34 44 41 64 33 62 76 61 100 100 100 99 36 36 100 100 99 100 95 71 33 28 16 27 72 88 95 97 98 98 97 96 97 100 79 63 54 58 49 52
4 9 17 34 36 39 49 39 60 64 44 56 51 66 98 100 100 39 26 89 100 99 98 99 86 35 26 26 33 43 82 96 99 96 97 98 94 86 98 86 84 74 66 60 52
4 8 15 28 33 41 53 49 68 85 35 42 53 77 85 100 100 91 35 68 100 100 100 100 99 38 30 41 39 44 60 89 90 95 95 97 86 90 100 94 91 76 82 77 69
3 6 14 18 27 34 47 60 81 94 59 40 45 84 86 98 100 100 36 83 100 100 98 98 98 49 25 33 44 36 58 73 97 100 97 94 94 100 93 95 95 88 72 87 92
5 4 11 17 23 27 38 59 80 94 90 35 44 61 89 99 99 86 48 84 100 98 100 100 98 73 28 21 21 21 34 56 88 96 85 98 89 94 98 96 96 85 87 82 77
7 2 9 14 21 27 35 48 74 92 100 55 44 50 96 100 100 72 57 90 100 98 100 100 100 71 58 21 24 28 46 42 70 100 93 97 97 94 95 96 96 92 97 83 91
7 2 7 12 16 22 32 44 73 86 100 82 42 45 61 88 94 74 58 83 100 97 95 100 97 100 82 39 22 31 40 48 61 68 97 97 95 100 89 98 97 97 86 91 95
7 3 6 12 15 20 24 45 68 86 97 98 48 45 67 72 78 75 67 99 100 100 100 96 95 100 95 52 24 31 42 52 57 61 72 89 96 86 99 99 97 96 96 97 87
7 4 4 12 18 17 18 48 65 93 94 100 49 52 56 86 75 64 68 100 100 100 100 100 100 88 98 50 34 37 49 53 56 60 60 71 64 94 98 99 93 85 93 88 85
6 5 3 12 14 21 19 42 62 88 98 100 44 54 76 79 90 64 46 99 100 100 100 97 96 83 94 51 24 26 45 50 51 53 50 50 51 62 84 93 85 98 94 97 97
5 5 2 10 14 24 21 41 56 70 98 99 43 67 91 92 87 60 53 100 100 100 100 100 93 99 93 57 29 24 32 42 50 49 51 55 47 45 74 74 87 97 96 97 92
4 5 2 5 13 21 27 38 59 63 78 93 56 54 66 78 100 84 62 98 96 99 100 100 99 100 87 57 37 23 19 25 36 34 27 32 31 26 30 39 62 88 94 95 93
5 5 3 3 15 17 27 39 59 67 68 88 88 37 91 98 67 78 66 91 100 100 100 99 99 98 81 63 42 32 19 14 14 18 16 18 13 14 21 43 63 73 88 89 95
4 5 4 4 16 17 22 39 43 70 72 76 90 65 47 74 82 43 76 93 100 100 82 82 92 82 74 71 54 40 24 15 13 12 14 22 22 26 26 22 39 57 66 91 96
5 5 4 3 10 28 20 33 45 64 65 78 100 96 30 42 56 66 47 100 100 99 93 94 94 74 58 54 46 40 39 29 26 33 32 24 18 17 23 19 19 41 57 64 80
5 5 5 4 6 29 23 26 39 53 80 57 76 100 66 40 46 53 56 98 97 86 77 73 88 67 62 59 58 59 51 45 58 51 30 26 25 24 20 20 20 18 27 54 68
4 5 6 5 5 24 31 26 35 36 49 76 53 67 100 54 58 44 74 67 91 98 89 83 100 97 94 93 78 60 58 64 54 44 43 41 20 22 24 32 40 36 24 28 42
5 5 6 5 6 28 37 26 38 38 35 45 60 41 58 97 73 59 62 66 80 94 99 96 95 95 78 71 58 62 67 70 68 70 45 46 20 24 46 64 63 54 53 49 60
7 5 5 5 6 18 46 31 37 38 35 34 32 32 39 55 68 98 74 45 37 38 48 69 69 61 59 60 66 60 72 68 66 57 50 32 33 42 100 77 60 74 72 69 72
9 5 4 4 7 11 47 49 35 32 33 36 35 36 42 48 54 58 65 96 95 89 79 63 58 65 66 66 75 76 58 51 35 49 52 66 56 100 99 91 78 74 91 91 81
10 6 4 4 10 14 19 61 43 43 40 35 37 41 42 42 48 56 56 57 59 88 100 100 100 98 99 100 100 89 85 91 96 100 78 90 60 100 89 88 84 82 92 96 88
13 6 4 3 7 21 24 44 50 42 36 40 34 33 45 53 58 55 58 58 65 63 62 69 81 95 100 100 98 92 100 100 95 86 96 69 95 79 90 78 85 79 82 98 98

GFSSW_500_rhum_051.txt.gz
RH
7 4 7 12 19 20 21 24 33 36 16 75 98 100 100 96 21 47 100 97 79 100 63 32 28 18 53 62 68 100 86 76 81 95 94 96 78 52 38 29 26 23 18 16 15
7 5 5 14 18 20 20 27 31 44 8 68 100 99 90 100 50 26 98 100 100 100 97 40 31 19 32 67 66 88 86 43 56 95 98 98 95 67 49 36 30 26 22 17 15
7 5 4 17 18 23 25 37 34 45 13 25 78 89 100 100 95 31 71 100 100 100 91 58 51 28 19 59 76 97 91 79 52 71 98 96 96 93 66 42 31 28 23 23 18
7 6 4 15 19 28 28 43 42 50 36 22 50 72 74 96 80 47 36 100 100 100 98 54 81 30 20 31 60 97 100 95 95 66 89 98 97 93 85 54 37 31 27 24 27
8 6 4 12 20 25 27 44 51 67 56 29 52 59 65 75 80 68 36 98 100 100 98 79 76 49 20 22 35 78 96 98 99 92 79 95 97 96 91 67 49 37 33 28 26
8 7 4 11 19 24 27 42 60 76 73 29 42 54 82 87 69 80 41 70 100 100 100 99 62 63 26 23 18 37 94 100 98 100 99 97 96 97 98 83 61 48 42 35 31
6 7 4 9 17 23 27 44 68 82 86 36 42 54 74 92 90 87 50 45 99 100 100 100 91 60 43 23 21 23 73 88 94 97 96 98 95 79 100 85 82 60 50 45 40
6 7 4 8 15 21 29 44 70 89 94 50 40 73 87 97 100 98 84 100 100 100 100 100 100 75 55 30 25 22 52 80 92 95 99 96 84 92 98 80 86 87 68 52 51
6 7 3 5 12 19 24 40 69 96 91 69 38 67 82 97 85 99 100 49 84 100 100 100 100 95 70 42 32 33 48 61 95 95 99 98 100 100 96 85 82 92 91 72 56
6 6 4 4 12 16 22 37 68 98 92 78 39 58 69 89 100 100 96 68 75 100 100 100 99 82 79 47 36 26 15 45 77 78 95 90 100 97 95 96 100 88 86 95 92
6 6 4 3 12 16 20 34 65 93 93 94 39 57 80 74 100 98 82 100 100 98 100 99 86 66 77 49 36 30 23 52 64 81 96 96 94 97 91 85 100 74 67 77 94
6 5 4 4 10 18 20 37 60 78 91 100 42 55 89 84 92 84 100 100 98 86 96 100 74 96 89 45 33 29 32 32 51 69 78 91 95 95 82 85 95 92 81 71 82
5 4 4 4 8 15 21 38 54 77 91 100 46 45 70 85 74 99 100 100 99 98 93 99 87 100 99 58 28 25 35 40 48 63 89 96 95 79 80 92 91 95 83 69 72
5 4 5 3 11 14 20 36 54 66 92 100 51 47 61 66 87 65 96 100 100 97 100 100 100 100 100 90 60 26 27 40 45 50 53 77 66 70 86 95 74 92 86 85 100
5 4 7 4 7 15 27 40 61 63 99 98 58 82 51 54 70 62 90 100 89 84 98 94 98 98 93 98 92 61 25 35 40 42 45 50 49 62 96 92 74 92 100 99 98
5 5 7 4 7 13 28 43 58 66 96 85 60 92 90 50 58 92 100 99 99 100 100 98 99 100 100 93 94 57 29 31 39 46 43 46 43 40 73 66 86 95 88 96 97
6 5 6 5 4 16 22 43 62 64 81 80 66 79 69 73 47 96 100 100 100 100 100 100 98 94 99 96 94 46 31 28 31 36 33 42 34 30 46 46 49 67 95 97 96
8 6 6 5 4 20 22 38 60 66 89 100 57 87 95 60 36 57 100 100 100 100 97 96 98 96 93 94 71 44 21 20 20 20 25 34 40 40 41 38 52 76 80 80 92
9 6 6 5 4 21 24 32 57 74 68 100 47 90 63 59 49 52 94 100 100 100 99 88 91 78 80 86 67 35 23 20 18 15 17 21 25 32 37 42 52 63 81 76 70
11 5 5 5 4 10 32 27 46 88 64 88 83 68 77 70 58 57 72 93 100 93 90 86 81 78 83 81 62 46 38 29 22 13 11 13 15 21 24 25 27 35 54 61 69
12 5 4 5 4 7 31 26 37 78 94 61 100 34 46 55 62 64 46 89 100 84 74 83 83 79 88 81 72 59 47 40 33 19 12 13 20 36 32 29 28 27 26 31 50
12 5 4 4 4 6 27 32 32 40 56 80 74 100 43 49 60 64 68 100 99 91 93 88 93 84 65 61 60 55 47 41 38 30 27 27 30 30 28 29 34 28 24 22 20
14 5 4 4 4 6 20 35 36 42 38 56 59 91 100 58 48 60 61 96 97 92 83 73 73 80 66 64 58 56 70 63 56 49 41 38 26 25 41 50 46 29 25 21 17
16 5 4 3 4 9 14 39 36 45 41 40 46 42 87 94 60 74 73 73 80 70 72 64 71 77 87 76 79 68 72 70 61 45 47 29 36 44 59 50 34 24 21 34 32
20 6 4 3 4 11 14 41 34 36 42 44 44 40 52 65 96 82 58 51 54 60 52 69 83 84 87 80 72 65 60 53 41 46 47 42 42 44 67 40 29 28 42 51 44
21 8 4 3 3 13 22 22 45 33 29 37 44 42 44 56 60 62 81 90 80 60 54 54 52 52 54 56 56 63 89 87 78 73 51 56 39 98 83 75 65 70 75 70 65
17 11 6 3 3 8 24 23 37 40 33 33 40 40 36 42 55 66 67 64 62 77 94 98 98 99 99 91 90 99 98 88 90 96 91 70 95 81 82 74 75 61 68 82 82

GFSSW_500_rhum_054.txt.gz
RH
5 5 6 5 3 10 23 26 35 43 36 38 12 86 100 100 100 58 58 100 84 100 99 94 55 39 49 33 27 57 38 68 99 98 91 97 95 80 41 29 26 38 51 40 61
5 5 7 4 4 10 24 24 32 50 43 42 13 72 99 100 99 72 42 100 96 96 99 87 65 48 99 57 31 60 51 58 96 92 97 97 96 93 60 39 30 27 28 35 36
6 5 6 5 3 10 23 25 35 55 52 51 26 27 87 98 99 95 38 93 100 100 98 96 75 57 46 71 43 68 89 63 50 100 99 95 97 94 86 56 41 31 26 23 24
6 5 6 5 3 11 22 26 39 55 65 61 34 36 51 81 86 91 68 60 100 100 100 100 99 89 35 97 55 54 87 64 58 84 99 96 96 97 95 74 54 44 34 26 24
6 5 6 4 3 11 21 25 43 62 80 70 42 30 59 66 82 92 100 47 100 100 100 100 96 93 36 74 94 52 65 91 84 83 92 100 97 96 94 93 74 52 45 33 27
6 5 5 4 3 11 18 21 46 68 90 79 44 37 49 61 59 81 100 62 100 100 100 99 98 95 54 23 52 60 56 92 90 96 86 83 93 97 98 92 93 74 50 41 31
5 5 5 4 4 11 16 21 48 73 93 82 42 42 67 62 66 59 88 55 99 100 100 100 100 93 43 26 37 70 78 100 98 100 97 92 66 77 98 88 88 84 81 47 38
6 5 6 6 4 11 17 21 48 74 93 80 39 45 73 92 80 60 79 72 99 100 100 100 100 83 68 34 27 76 66 85 96 98 95 98 66 77 98 93 96 86 81 86 47
6 5 5 6 4 11 18 22 54 76 97 80 38 40 78 86 97 78 83 81 90 97 100 100 94 95 97 60 35 53 63 83 96 96 98 96 100 79 89 93 84 96 89 74 90
6 5 5 6 4 11 18 28 62 83 99 78 38 55 64 86 100 67 100 100 80 100 98 100 99 100 97 75 32 28 38 56 42 70 95 99 98 94 93 91 94 90 89 86 81
5 4 5 6 5 11 20 32 67 90 100 71 42 66 65 78 99 99 100 100 87 97 98 100 97 75 82 69 42 30 29 27 24 45 88 98 97 89 86 89 89 88 78 78 85
6 4 5 6 5 12 20 31 63 88 100 55 46 64 65 71 92 97 100 100 100 91 96 100 86 100 100 80 57 36 31 31 26 60 88 89 95 99 78 87 96 94 83 75 83
6 4 5 7 6 10 23 36 65 86 100 55 54 58 76 84 99 84 98 90 78 98 99 98 96 93 97 96 76 54 40 34 27 40 98 96 85 83 91 100 97 96 100 89 81
5 4 5 7 6 10 18 45 68 83 95 59 68 49 63 73 100 100 100 100 83 96 100 100 100 100 94 84 96 58 41 37 30 25 46 62 39 51 86 88 81 88 78 94 86
5 4 4 6 5 8 22 45 67 87 89 65 79 84 54 65 100 100 96 100 100 88 92 100 97 96 92 91 90 77 37 32 35 36 28 34 38 50 60 81 80 79 71 76 93
5 4 4 5 4 10 21 41 67 92 89 74 74 82 46 46 92 100 100 99 99 100 100 100 100 100 100 96 99 92 33 26 25 28 20 21 26 28 58 65 83 95 92 66 80
6 4 4 5 4 8 21 30 56 85 96 76 61 64 45 42 69 99 100 98 78 92 96 99 100 100 100 95 98 96 62 39 23 20 17 19 22 21 50 51 54 92 89 88 76
6 4 4 4 4 6 21 28 56 79 100 70 64 81 42 34 69 98 100 100 81 94 97 98 100 96 84 69 85 84 82 48 24 18 17 22 25 41 52 57 48 58 84 70 88
7 4 4 4 4 6 18 27 48 76 100 68 53 65 35 97 100 100 100 100 98 98 100 100 78 73 72 65 66 60 66 42 24 20 21 21 24 40 60 63 63 68 83 70 52
8 4 3 4 3 6 14 28 39 86 82 96 60 69 29 84 100 98 100 100 100 100 81 85 75 76 73 80 72 73 65 40 21 19 19 15 20 28 35 42 42 53 63 66 54
11 5 3 3 4 6 11 26 31 62 88 100 45 47 57 36 50 89 95 100 100 100 79 76 78 70 66 57 78 70 53 34 24 24 17 14 12 14 22 28 31 30 32 40 60
13 6 4 3 4 5 9 18 26 41 57 83 89 44 45 59 57 71 85 99 100 92 92 81 81 83 74 76 68 62 54 43 38 34 32 30 16 13 17 40 43 39 34 32 32
14 7 4 3 3 5 8 14 27 36 41 78 93 100 52 51 60 54 67 94 95 86 73 80 76 74 71 65 62 63 64 58 52 44 35 31 22 25 41 62 44 36 27 25 24
14 8 4 3 3 4 7 11 28 35 38 39 55 88 100 56 48 53 65 74 75 81 67 64 73 74 68 61 67 66 64 59 48 38 47 38 62 70 72 68 51 35 36 34 28
19 10 4 3 3 4 7 11 29 32 37 37 35 42 80 100 70 61 97 93 94 88 81 74 70 66 64 66 64 74 77 76 61 63 43 58 47 62 77 66 59 37 35 30 26
19 10 4 3 2 3 7 10 19 27 31 37 40 33 45 66 89 83 70 76 73 81 80 80 76 77 78 74 84 88 84 67 59 52 43 44 35 99 44 46 42 39 28 24 21
20 12 5 4 3 3 5 9 11 31 26 30 38 40 35 42 56 67 79 84 86 77 69 64 56 57 56 62 70 74 81 70 73 83 65 53 78 81 74 68 54 70 64 66 70

GFSSW_500_rhum_057.txt.gz
RH
7 7 4 5 6 5 4 8 20 26 36 48 41 42 18 61 88 100 100 59 63 100 100 96 64 55 75 34 43 14 41 63 55 99 92 58 77 95 48 37 44 69 47 66 98
8 6 4 5 6 5 4 8 20 26 36 49 51 47 16 65 100 100 100 66 81 100 98 90 78 58 91 45 75 18 29 76 73 58 63 80 94 90 85 46 39 57 61 74 72
8 6 4 6 6 5 4 8 18 21 39 52 58 48 19 59 90 96 100 89 95 100 100 98 95 68 91 73 69 38 24 40 93 99 56 91 96 96 95 70 40 33 48 58 72
9 6 4 5 7 5 4 10 17 21 45 62 70 45 24 25 91 100 100 95 80 98 99 98 100 93 84 94 74 68 46 70 69 57 55 82 90 97 96 87 50 41 34 41 42
9 5 4 5 7 5 5 11 17 24 54 76 82 39 27 30 66 97 100 87 77 100 100 88 100 99 82 88 92 65 53 69 63 45 42 97 85 97 90 84 92 57 44 32 30
9 4 4 6 8 5 5 10 24 33 64 94 80 34 39 42 37 76 99 99 59 99 100 93 97 99 85 85 100 85 64 77 89 98 45 73 97 85 96 96 85 95 57 46 28
10 4 4 7 8 5 6 13 26 51 75 97 64 30 38 65 51 53 88 100 67 100 100 90 94 100 92 87 98 98 83 79 58 90 60 41 78 76 99 90 93 81 94 58 47
9 4 4 10 7 5 7 14 35 62 89 98 49 31 46 68 59 63 76 100 56 100 99 100 91 98 92 96 76 87 100 96 83 95 72 39 59 96 99 98 96 96 76 93 59
8 3 4 11 7 5 8 16 46 73 97 90 42 38 55 88 77 58 62 100 50 100 100 100 99 100 95 94 72 92 99 98 83 80 75 63 54 79 93 85 93 96 98 88 96
7 4 6 8 6 5 8 20 52 82 99 61 39 50 56 88 100 67 69 96 100 100 100 100 100 94 99 100 88 81 97 98 86 80 69 74 84 86 51 68 88 93 97 97 87
7 4 7 6 6 5 8 21 59 83 100 56 42 66 63 72 96 67 65 100 100 100 100 100 99 86 72 77 100 65 42 84 93 80 90 82 99 99 95 48 48 89 89 93 97
7 4 6 5 6 5 9 27 60 91 100 63 49 78 52 77 95 98 100 100 97 100 95 100 100 100 100 99 93 62 43 53 69 82 86 96 95 98 97 83 57 65 82 68 78
7 4 5 4 6 5 8 24 59 92 90 70 62 68 67 79 92 100 100 88 100 98 85 100 100 100 98 90 87 81 39 43 63 59 64 82 77 85 98 97 100 88 92 88 77
8 4 4 4 5 5 9 28 53 89 78 71 70 47 77 64 89 98 100 100 80 100 86 98 100 93 99 100 100 97 51 50 34 39 61 76 86 56 88 100 93 89 93 96 89
10 4 3 4 5 5 12 22 54 92 79 70 57 50 65 93 90 100 100 99 85 89 97 100 100 99 100 100 100 96 57 43 40 38 33 28 84 65 55 86 98 96 100 100 100
10 3 3 3 5 5 10 21 54 94 76 55 29 30 62 98 98 99 85 100 98 88 100 97 100 100 100 100 93 100 93 59 42 39 32 23 19 26 25 28 44 79 96 95 91
11 3 2 3 4 4 10 21 58 83 62 58 26 30 77 93 100 98 64 100 76 97 100 100 98 99 97 100 99 87 98 90 62 42 29 21 16 19 19 33 55 92 84 80 79
12 3 2 3 4 4 10 19 59 80 59 47 31 30 64 95 93 74 66 88 78 81 94 99 100 100 100 98 96 96 96 75 48 35 26 21 21 19 26 28 35 66 80 74 70
12 3 2 2 4 4 8 18 42 82 74 43 28 26 50 69 100 99 91 89 70 82 90 96 94 100 96 89 99 87 92 70 53 36 24 24 19 22 25 32 38 41 47 61 61
10 3 2 3 3 4 7 18 46 83 90 40 33 27 38 98 100 100 80 72 84 94 99 97 91 98 90 86 84 82 84 83 60 50 34 23 20 24 23 30 51 56 56 52 55
9 4 2 3 3 4 5 11 24 61 83 36 50 41 78 97 100 100 97 94 94 92 92 99 77 78 78 72 76 66 68 68 63 46 32 31 29 17 17 24 30 39 50 43 54
9 4 2 2 3 4 4 8 20 40 73 77 29 47 81 86 99 100 100 100 89 83 87 95 82 82 84 69 63 57 63 73 70 47 27 22 23 19 13 14 18 30 35 33 32
11 5 3 2 3 3 4 7 18 34 57 89 75 34 32 46 72 97 100 94 98 92 76 79 73 74 67 62 65 63 75 70 55 38 30 34 36 35 36 30 21 20 35 31 28
14 6 3 2 3 3 4 5 11 24 37 57 87 87 40 34 48 76 91 93 84 88 81 75 78 75 69 68 81 79 79 74 62 47 56 48 52 52 56 46 38 23 19 35 28
15 7 3 2 3 3 3 4 6 20 37 37 41 80 80 47 41 63 66 82 84 86 74 76 76 70 72 71 70 67 66 64 55 70 51 68 62 61 64 49 42 36 34 40 44
15 8 5 2 3 3 3 4 5 14 24 38 39 45 75 85 59 45 52 62 70 84 87 74 72 67 64 68 71 71 63 61 62 76 68 67 57 55 44 41 37 35 37 36 33
20 10 6 3 3 2 3 4 5 7 19 29 36 36 42 62 84 75 85 93 84 82 82 76 70 71 69 70 68 65 71 74 79 78 66 60 54 53 50 48 53 41 34 36 38

GFSSW_500_rhum_060.txt.gz
RH
30 22 11 4 4 5 7 4 4 6 12 19 21 33 45 48 19 42 100 100 94 41 49 100 49 76 90 58 69 59 58 24 28 53 99 76 72 74 95 76 50 48 47 84 96
34 17 12 4 3 5 8 4 4 7 14 18 19 45 54 50 15 68 100 100 99 60 61 100 77 77 96 70 86 61 33 27 30 48 83 73 77 64 91 88 55 60 45 76 91
32 19 9 4 3 6 8 4 5 10 16 19 31 55 63 46 18 72 100 98 100 70 75 99 95 94 90 88 94 93 82 69 31 64 32 54 71 69 87 97 67 42 62 84 83
35 21 6 4 4 9 7 4 7 13 19 25 58 70 67 38 19 91 100 100 100 76 100 100 97 94 81 97 98 94 51 98 91 55 37 34 58 93 88 82 87 44 44 73 75
28 16 5 3 4 9 6 5 8 16 25 46 74 77 51 33 29 68 100 100 100 78 100 84 97 78 95 88 99 95 75 79 70 79 51 50 30 53 71 60 77 88 39 46 73
22 14 6 4 5 9 6 5 10 21 33 63 80 63 37 27 57 29 100 100 99 100 100 92 100 98 99 97 99 97 97 83 73 73 98 97 92 60 73 87 77 93 81 38 42
24 14 6 4 6 9 6 5 14 26 52 78 85 50 28 29 43 36 86 100 94 99 96 97 96 98 94 99 98 100 97 88 63 98 76 92 96 47 53 94 95 90 90 82 37
34 15 5 5 6 8 5 6 15 33 65 84 68 44 32 52 70 56 47 98 98 89 100 100 92 99 87 94 100 100 88 99 89 54 40 37 48 36 52 55 94 96 86 84 87
38 12 4 5 6 8 5 7 18 40 67 94 59 37 47 69 85 62 57 88 86 69 98 93 86 88 100 99 93 86 96 91 97 56 98 58 53 54 45 92 97 95 97 94 93
25 11 4 5 6 7 5 7 20 50 81 80 60 41 72 68 90 73 54 82 64 95 100 94 100 92 99 100 88 82 94 84 94 76 70 75 69 51 37 34 89 98 97 94 94
25 11 4 5 6 6 5 8 24 59 93 68 62 59 52 70 92 79 62 78 95 100 100 97 98 69 58 81 100 85 100 100 100 99 83 57 71 62 53 37 40 97 87 93 96
28 12 3 5 5 5 5 8 25 68 82 69 69 71 57 76 97 68 71 100 100 100 100 100 87 84 71 92 100 99 100 96 98 97 90 64 87 71 43 38 42 62 93 96 98
29 11 3 4 4 5 6 9 25 64 70 69 71 62 75 100 96 76 98 100 100 100 100 100 100 100 98 100 100 98 92 95 98 99 98 96 75 59 59 37 44 58 59 63 88
31 10 4 3 4 5 6 12 28 70 62 53 54 59 58 79 100 96 100 100 100 100 100 97 100 100 98 100 91 98 98 96 92 90 97 86 81 92 90 74 94 84 60 69 52
31 9 4 3 3 5 5 11 38 62 62 43 46 60 64 91 100 100 97 100 98 95 98 94 96 95 100 100 100 100 96 100 90 71 81 65 54 47 53 90 83 98 90 80 70
30 8 3 3 3 4 6 13 47 53 48 31 34 56 52 84 100 100 88 100 100 100 100 99 99 100 99 98 83 83 85 82 74 44 51 44 48 59 49 59 68 88 100 100 99
26 5 3 3 3 4 5 12 36 54 40 24 43 57 56 96 83 97 85 95 96 97 99 97 100 100 93 86 100 100 96 95 66 44 38 34 42 32 32 30 30 33 44 78 90
21 4 3 2 3 4 4 10 32 61 36 24 50 71 73 55 68 81 64 59 94 81 100 100 100 94 100 100 99 95 100 98 65 45 38 39 37 31 28 26 24 24 24 30 32
18 4 3 2 2 4 4 9 33 56 34 23 58 66 60 44 55 62 78 73 95 92 82 76 94 92 91 91 94 92 92 77 87 79 60 51 38 27 33 25 22 19 17 26 54
14 4 2 2 2 4 4 8 17 56 37 21 50 65 96 66 48 52 44 66 83 90 99 100 100 94 100 96 100 99 86 90 89 94 70 69 60 38 29 21 19 21 23 24 25
11 4 3 2 2 3 3 6 14 43 52 27 31 69 81 99 62 60 46 55 61 73 93 96 90 94 98 99 100 98 100 100 92 74 95 98 54 31 24 20 17 17 26 40 44
11 5 3 2 2 3 3 5 15 35 70 37 23 43 86 90 96 82 71 60 67 81 78 99 83 97 100 94 90 89 90 96 100 100 91 66 53 38 24 16 15 20 22 21 26
12 5 3 2 2 3 3 4 7 26 57 56 32 44 82 89 95 100 94 85 93 97 90 91 79 90 85 76 80 81 92 99 96 84 75 60 41 31 27 24 23 18 13 12 15
13 5 3 2 2 3 3 4 5 15 32 54 71 33 49 69 89 100 95 86 78 87 81 93 92 78 78 85 79 78 81 92 83 71 74 56 40 44 51 43 30 24 21 13 14
14 6 3 3 2 2 3 3 4 8 20 33 40 67 32 32 72 97 100 100 92 93 93 86 80 80 81 84 86 87 86 82 74 84 58 66 56 62 53 43 36 35 39 36 36
14 9 5 4 2 2 3 3 4 4 15 28 32 42 71 41 30 73 81 91 87 83 82 85 93 86 89 88 85 83 75 74 77 77 67 66 61 57 47 52 48 48 39 35 31
18 11 6 5 3 2 3 2 3 4 8 18 31 32 48 72 40 35 60 64 67 69 69 81 84 82 80 79 78 75 76 74 72 72 65 59 56 56 57 57 52 45 38 39 30

GFSSW_500_rhum_063.txt.gz
RH
50 49 53 39 13 5 4 4 6 4 3 6 10 14 16 22 41 45 18 36 100 100 74 58 74 82 35 94 82 97 82 61 56 59 98 68 75 87 90 63 64 89 93 97 89
48 51 47 23 8 4 4 5 5 4 4 7 14 18 32 41 48 40 24 99 100 100 85 67 68 95 38 91 96 96 92 60 66 64 56 76 76 58 74 82 70 90 94 91 90
48 50 41 20 7 4 5 5 5 4 5 11 18 32 44 50 46 31 32 100 100 99 98 70 100 100 49 97 98 90 94 72 72 71 42 64 99 73 56 68 84 94 95 92 86
50 52 32 24 7 4 6 5 4 4 7 13 25 45 51 54 45 27 52 100 98 99 100 72 93 100 69 91 97 83 96 96 99 76 54 64 90 86 55 43 60 86 97 94 83
51 53 39 27 6 4 7 5 4 5 8 20 38 53 63 54 37 25 58 100 100 90 100 77 72 100 85 75 98 99 93 99 93 81 53 50 65 96 76 51 37 61 95 91 88
58 55 44 20 4 5 6 6 5 6 12 27 51 67 66 49 30 34 37 99 100 99 100 100 76 99 96 75 99 91 97 97 84 63 80 55 39 52 53 80 66 39 65 95 85
60 54 32 12 4 7 7 6 5 6 15 42 66 70 61 37 46 39 46 82 100 100 100 87 83 99 96 88 98 99 98 99 98 98 85 78 42 34 33 53 51 45 52 92 90
66 51 25 11 6 8 7 6 5 9 26 57 72 64 49 50 59 58 52 49 100 100 100 97 79 96 100 95 99 100 99 99 99 96 94 97 64 43 28 23 26 38 65 66 77
69 51 25 11 7 8 6 5 6 10 33 72 68 61 45 63 77 89 50 44 99 98 92 100 86 86 100 100 99 100 96 97 100 99 98 89 68 100 73 61 75 45 78 93 91
70 50 25 10 8 9 6 4 6 12 49 78 62 48 61 62 75 73 53 46 100 87 76 99 100 100 94 100 92 85 91 83 95 98 97 97 100 98 86 66 56 46 46 72 92
71 50 25 10 10 8 5 4 7 22 73 63 45 50 66 81 94 88 78 79 100 70 100 84 100 94 82 96 95 100 100 87 98 100 100 94 95 76 82 79 49 30 32 48 83
71 50 24 12 11 7 4 4 8 36 62 44 32 53 74 100 100 70 58 95 87 81 82 97 80 98 87 100 97 100 100 98 97 99 99 91 91 80 66 51 38 46 44 56 96
72 46 20 15 11 5 4 4 9 40 53 26 32 62 79 99 90 66 84 100 81 76 100 95 100 74 74 100 99 89 76 80 99 99 100 95 86 70 62 56 68 45 41 32 51
73 46 16 14 10 4 4 5 12 44 40 24 40 70 79 99 67 71 100 100 99 100 100 100 100 93 100 80 89 81 62 92 98 100 100 85 90 73 66 59 48 39 37 32 31
72 46 18 14 8 4 4 5 16 44 30 30 43 61 100 100 100 100 84 100 100 100 94 100 90 100 94 58 76 82 81 81 100 99 100 78 83 90 63 55 70 58 41 34 28
72 42 16 14 5 3 3 6 20 39 27 35 39 57 99 83 88 100 100 99 95 95 100 88 100 100 100 99 92 70 79 80 91 97 96 93 81 70 71 67 61 60 73 58 89
71 39 14 9 3 2 3 5 23 34 24 36 31 49 72 84 75 99 93 100 100 100 100 87 99 100 99 88 88 85 87 100 100 99 84 86 73 54 46 46 49 56 55 69 85
68 26 12 7 3 3 3 5 23 33 29 37 37 37 58 81 76 72 96 98 100 100 100 100 100 90 99 94 74 89 94 82 91 73 70 75 66 44 41 39 37 40 40 33 28
63 16 9 5 2 3 3 4 22 34 34 38 33 43 52 68 51 57 68 89 99 97 100 100 94 99 86 94 96 90 79 70 71 82 78 50 41 38 36 38 31 25 20 30 25
49 13 8 3 2 2 3 4 19 32 23 56 52 44 32 41 53 53 48 68 86 84 97 99 86 91 92 99 100 88 91 85 92 78 57 51 41 41 43 38 27 23 19 17 16
41 11 7 3 2 2 3 3 16 30 25 47 48 46 38 29 41 52 49 62 80 80 70 85 70 78 82 84 91 96 100 100 98 100 100 78 63 60 67 45 29 21 17 15 15
31 11 5 3 2 2 2 3 8 26 35 22 49 84 67 26 36 38 47 53 80 82 88 100 100 90 94 88 95 99 99 94 97 100 92 86 78 70 63 40 26 21 16 14 12
23 10 4 3 2 2 2 3 5 16 39 38 34 42 85 63 38 55 28 45 59 70 70 99 96 99 90 94 100 100 99 100 99 100 91 95 86 79 56 35 21 17 15 13 13
22 8 4 2 2 2 2 3 3 7 27 40 46 31 48 83 84 70 65 58 58 61 63 64 78 91 80 96 98 98 95 91 87 99 100 100 96 82 53 32 25 22 21 26 28
22 7 4 3 3 2 2 2 2 4 9 25 34 56 27 38 79 83 84 80 81 82 91 88 88 94 90 96 78 68 68 64 69 100 89 100 93 69 50 36 40 49 49 39 36
21 8 4 3 3 3 2 2 2 3 5 16 29 35 63 24 47 82 88 87 96 94 96 92 92 87 85 86 92 84 80 84 87 86 87 89 86 62 58 74 71 60 52 46 42
20 10 5 3 3 3 3 2 2 3 4 7 20 29 32 63 22 48 70 77 78 80 74 75 79 92 87 83 85 92 94 92 85 75 72 69 71 71 79 80 65 60 57 49 41

GFSSW_500_rhum_066.txt.gz
RH
49 54 58 47 46 28 23 7 4 4 5 5 4 4 6 10 16 23 30 39 29 16 17 32 44 55 70 22 59 100 92 81 50 56 60 80 82 60 87 84 92 94 96 99 97
51 54 54 50 48 30 24 5 4 5 6 5 3 5 10 15 21 28 39 39 35 61 94 100 94 80 92 30 46 99 80 92 55 57 60 68 98 80 72 89 89 91 95 92 96
58 60 57 58 50 37 16 6 6 6 8 4 4 8 13 22 25 43 45 38 94 100 100 82 100 92 88 45 57 100 61 96 66 76 61 83 100 97 76 58 66 92 94 98 96
62 62 59 59 47 30 9 8 8 10 8 3 5 12 22 29 50 53 51 28 98 100 100 89 88 99 88 50 61 99 68 98 63 71 67 66 100 93 66 48 53 71 92 96 95
70 67 64 58 37 21 10 11 12 10 6 4 8 18 32 52 60 53 39 28 100 100 100 100 86 100 99 69 51 69 72 97 86 74 81 68 78 86 84 61 46 42 65 89 94
72 71 70 57 35 18 15 15 16 10 4 5 14 30 54 63 48 44 34 28 100 99 100 100 85 98 100 68 92 89 88 97 98 86 84 82 60 74 79 84 59 44 43 69 90
80 77 73 54 36 18 19 20 17 8 4 9 22 50 64 50 38 41 31 37 100 86 100 100 79 97 100 65 96 100 98 98 95 91 85 80 67 53 78 75 74 63 40 49 70
81 81 74 60 35 25 27 23 15 5 5 15 42 56 48 40 42 57 56 32 99 80 100 100 71 86 100 82 93 100 100 97 97 90 96 84 71 54 49 76 92 76 52 53 51
94 92 80 60 36 33 31 22 10 4 11 24 44 42 42 53 62 65 70 38 87 100 100 98 99 76 96 97 73 100 93 95 86 79 97 82 76 62 48 56 79 76 61 61 83
98 96 82 60 41 39 31 19 7 5 17 35 40 33 57 65 72 74 78 44 78 100 83 92 82 71 96 95 73 89 94 97 98 99 83 85 97 92 76 49 48 48 58 48 36
95 97 82 63 48 40 30 16 6 11 19 27 26 42 59 71 91 97 84 50 99 90 94 95 91 59 100 83 74 91 99 98 99 99 99 100 98 97 97 76 50 32 25 22 23
92 97 81 68 64 42 29 11 6 14 25 25 34 52 89 99 88 74 70 78 96 83 98 96 95 78 98 96 97 100 99 99 98 98 98 97 98 98 88 73 46 44 54 46 53
99 97 80 71 77 39 26 7 7 19 25 28 44 58 71 91 65 61 80 100 87 76 95 98 89 99 100 89 100 96 99 99 97 100 98 97 96 91 87 94 96 69 48 46 41
97 97 82 76 66 37 19 6 7 21 24 32 55 85 91 79 80 100 100 98 66 79 95 100 84 100 99 94 94 100 97 100 95 98 98 98 91 78 75 91 86 67 62 57 37
94 97 86 78 62 38 10 5 8 18 23 40 52 96 96 68 78 100 76 67 57 85 100 90 88 100 95 95 100 99 100 99 100 99 99 97 87 98 64 53 60 59 51 53 47
94 97 90 72 55 24 7 5 11 18 26 35 70 51 61 99 68 100 100 76 80 93 98 97 78 65 76 94 97 96 84 92 97 100 99 96 90 75 68 60 48 52 56 53 46
96 97 89 69 42 15 5 5 13 19 27 32 49 56 48 100 92 97 100 100 87 88 94 92 75 82 51 59 62 57 73 78 79 98 96 98 80 78 71 59 61 52 53 52 47
96 99 89 57 26 8 4 5 13 24 25 30 39 61 52 63 95 97 100 100 100 84 79 99 100 100 77 52 43 60 98 88 81 68 91 98 78 66 59 62 61 56 54 55 45
97 100 85 37 14 5 3 6 15 22 31 30 36 61 45 51 62 84 99 100 98 84 70 73 76 100 80 80 74 74 82 99 99 99 88 98 89 64 54 49 48 49 51 49 46
97 100 64 21 7 4 3 5 13 22 28 41 36 52 39 42 48 73 92 100 96 90 77 87 74 88 96 96 82 70 71 96 99 96 89 80 67 65 61 50 39 38 38 35 33
97 99 44 12 4 3 3 5 9 24 25 38 53 37 39 40 47 41 60 91 81 93 98 81 82 71 71 73 86 88 82 76 83 79 66 59 52 51 44 41 39 37 37 31 20
99 87 30 6 3 2 3 4 7 24 25 38 56 48 34 32 37 38 34 58 82 63 58 72 66 77 78 80 91 100 93 91 90 85 78 70 62 60 51 45 43 47 54 44 22
100 71 17 4 3 2 2 3 6 13 31 22 43 63 34 32 32 41 32 40 53 73 83 69 78 94 76 80 84 88 90 96 92 92 94 96 97 88 78 72 66 65 65 29 20
99 45 12 4 3 2 2 3 4 8 18 42 24 37 63 29 30 37 36 32 51 61 68 69 85 86 88 90 96 96 97 98 95 100 100 100 95 89 90 88 70 58 35 24 18
96 33 10 4 3 2 2 2 3 6 12 31 52 22 34 62 58 34 25 24 29 36 47 55 63 77 79 76 80 85 84 87 93 100 98 100 96 99 91 90 68 46 34 29 27
87 26 6 3 3 3 3 3 3 3 7 19 30 45 23 46 62 78 68 42 62 69 70 70 72 88 80 81 84 84 82 76 85 79 96 97 91 85 94 87 77 73 53 47 38
52 20 6 3 4 3 3 3 3 3 5 9 22 27 41 24 44 58 66 68 69 69 69 75 74 81 82 80 79 84 81 87 91 81 89 93 99 88 94 96 86 75 62 55 51

GFSSW_500_rhum_069.txt.gz
RH
58 55 48 53 58 56 51 47 41 25 6 5 7 8 6 3 4 5 9 12 17 18 18 25 24 24 30 34 31 25 59 82 90 91 58 55 89 89 86 79 90 89 100 100 95
63 56 48 59 65 61 58 46 33 18 8 9 9 10 4 4 6 8 12 17 21 28 29 34 20 15 18 24 25 30 41 55 88 91 92 72 82 96 84 85 80 92 96 97 87
67 67 57 54 66 66 59 43 28 14 12 12 12 8 4 6 10 13 25 32 38 50 46 44 69 46 25 57 25 27 28 64 100 92 100 75 100 100 100 80 74 94 96 97 98
92 77 58 60 71 68 58 44 33 20 19 16 14 5 5 9 19 29 45 54 54 57 51 70 94 79 76 100 83 61 31 48 98 97 97 80 99 96 93 77 75 92 93 95 93
73 93 74 64 78 74 62 53 36 30 26 20 9 5 8 18 30 52 51 39 40 41 89 99 100 100 100 100 99 80 57 60 95 97 99 78 95 82 69 85 90 93 96 90 94
71 76 96 80 86 80 68 60 51 41 33 17 6 6 13 19 34 34 30 26 31 35 100 94 96 100 100 100 94 63 51 70 99 90 98 76 91 100 85 81 100 90 90 84 86
8 45 96 97 95 94 79 70 70 50 33 11 6 9 16 21 26 29 26 40 29 38 100 94 83 97 100 97 87 57 62 71 99 96 99 91 86 82 92 95 98 96 71 83 86
6 25 69 98 96 97 87 84 77 54 26 8 9 14 15 24 39 46 47 50 34 60 100 96 87 100 100 93 93 69 98 99 99 95 98 96 86 79 78 87 99 94 65 86 82
8 21 34 89 94 97 99 94 87 48 15 9 11 14 21 35 53 70 67 62 62 62 100 94 98 98 100 99 88 87 99 88 99 97 82 82 88 80 67 68 90 87 92 85 77
9 11 28 70 97 98 99 99 80 34 11 12 14 17 31 52 70 72 84 66 54 77 100 100 89 100 100 94 74 80 100 98 98 97 97 97 73 83 68 52 61 72 94 96 81
7 7 16 54 96 98 98 98 58 19 11 10 17 28 50 71 94 100 95 80 53 100 100 72 72 83 94 100 98 100 100 100 95 97 100 97 93 76 74 57 44 53 70 95 100
8 7 6 27 96 97 99 94 46 14 13 16 35 50 50 70 95 75 82 75 94 97 96 78 84 75 93 100 100 100 97 98 99 99 99 99 98 97 90 69 54 50 58 66 96
8 7 6 28 87 99 98 77 32 10 13 23 50 81 50 72 69 83 70 93 100 99 71 71 72 67 91 97 97 97 87 99 99 98 100 97 96 99 98 88 67 56 48 50 54
8 6 7 32 75 97 98 61 14 12 17 30 47 62 58 83 98 98 100 100 90 93 97 86 86 63 99 97 96 99 96 98 98 98 98 99 99 98 92 98 88 86 72 50 42
9 8 6 38 65 98 90 36 10 12 19 34 46 63 64 96 87 97 81 74 69 56 91 94 85 79 99 100 100 87 92 96 93 96 97 98 91 95 97 94 70 79 82 58 52
7 8 8 36 75 100 85 20 9 15 20 37 42 68 67 99 85 54 58 60 63 65 100 96 90 100 100 98 100 98 97 96 84 85 83 97 94 75 73 86 96 98 97 76 62
6 7 10 30 68 100 59 14 11 18 22 39 34 61 58 90 100 84 75 81 90 96 87 77 92 100 96 89 98 99 100 100 100 99 91 97 90 82 80 83 76 65 61 54 54
6 6 11 29 90 98 28 10 15 20 26 37 34 55 60 71 86 79 84 93 96 100 71 79 98 94 86 82 82 81 85 90 93 99 99 98 90 75 68 85 80 65 56 67 68
7 8 16 61 100 86 15 7 16 21 30 35 54 42 66 63 88 100 75 85 97 98 92 88 63 51 47 63 67 60 50 59 81 90 99 94 76 68 63 65 58 60 65 60 55
8 10 25 86 100 45 10 8 15 25 38 46 45 39 45 51 71 99 88 79 65 79 100 96 83 93 65 50 53 53 72 80 86 84 76 96 79 72 62 56 58 61 59 56 54
67 19 50 99 91 19 8 9 18 27 38 55 43 35 34 39 66 85 89 83 68 64 78 98 87 94 80 57 58 52 64 88 100 100 96 95 90 94 80 62 53 49 49 46 43
36 84 97 100 44 9 6 7 21 27 39 56 34 34 35 34 40 70 68 75 70 71 80 85 88 86 85 87 79 62 72 65 90 93 90 88 79 89 78 72 64 48 47 47 41
95 95 100 87 21 7 5 7 19 26 44 54 36 30 34 33 30 46 43 57 54 57 66 66 58 67 71 76 91 97 85 68 62 62 62 63 61 62 57 54 51 45 40 38 38
99 97 100 46 8 5 5 6 13 24 28 48 44 33 28 28 26 28 30 28 32 62 60 55 60 86 73 70 68 77 82 90 94 90 80 75 75 79 69 59 53 50 48 51 56
94 97 89 18 6 4 4 4 9 21 26 28 40 29 26 20 24 31 30 25 31 30 34 45 49 62 56 59 70 72 74 78 82 89 82 75 74 76 78 78 79 77 79 77 73
100 100 59 8 6 4 4 4 7 11 23 30 26 35 30 32 34 34 31 26 25 28 32 27 33 36 39 58 65 63 72 74 66 69 72 68 70 71 77 83 84 87 93 78 53
97 95 26 6 5 3 4 4 5 6 9 23 25 27 33 34 30 27 21 16 17 29 50 52 50 55 65 65 62 62 66 65 63 64 72 65 69 66 80 81 84 87 81 81 73

GFSSW_500_rhum_072.txt.gz
RH
21 62 83 79 64 64 56 63 64 63 56 45 37 25 11 9 8 6 4 4 6 8 9 12 12 22 26 33 34 36 36 31 38 55 77 83 99 86 57 88 88 79 98 99 95
12 10 41 80 90 75 70 70 69 68 58 46 38 24 13 11 9 6 4 7 12 16 13 13 17 16 21 26 26 30 32 22 30 58 73 80 98 92 57 59 69 89 95 92 96
15 8 11 40 82 93 78 74 79 72 64 59 46 26 17 14 9 6 6 8 17 25 29 22 22 25 21 20 21 28 23 25 26 56 97 94 98 100 60 66 72 87 92 77 97
16 13 12 9 44 74 98 84 81 86 80 69 56 34 26 15 7 5 8 14 22 33 39 51 61 49 32 34 31 31 28 22 32 42 100 95 98 69 63 74 100 98 91 86 95
19 15 11 10 20 46 90 89 95 95 93 90 66 46 23 11 7 7 10 13 15 20 25 47 57 43 44 75 66 35 24 24 25 42 82 82 95 98 50 76 93 87 82 70 96
21 20 9 9 14 41 62 83 97 95 95 95 76 43 18 7 8 9 11 16 21 22 24 28 31 89 86 97 86 98 58 23 23 37 89 90 90 99 62 72 94 96 85 62 95
21 22 10 9 8 20 35 55 94 98 97 87 63 30 11 8 9 13 19 30 33 37 28 30 87 100 99 98 100 100 61 38 18 34 95 98 100 94 79 82 77 81 80 84 94
22 23 15 8 7 9 21 28 91 99 96 76 39 19 9 10 12 24 37 44 47 47 31 70 100 96 100 100 99 100 97 54 21 75 91 97 86 94 89 88 80 79 96 98 90
21 22 23 9 7 18 65 16 89 92 95 51 30 13 12 17 26 40 58 58 63 48 35 100 96 89 99 92 99 99 82 46 52 98 99 90 97 100 82 93 99 82 96 96 95
28 29 29 22 8 9 9 35 49 76 86 45 20 12 24 24 25 58 76 86 80 52 80 100 72 73 97 100 96 82 98 100 95 94 99 95 89 90 85 93 97 93 90 95 94
38 32 27 28 10 10 18 41 35 70 85 25 17 25 32 37 37 60 91 79 81 48 100 98 81 86 96 100 82 78 71 68 69 89 100 98 89 99 86 95 95 98 94 96 95
16 13 18 24 13 10 89 36 52 76 72 22 21 30 43 66 62 63 67 83 57 81 93 96 85 98 100 100 89 82 97 99 98 100 99 100 92 95 90 89 96 96 96 94 94
17 13 12 13 12 10 17 66 74 79 39 23 28 36 56 78 70 100 98 76 100 100 97 99 99 100 99 100 100 98 100 100 100 98 99 96 86 97 100 88 88 86 89 88 80
19 16 11 10 11 29 23 51 51 91 20 25 27 42 66 91 69 76 100 100 100 97 83 75 78 91 87 99 100 97 90 98 100 100 99 99 98 98 94 80 92 89 79 69 64
12 16 12 10 11 13 42 100 62 97 24 30 36 64 90 76 84 94 93 97 96 72 92 99 79 75 84 91 99 95 99 94 96 99 99 96 98 96 97 99 86 93 90 82 83
13 13 12 10 10 17 88 92 81 48 28 25 45 69 90 46 61 63 61 69 86 82 94 83 81 96 95 100 77 80 89 97 99 99 100 98 99 100 95 88 96 98 99 98 93
12 11 12 11 12 51 96 73 100 20 24 25 48 66 85 60 46 64 55 46 48 68 100 87 97 100 100 92 92 89 82 97 100 90 95 93 99 94 88 98 100 98 96 98 99
11 16 10 10 64 98 49 71 84 22 23 26 44 64 76 96 61 90 96 94 85 85 98 93 98 99 100 100 100 100 100 100 100 90 83 97 99 93 79 89 91 97 94 88 94
19 10 11 88 64 97 56 98 27 26 24 31 41 57 71 88 75 76 100 100 96 62 65 84 97 100 89 93 94 99 96 85 95 95 82 89 96 94 87 97 89 97 99 92 85
98 15 19 79 99 41 92 89 18 28 30 42 42 51 61 76 77 71 80 100 86 91 73 72 69 69 91 81 68 68 82 72 76 92 100 100 96 85 82 82 91 76 57 54 50
80 55 100 90 82 84 73 36 20 24 45 41 41 42 52 85 88 73 51 98 100 72 66 79 71 67 56 62 58 58 54 50 60 63 84 100 89 77 68 59 52 51 48 46 41
100 78 48 99 100 59 93 16 20 27 56 41 44 35 38 84 84 78 51 54 64 76 85 81 83 84 78 85 82 62 62 60 65 75 76 82 73 77 70 61 59 59 61 60 58
85 100 99 82 97 100 39 14 20 36 50 36 38 34 33 53 51 70 56 59 65 65 55 56 59 62 62 66 68 68 69 66 72 73 85 87 87 78 76 79 63 55 60 58 51
95 42 91 97 100 49 14 13 19 40 44 32 31 29 30 36 37 36 42 53 54 67 70 52 69 63 60 63 63 70 76 65 57 47 52 52 52 52 52 56 60 57 57 55 48
99 99 100 100 85 12 10 18 23 39 46 37 30 26 24 30 35 30 27 26 32 28 28 34 44 48 41 42 56 61 60 58 63 66 63 57 48 49 50 55 51 49 52 52 50
95 100 100 94 19 8 9 19 24 29 40 50 48 29 23 24 26 24 24 23 24 21 18 19 23 24 30 28 43 46 51 56 55 55 59 62 64 69 66 64 67 71 72 71 72
99 100 99 19 9 7 9 17 22 19 21 24 26 28 20 20 19 18 18 19 20 17 20 34 34 26 32 38 41 46 48 47 44 45 46 50 60 61 57 56 57 71 74 76 81

GFSSW_500_rhum_075.txt.gz
RH
11 11 8 11 11 12 15 52 79 85 76 68 66 62 64 58 47 39 27 10 7 7 5 4 7 10 9 8 15 30 28 16 14 11 23 68 98 96 67 56 71 87 85 87 95
10 12 12 11 10 12 12 17 47 77 82 80 75 76 65 67 54 40 20 11 9 7 4 6 13 18 14 11 20 31 29 18 20 18 15 63 82 100 89 62 58 72 77 86 84
14 12 15 16 13 10 8 10 19 49 85 89 82 77 78 81 58 35 19 14 10 5 4 6 14 31 23 19 19 28 24 32 28 21 21 33 96 100 99 93 55 53 55 71 96
16 17 16 19 17 16 11 8 10 37 50 79 92 82 80 79 56 35 21 11 6 5 6 8 12 30 45 32 40 25 26 27 29 25 27 30 83 99 98 88 56 50 81 77 93
18 18 18 19 19 20 18 10 8 50 86 54 93 84 84 70 44 29 16 8 6 7 8 12 16 18 44 70 69 57 30 23 27 23 26 45 57 81 97 99 82 64 68 71 88
22 20 24 21 21 20 22 19 9 28 100 88 74 78 82 63 41 21 9 7 8 13 17 20 20 20 23 43 70 57 50 41 26 21 22 39 72 77 91 99 100 95 72 70 80
23 30 25 27 24 21 20 23 18 10 13 48 84 48 79 46 25 13 11 10 10 23 32 31 22 20 22 61 39 42 48 40 30 22 18 40 62 50 87 98 98 98 80 90 84
28 28 31 30 28 21 21 26 17 15 15 84 73 76 73 33 18 14 11 13 31 46 41 34 28 23 100 90 96 84 97 83 31 25 23 59 60 93 97 94 95 98 78 88 76
31 30 30 30 31 27 25 28 18 14 36 98 84 77 56 29 18 16 16 22 58 63 48 35 28 65 96 100 100 100 94 100 69 22 28 70 75 79 97 95 100 98 70 96 97
30 26 29 36 34 33 29 32 17 15 97 90 94 72 40 23 24 30 31 32 77 70 54 33 91 79 81 87 100 98 91 88 38 24 31 66 83 89 97 99 99 97 95 97 97
37 29 24 31 28 30 24 21 17 29 100 62 82 83 25 28 32 49 64 48 71 61 41 84 71 73 83 99 100 100 99 69 30 15 24 98 97 84 98 91 100 99 93 98 94
39 38 32 24 20 18 15 16 14 94 90 64 98 42 31 30 43 58 94 43 57 54 75 76 69 81 100 100 100 98 100 97 83 38 54 100 98 91 96 100 99 97 85 95 95
11 30 34 32 21 16 16 19 29 99 76 94 79 30 40 37 55 76 92 96 100 85 99 92 77 99 100 100 100 90 100 100 100 77 79 98 99 91 97 99 97 92 97 99 95
13 11 25 23 28 19 20 18 75 100 47 93 44 34 41 50 60 64 88 100 96 99 99 94 94 100 99 99 100 80 87 97 97 97 100 99 98 100 99 97 99 96 95 97 95
37 21 13 13 20 21 20 34 100 88 93 84 31 40 37 51 67 86 94 79 85 84 80 81 89 92 93 100 100 98 99 99 100 100 96 98 99 97 92 92 99 100 97 97 97
88 46 20 14 15 21 28 100 100 72 98 68 26 52 42 47 58 60 79 60 58 50 80 73 66 78 80 76 100 99 95 100 100 92 99 100 99 98 99 84 88 100 94 97 98
93 67 19 12 15 20 96 100 76 99 89 50 26 44 59 50 50 48 49 51 76 97 82 76 97 99 100 74 96 95 91 87 78 90 99 99 83 88 79 90 90 98 99 95 95
99 23 12 15 28 63 99 56 100 97 92 24 43 54 52 65 78 70 48 44 64 99 92 95 96 100 100 100 83 86 76 69 68 87 99 100 97 89 98 86 94 96 87 83 86
48 12 13 20 34 100 89 100 99 99 36 23 48 67 58 55 85 100 89 71 70 97 100 99 100 92 100 100 100 88 98 92 94 100 94 93 98 85 82 92 97 100 92 98 98
12 11 18 39 100 100 100 99 96 42 26 26 49 68 68 54 73 100 91 87 81 98 100 92 92 93 100 98 99 89 90 99 99 92 97 96 85 84 88 85 87 84 93 95 91
14 19 82 100 100 89 100 100 90 30 28 31 48 74 77 79 91 98 100 98 80 77 74 70 78 83 71 66 74 88 75 82 95 100 98 86 84 92 78 89 94 94 98 97 94
65 100 100 100 100 100 100 99 34 33 30 28 46 85 96 87 66 100 66 67 58 75 74 74 70 64 51 47 43 63 65 51 58 52 92 95 95 78 81 84 88 92 84 79 75
100 100 100 100 100 100 100 62 30 38 28 30 43 66 82 62 50 68 70 56 52 70 71 64 64 59 51 47 42 37 36 48 44 41 48 40 59 66 72 70 65 64 62 64 64
100 100 100 100 94 96 31 22 29 35 32 33 38 46 51 60 46 53 60 55 46 39 47 47 47 37 47 51 54 57 40 32 32 36 54 60 54 55 58 58 59 58 58 56 55
100 100 100 100 99 94 16 24 30 31 26 29 38 40 38 37 38 46 49 53 34 31 39 34 28 28 29 44 46 46 47 48 44 43 42 38 40 39 47 51 46 48 54 53 50
100 100 100 100 100 16 12 22 42 27 27 24 32 39 36 32 28 26 27 28 25 20 20 23 19 13 26 36 43 49 54 52 53 54 52 51 55 51 48 44 36 29 34 41 45
97 90 99 100 24 11 15 26 41 34 30 21 24 30 31 32 30 26 23 20 20 16 17 20 23 20 27 32 38 42 44 44 42 42 42 34 38 45 44 45 47 46 44 43 45

GFSSW_500_rhum_078.txt.gz
RH
14 13 12 12 13 11 10 10 10 8 8 10 13 34 87 90 74 63 70 72 60 52 40 24 15 9 8 6 4 4 3 3 4 4 6 13 20 56 57 89 58 52 62 67 75
16 13 13 14 14 14 12 11 11 12 10 8 10 18 59 80 90 78 72 70 68 59 41 21 13 10 7 5 4 5 3 4 7 10 18 16 14 26 71 86 80 56 76 68 90
17 17 15 15 14 16 15 14 13 14 16 11 9 17 68 75 82 78 70 68 62 54 38 19 12 8 5 4 6 8 5 9 10 15 22 16 15 25 65 89 72 56 59 78 77
21 21 19 20 19 17 21 17 16 16 17 19 18 14 12 20 64 80 65 59 50 35 23 14 9 5 4 5 10 8 13 17 14 21 24 20 26 23 66 80 81 70 52 62 75
27 24 23 28 23 23 24 21 19 18 16 19 20 16 17 27 84 81 58 52 36 22 14 10 7 4 5 8 13 11 33 36 19 24 29 30 31 23 42 81 99 86 55 62 79
34 31 27 35 33 29 26 27 22 20 18 20 22 18 17 40 74 73 52 37 19 12 8 6 4 5 8 11 14 24 63 64 32 23 27 34 31 31 22 66 95 97 63 72 99
44 38 33 30 44 38 35 28 28 23 22 23 29 19 28 95 62 57 56 28 14 9 8 7 9 15 11 14 16 22 58 92 51 29 27 30 30 32 48 83 97 99 80 87 100
50 44 39 36 35 46 42 39 31 31 29 32 32 23 58 69 53 71 44 18 10 8 12 16 25 18 15 26 37 38 40 76 74 54 25 27 24 28 57 82 78 98 100 90 95
64 54 47 42 39 37 48 48 46 40 36 35 31 24 74 68 70 47 19 13 11 14 18 37 32 19 89 100 100 93 64 61 67 52 43 24 21 35 52 65 86 100 88 86 96
56 74 64 48 43 36 34 40 51 42 34 26 22 70 97 81 33 23 22 16 16 18 27 48 33 24 85 89 92 100 99 96 84 62 42 24 17 58 68 65 85 82 78 86 98
32 43 62 62 55 47 32 27 36 32 24 40 37 100 95 56 30 25 27 22 21 22 39 28 30 48 63 76 96 100 100 90 78 63 34 22 18 87 61 76 79 89 94 96 97
27 18 23 46 53 48 38 28 26 24 28 40 80 99 76 40 26 34 44 33 22 27 26 46 64 68 80 100 100 100 98 99 100 76 32 23 38 90 86 93 87 82 89 90 98
51 36 16 13 26 43 43 32 26 21 28 59 100 96 58 32 38 56 88 62 72 68 80 78 75 95 100 100 92 92 93 100 98 75 52 32 73 97 90 96 93 90 88 96 96
60 30 23 17 12 27 40 35 30 25 23 84 99 83 42 45 63 80 75 79 100 94 97 79 96 100 100 100 90 72 91 100 100 74 52 90 99 98 98 83 89 98 94 97 96
69 50 41 34 30 14 20 35 30 26 34 100 98 67 40 57 71 61 72 66 65 64 72 74 94 79 100 100 84 71 100 100 100 100 46 75 98 100 98 76 100 93 98 96 91
94 74 60 46 36 14 12 30 28 24 94 100 71 50 34 46 54 61 60 53 51 59 74 75 69 63 98 99 81 98 99 100 99 100 82 100 99 96 93 94 95 77 95 96 94
67 66 83 86 41 19 14 24 24 34 100 97 45 37 37 32 33 42 47 55 62 61 51 63 100 84 81 99 100 75 86 98 89 95 94 100 80 78 98 96 87 81 88 96 97
60 68 77 96 33 21 18 22 40 100 99 50 50 38 50 54 31 35 41 61 67 66 53 94 100 96 99 100 91 92 94 69 69 100 97 98 99 90 91 87 81 82 88 91 97
90 77 89 42 19 16 22 44 100 100 48 48 48 43 43 70 72 42 50 90 86 54 90 100 100 100 100 98 87 67 69 85 88 92 95 97 90 60 66 82 83 73 78 100 96
98 25 18 14 20 40 95 100 100 48 38 52 63 52 50 70 70 59 60 89 100 100 100 96 100 98 100 100 96 89 89 93 90 80 76 77 72 76 82 65 67 100 94 97 97
28 13 14 23 93 100 100 100 58 31 41 58 80 68 54 66 63 96 97 97 90 83 85 98 90 95 100 93 88 90 98 98 99 92 78 81 80 77 78 96 98 99 99 96 98
37 49 58 52 91 100 100 49 32 35 44 71 79 91 73 83 90 73 67 81 69 56 71 87 58 53 51 45 54 56 57 64 82 94 96 95 84 82 70 87 88 79 84 91 92
54 72 99 100 100 100 86 40 41 34 45 82 89 76 69 76 73 68 64 68 65 65 68 58 54 43 42 42 37 40 40 38 41 44 72 78 82 73 65 69 80 90 92 84 78
100 100 100 100 93 46 39 38 33 31 55 72 86 61 67 56 53 47 49 69 63 53 57 60 62 61 53 42 35 34 31 32 32 32 34 29 33 39 47 53 48 47 49 50 50
100 100 100 98 39 42 35 38 30 35 53 51 73 49 51 56 43 40 45 55 49 43 40 36 35 48 56 56 49 47 43 31 27 28 24 35 25 27 28 24 24 21 23 26 34
88 98 100 32 31 34 39 43 26 39 43 40 40 47 38 42 44 31 22 19 18 18 18 18 18 27 45 48 51 50 50 54 53 43 30 24 20 19 20 16 16 22 28 32 34
80 92 53 24 28 26 29 24 22 36 44 39 36 32 30 34 34 26 22 21 18 25 29 24 20 24 23 33 36 37 36 38 40 38 40 37 38 38 37 33 32 30 31 31 31

GFSSW_500_rhum_081.txt.gz
RH
12 11 13 14 14 11 12 12 10 11 13 14 13 12 12 10 8 9 25 59 75 79 76 72 65 64 60 46 33 25 27 23 10 6 6 5 4 4 4 4 10 31 52 45 36
19 17 15 14 15 16 13 15 13 11 12 15 15 16 15 14 11 11 12 23 64 76 77 71 70 66 62 47 34 21 18 11 7 7 6 5 5 4 13 5 23 46 78 51 28
28 29 27 21 19 18 18 18 17 15 13 14 16 17 18 18 16 14 16 16 32 59 71 61 60 58 54 46 35 18 15 9 7 6 4 4 5 5 10 6 24 56 72 72 29
36 36 36 33 29 24 23 21 21 19 18 16 16 19 17 17 19 16 15 23 31 51 54 46 40 32 25 24 16 19 11 9 8 5 4 6 7 7 10 10 16 53 73 84 32
52 48 44 41 40 36 30 25 24 25 23 22 19 21 18 18 20 21 22 25 56 50 46 41 27 18 14 12 12 10 9 8 6 4 4 9 9 10 12 17 16 38 79 89 42
60 60 55 49 48 44 39 33 34 31 25 26 26 24 20 19 26 27 24 21 37 45 39 35 12 10 10 12 11 9 7 6 4 3 7 19 13 17 13 23 16 45 72 96 53
67 66 65 61 59 55 49 48 45 42 27 28 31 28 27 25 25 25 23 36 51 55 27 14 9 10 9 12 11 7 5 5 4 6 24 42 19 16 23 28 18 48 70 86 52
92 85 74 70 70 69 61 60 55 50 43 30 36 36 40 36 28 26 56 74 60 30 16 8 8 9 13 16 12 7 6 6 9 13 43 60 20 19 40 30 22 38 88 84 69
69 74 82 76 75 78 71 59 65 59 52 43 43 44 46 41 35 56 74 50 31 17 10 9 11 21 28 18 47 62 46 39 30 33 77 77 24 26 38 34 48 28 75 87 96
22 24 33 55 63 73 79 74 59 47 45 46 47 48 47 53 37 74 59 24 16 10 12 18 30 33 26 83 98 80 99 100 88 57 60 66 30 28 33 28 41 58 78 94 98
21 18 15 14 28 42 67 91 79 54 38 32 34 36 33 59 73 66 27 14 12 10 23 62 52 35 82 80 82 84 82 80 99 100 68 55 34 23 48 34 75 84 97 95 95
85 78 54 43 26 16 34 45 90 79 57 35 31 29 35 79 77 35 24 19 15 16 34 39 40 71 65 65 79 97 87 73 97 86 88 49 37 20 26 59 99 83 84 87 58
87 84 82 71 51 40 19 21 34 95 64 37 28 28 65 84 49 32 44 80 88 74 81 72 61 66 92 99 96 98 89 100 100 56 55 47 42 28 31 98 86 76 79 97 61
93 100 98 56 48 44 36 17 22 61 53 38 33 54 87 68 44 55 84 73 73 68 78 96 98 90 100 100 85 80 90 92 83 75 71 46 35 31 79 100 68 68 76 87 100
92 100 100 55 36 41 28 13 98 48 48 44 43 88 88 44 43 56 55 55 67 66 71 72 84 100 100 97 85 97 88 99 100 54 71 68 95 94 96 99 90 69 84 94 99
91 87 99 61 45 45 37 26 24 31 36 47 69 97 40 55 59 56 55 47 61 52 70 62 88 100 100 99 83 98 99 98 100 91 86 57 84 98 97 90 76 90 75 93 94
100 77 75 76 51 39 25 86 37 30 44 64 94 39 34 37 39 44 47 56 51 53 66 69 78 100 100 98 90 100 99 100 100 100 87 94 98 98 100 75 93 95 98 97 94
90 96 58 79 50 38 74 47 28 27 42 91 56 39 32 29 29 39 39 52 46 60 90 82 96 96 100 94 90 100 98 99 100 100 100 100 100 97 98 87 97 95 97 97 94
72 52 81 98 57 39 67 51 65 32 85 78 50 50 61 66 38 37 51 66 74 71 100 92 100 100 89 80 90 95 87 96 98 100 99 98 100 98 96 96 87 78 90 92 99
66 71 84 49 37 43 54 97 42 100 62 74 58 53 83 91 57 53 77 74 71 84 100 97 100 100 99 93 85 98 99 100 100 100 97 97 77 68 71 72 74 69 73 78 88
34 28 63 79 60 35 76 97 100 59 69 67 65 79 81 72 66 77 87 98 96 76 100 100 100 100 100 100 98 100 96 96 95 76 81 88 96 98 97 78 84 88 99 100 94
100 70 99 98 99 100 100 100 46 67 90 79 73 72 69 100 97 88 72 98 98 90 91 100 95 93 95 85 92 99 97 97 91 86 78 75 69 75 83 98 100 95 85 95 96
65 65 93 100 99 100 94 40 64 90 97 96 66 70 96 91 78 68 59 57 60 64 60 53 52 56 52 52 53 53 56 76 80 85 83 71 62 58 58 63 68 78 84 86 90
99 93 88 94 98 94 42 54 68 88 98 86 75 92 89 81 76 60 63 48 49 50 55 50 50 50 52 44 41 38 35 37 42 49 57 54 66 59 48 44 47 49 51 57 53
96 94 94 100 73 42 45 49 56 76 77 67 72 67 68 56 56 47 34 35 41 46 53 51 52 53 51 38 32 29 29 28 27 31 32 32 31 38 42 41 38 34 31 29 28
92 40 50 68 44 38 41 47 54 77 66 74 72 61 47 49 54 34 17 18 18 19 24 34 42 47 48 47 35 29 25 22 23 23 23 29 29 30 30 28 30 28 27 32 35
23 29 32 38 39 35 44 52 48 58 58 52 51 48 36 31 23 20 17 20 26 20 18 24 26 30 31 38 42 42 41 40 32 24 24 24 26 23 24 22 24 24 27 29 27

GFSSW_500_rhum_084.txt.gz
RH
24 22 22 21 19 17 14 13 14 13 13 12 13 13 13 10 12 13 13 12 9 10 9 11 13 52 74 75 71 68 58 50 50 43 35 29 24 18 12 8 6 6 7 6 5
33 30 25 27 27 25 22 19 15 16 17 14 14 15 14 14 12 13 14 14 12 12 11 13 13 25 44 66 68 67 62 55 48 44 38 30 23 14 10 8 6 6 6 5 4
47 44 40 34 33 34 32 32 25 22 21 21 18 17 18 16 14 14 15 15 14 12 11 11 16 22 49 53 61 58 56 55 51 45 38 28 19 10 7 8 6 6 6 4 4
58 56 58 55 50 45 41 40 37 32 27 28 26 24 22 22 18 17 17 16 16 15 14 14 14 21 35 43 42 52 52 49 48 42 36 29 15 11 8 7 6 6 5 5 3
78 74 69 72 68 62 54 50 46 42 37 34 33 32 29 28 25 21 18 18 18 18 16 16 14 22 37 33 29 27 29 30 31 30 26 23 21 15 10 8 7 6 4 4 4
94 91 89 89 87 79 69 62 58 54 50 44 38 41 37 34 29 24 23 20 20 21 18 17 41 51 42 37 22 14 17 22 21 20 15 15 20 14 11 10 8 6 5 5 4
96 98 99 97 99 92 90 92 87 72 64 53 48 47 45 40 34 30 26 22 24 24 19 20 50 39 30 26 16 10 14 15 13 9 9 8 12 10 8 15 11 8 7 8 7
96 100 100 99 99 100 100 100 99 98 86 69 60 61 49 46 40 37 34 32 30 24 17 37 48 34 23 14 10 9 10 10 10 9 9 8 11 10 16 21 15 13 20 18 15
87 90 93 96 84 96 100 99 100 100 98 88 73 74 62 55 49 42 38 34 28 20 20 36 30 18 11 9 14 16 30 22 26 26 19 9 7 21 42 30 19 22 23 20 15
19 18 16 14 15 13 28 81 100 100 98 92 84 88 76 52 46 41 37 31 25 19 32 23 13 12 17 19 69 62 57 39 45 66 60 52 28 43 64 36 25 32 30 24 20
91 88 79 44 17 17 16 49 70 75 94 100 87 85 63 41 33 33 30 23 23 32 18 10 18 18 22 92 76 62 50 43 60 76 84 91 51 74 100 67 61 36 43 32 40
100 99 95 100 96 67 31 39 67 94 100 93 93 87 77 40 30 26 27 30 30 12 13 26 40 79 90 73 79 78 65 66 62 82 82 100 64 68 58 66 58 57 47 39 73
99 94 98 100 99 83 95 99 75 87 49 96 100 99 73 33 27 35 39 31 21 32 40 50 62 70 89 90 87 82 70 83 93 94 88 95 60 39 43 92 49 41 85 81 99
99 92 98 82 100 80 72 100 80 85 100 72 85 91 55 36 52 48 36 39 53 62 78 75 75 83 92 87 72 75 66 100 88 48 53 39 46 67 41 32 34 65 97 95 99
100 91 72 94 91 95 68 48 30 99 76 60 84 74 48 55 57 45 50 51 56 70 72 98 87 93 77 74 97 77 93 100 68 83 78 58 76 26 24 30 80 97 92 99 98
97 100 73 97 80 57 98 41 38 52 55 73 74 62 74 72 32 48 45 51 51 63 67 91 87 95 83 79 99 100 100 100 91 76 69 67 98 63 82 96 87 82 77 77 80
100 99 72 80 55 54 84 100 100 96 75 67 76 83 72 43 46 42 49 43 52 59 83 87 99 96 57 75 92 99 100 100 100 100 91 96 97 99 100 99 80 77 65 91 99
99 97 66 53 60 88 71 80 52 74 87 81 73 50 29 35 35 32 50 46 48 71 88 93 95 94 89 94 100 100 100 99 100 98 98 99 99 100 83 98 98 87 71 69 98
92 43 57 40 39 96 88 92 99 100 100 97 38 30 29 30 28 37 55 45 59 97 77 97 96 92 93 83 99 98 99 100 99 100 98 100 100 99 99 94 97 98 98 97 99
51 36 50 40 29 89 100 100 100 79 99 57 53 58 58 41 33 48 59 64 81 96 94 100 100 100 98 96 100 97 100 98 96 100 98 99 96 95 99 97 97 86 91 95 98
31 38 44 97 100 97 84 100 100 100 71 54 71 94 75 44 52 64 58 71 95 100 98 100 99 99 96 97 100 100 98 87 92 95 97 89 70 93 94 94 91 86 85 95 99
20 26 85 100 100 100 100 100 99 85 82 80 97 69 73 89 67 72 85 88 99 95 100 100 97 100 99 100 94 96 90 86 79 84 85 95 80 100 90 85 87 96 97 100 98
95 52 95 100 99 98 100 78 77 84 87 81 88 100 100 94 97 99 100 92 100 100 97 92 88 79 89 92 91 88 86 82 70 64 59 51 48 54 62 74 88 89 94 90 93
100 86 85 75 79 65 64 90 98 100 80 95 98 97 98 94 88 67 88 71 59 62 65 72 66 59 60 55 49 56 65 74 66 63 52 47 48 54 59 63 65 62 53 54 54
99 90 66 50 51 75 93 100 99 66 77 81 86 78 70 70 65 49 57 48 45 36 36 37 38 39 39 37 38 35 40 41 44 42 39 42 51 50 50 46 40 36 35 34 31
83 76 35 56 76 81 80 85 69 59 55 59 56 60 48 50 42 38 25 31 31 35 40 39 33 24 21 24 28 27 28 28 31 34 38 36 35 37 36 34 35 34 32 30 29
30 26 45 60 62 67 77 52 45 44 52 50 40 40 24 19 18 23 22 17 17 21 27 31 31 29 27 28 28 26 22 20 19 18 17 14 15 14 14 13 14 14 15 14 15

GFSSW_500_rhum_087.txt.gz
RH
54 47 41 39 36 33 29 22 20 19 19 16 16 16 14 12 10 9 10 10 11 11 12 10 10 8 7 6 6 7 11 36 60 58 54 53 47 42 38 35 30 26 28 26 22
65 59 49 45 44 43 39 36 29 26 22 23 22 20 20 18 15 14 12 11 11 11 12 12 12 11 10 10 8 8 8 14 41 58 58 56 52 49 42 38 34 21 21 26 23
86 77 64 55 56 55 52 49 46 40 31 31 32 29 25 23 20 21 16 14 14 12 13 13 14 14 13 13 11 9 9 24 32 43 56 55 55 50 46 43 40 34 24 28 24
100 97 90 79 76 76 69 64 60 56 47 41 43 40 35 29 25 24 23 20 18 16 15 15 15 15 16 15 13 9 13 24 35 40 47 52 53 53 51 44 36 30 27 22 26
100 100 100 99 100 97 97 93 79 74 68 57 52 51 43 39 32 34 29 26 24 21 19 17 16 17 18 17 14 13 20 30 33 31 42 48 50 50 48 47 34 27 16 14 11
100 100 99 99 100 100 100 99 98 98 97 80 70 65 56 46 42 42 35 32 28 25 21 20 18 18 18 19 16 17 30 30 25 25 21 38 43 45 40 36 35 21 20 15 10
100 100 100 100 99 99 99 100 99 98 99 98 95 84 70 61 53 50 42 38 34 31 26 23 20 22 20 21 16 20 19 19 21 19 16 20 31 35 33 28 24 21 16 12 10
74 84 93 97 100 100 100 100 100 97 100 100 97 99 97 84 65 56 51 45 38 34 31 27 24 25 22 19 21 21 17 19 16 14 15 18 18 21 20 17 15 18 19 14 11
45 30 25 22 35 70 98 100 98 100 100 100 99 98 96 96 79 69 63 52 41 37 33 29 27 24 17 15 19 24 14 11 12 12 13 14 15 15 17 18 16 11 9 9 10
100 93 80 64 35 16 31 87 98 100 100 100 99 100 98 95 83 84 79 56 41 37 34 32 23 19 23 24 17 9 18 39 64 47 36 25 22 19 11 10 12 14 16 12 11
98 100 100 93 92 48 29 100 84 99 100 100 100 98 100 94 86 84 74 59 44 42 35 23 23 17 9 18 40 59 65 73 48 54 52 60 61 49 18 22 27 30 22 18 14
94 91 97 91 100 100 49 99 76 100 100 72 85 99 99 86 68 69 71 49 41 32 26 19 16 30 60 65 70 72 55 48 61 66 69 84 78 64 76 100 100 66 57 28 27
95 82 85 82 83 100 94 75 84 97 96 90 100 100 98 86 82 59 35 32 31 28 44 44 50 56 63 69 59 54 58 73 53 31 54 91 100 62 93 96 100 99 83 31 44
74 93 81 83 94 99 88 57 100 100 100 100 98 100 94 86 49 44 40 34 27 47 51 47 50 54 70 57 63 67 94 70 55 29 37 46 49 44 42 76 96 92 86 52 78
90 100 69 75 86 97 99 82 98 100 100 100 99 94 89 67 56 52 38 33 45 51 70 69 55 48 72 80 77 97 95 84 76 57 44 59 70 37 48 56 63 40 46 61 92
93 100 80 77 56 100 100 100 100 94 87 100 77 64 73 68 56 49 42 47 44 57 67 63 64 57 63 88 94 97 100 100 85 81 62 90 87 31 26 26 33 64 90 90 92
100 100 64 75 76 98 86 47 46 75 76 63 78 88 78 44 44 41 34 48 49 65 65 65 62 55 59 84 98 100 100 100 100 98 100 91 98 72 89 92 91 94 92 88 94
74 62 63 68 70 54 40 25 52 80 99 98 99 93 55 46 43 42 42 49 52 56 73 60 63 59 94 100 92 100 100 100 100 100 98 97 99 100 93 79 99 100 90 98 98
30 47 59 83 90 75 84 100 100 99 100 100 81 51 40 41 35 40 46 47 47 66 71 74 77 87 91 100 100 100 99 100 88 94 95 97 90 100 100 96 91 100 86 93 99
46 66 50 64 100 96 79 100 100 100 97 96 46 35 31 29 35 45 47 60 89 79 78 88 100 97 100 100 96 100 98 98 99 100 98 100 99 98 99 98 99 99 99 88 98
61 59 80 99 100 97 100 100 100 100 75 61 49 33 26 31 45 47 54 75 81 92 99 95 91 98 100 94 100 97 100 99 92 88 95 96 92 95 98 100 99 97 100 97 99
40 63 96 99 96 85 92 100 97 84 79 81 79 61 43 45 44 53 74 93 84 96 100 99 96 92 87 96 91 88 76 81 84 77 80 88 80 87 99 97 87 79 94 96 96
86 59 62 69 73 88 100 95 77 86 98 82 73 71 57 47 48 58 94 98 93 99 100 98 98 96 82 84 88 88 77 76 70 70 66 65 69 75 86 88 86 83 87 88 84
100 73 66 70 64 68 67 76 78 83 88 96 85 59 60 76 77 88 97 97 92 93 82 76 76 76 79 81 78 75 76 78 67 64 52 46 46 42 59 74 68 62 88 91 92
78 54 44 53 42 49 65 83 93 78 83 81 72 62 56 61 49 51 52 50 56 59 51 51 53 52 47 43 47 52 56 53 52 49 58 61 53 57 60 61 63 63 62 60 55
55 43 40 40 37 53 57 62 68 56 48 40 44 41 38 40 39 42 35 36 33 30 26 24 22 24 33 29 30 30 33 33 35 34 35 34 34 34 35 35 36 32 30 31 29
30 24 27 31 34 36 38 37 45 39 20 17 14 16 15 20 20 18 19 22 26 30 29 27 24 20 18 19 20 20 20 17 16 15 15 15 17 16 13 12 11 10 10 10 9

GFSSW_500_rhum_093.txt.gz
RH
96 92 94 89 84 76 65 58 53 48 45 48 41 32 29 24 21 17 14 12 9 8 7 7 6 7 8 9 10 10 10 10 10 9 8 7 5 5 24 48 52 51 43 36 34
100 100 99 99 98 95 87 82 73 62 56 58 55 42 35 30 25 21 19 16 13 11 10 9 8 7 7 7 8 10 10 11 11 11 10 10 8 7 5 8 52 55 54 48 41
100 100 98 100 98 99 98 98 95 86 73 69 64 54 42 36 32 27 25 22 19 16 14 12 11 9 8 8 8 9 9 10 11 13 13 12 12 9 5 4 7 49 56 52 49
100 100 100 100 100 99 100 99 98 96 99 88 79 63 50 45 42 38 33 28 24 21 18 16 14 13 12 10 10 10 10 11 12 12 13 14 13 10 6 5 5 8 44 61 54
98 98 99 100 100 100 100 100 99 99 100 100 96 79 68 55 52 48 44 40 35 30 28 25 23 21 19 18 18 17 16 16 15 14 14 14 15 13 7 6 6 6 11 47 56
96 78 87 98 100 100 100 100 100 100 99 100 97 97 85 74 62 59 54 48 44 40 36 34 32 30 28 26 24 23 22 21 22 21 20 19 16 15 10 11 9 9 7 22 53
94 100 98 92 90 100 100 100 99 100 100 99 97 100 100 92 81 76 68 61 57 52 48 44 41 38 35 33 32 32 31 30 28 26 26 25 21 16 16 12 10 9 10 16 32
79 100 100 100 87 66 86 100 100 100 100 99 98 100 96 100 100 97 90 81 71 64 59 54 50 46 42 42 43 39 35 30 30 29 29 27 21 19 17 14 11 10 9 11 22
70 92 98 100 97 55 45 70 97 99 99 100 100 98 100 100 100 91 96 92 86 80 75 70 64 60 60 58 48 40 36 33 31 26 24 23 20 18 16 13 10 9 10 10 19
55 68 90 88 97 64 40 62 100 98 94 99 100 100 99 100 98 96 98 98 90 82 77 74 73 69 57 50 44 38 29 23 18 15 13 12 11 11 10 9 8 9 10 12 13
50 64 57 73 68 39 78 99 99 100 100 98 98 100 99 100 100 100 97 93 88 87 80 71 64 55 46 40 30 17 13 12 15 15 24 54 21 57 28 15 28 9 9 11 14
69 72 48 41 64 43 100 100 99 100 100 100 100 100 100 100 100 100 100 90 80 74 66 58 49 38 25 17 14 16 26 29 51 46 28 25 28 39 54 60 44 32 20 13 12
95 76 63 36 67 88 100 100 100 100 100 100 100 100 100 88 96 98 88 75 66 62 48 39 30 21 18 20 20 27 44 53 47 39 36 42 40 62 60 78 52 40 25 18 14
100 78 60 42 82 100 100 100 100 100 100 100 100 100 97 100 94 82 73 67 52 42 32 28 23 20 28 26 28 38 56 62 60 43 51 86 51 80 74 81 98 100 100 80 68
94 68 41 51 98 99 73 86 99 100 100 100 100 100 97 87 78 74 60 46 36 35 31 34 28 29 26 26 34 64 60 74 94 96 80 94 75 84 87 100 100 100 100 100 100
73 66 42 58 97 100 100 100 100 100 100 99 99 100 94 84 74 50 45 39 39 45 43 36 27 26 29 47 59 81 80 79 95 100 100 96 56 49 56 80 92 100 95 76 64
52 51 43 71 97 100 100 97 93 93 83 96 93 90 81 75 58 47 41 39 54 50 48 27 23 40 57 68 77 85 81 74 79 100 99 97 93 28 35 47 63 46 60 62 81
49 49 78 70 76 91 87 53 57 72 90 100 99 88 74 63 57 44 47 58 60 54 41 36 40 45 50 63 79 90 94 81 87 100 100 100 98 76 67 64 77 93 87 80 86
55 52 55 34 68 68 87 100 86 89 87 83 80 80 69 55 43 46 57 52 57 53 66 43 58 66 72 85 95 97 100 92 98 98 99 93 96 95 98 98 98 97 97 99 96
34 41 55 49 44 45 84 64 56 57 74 76 62 60 52 44 42 53 51 58 57 63 59 63 84 96 87 94 98 100 98 98 99 100 100 99 97 94 97 97 99 98 99 99 98
86 59 30 34 41 55 52 44 37 82 83 68 52 39 41 48 51 71 66 68 68 66 71 94 97 96 100 96 99 100 100 97 100 99 98 98 100 100 100 96 97 98 98 98 98
79 70 69 78 76 82 68 50 72 83 53 41 38 49 59 70 89 90 72 71 83 84 86 97 98 99 99 92 91 94 97 97 94 100 99 99 100 98 100 94 93 97 100 99 98
62 60 59 60 55 44 38 33 30 30 33 49 58 73 78 87 70 75 78 85 89 91 88 81 83 90 83 70 63 68 66 74 84 86 90 98 95 90 87 93 97 99 89 78 71
54 42 46 46 38 33 32 28 32 45 54 49 51 75 83 73 68 78 89 92 90 79 72 72 71 63 58 43 46 36 42 36 40 45 49 48 62 82 83 82 89 93 90 87 87
36 38 37 40 34 34 37 38 41 45 56 66 64 66 70 70 72 78 68 57 51 53 50 48 46 43 38 36 31 20 16 18 25 32 27 28 31 27 34 37 46 45 44 51 56
18 20 21 23 30 32 35 36 34 30 34 41 49 55 56 50 52 50 45 37 34 34 31 28 25 26 31 30 30 26 24 20 22 18 14 16 16 12 8 10 14 16 12 10 9
10 13 15 16 17 17 18 16 14 14 14 16 19 21 17 19 22 25 22 21 20 23 23 18 13 10 9 9 9 10 10 9 9 9 7 6 6 6 8 10 11 12 14 16 19

GFSSW_500_rhum_096.txt.gz
RH
10 46 98 100 98 100 100 94 75 49 36 36 36 38 40 34 24 26 21 12 10 9 7 5 6 6 5 6 6 6 6 7 9 9 9 10 10 9 8 7 4 11 36 40 38
19 14 18 71 100 99 96 100 97 86 58 45 44 43 41 45 37 27 26 24 19 15 13 10 8 7 6 6 6 6 6 7 8 8 8 9 11 12 11 9 7 6 4 23 44
26 22 15 20 91 100 98 100 100 98 96 78 62 52 48 52 51 40 33 27 23 21 18 15 13 9 8 8 7 7 7 7 8 8 8 9 10 10 11 12 13 9 5 4 5
24 23 20 17 35 100 100 94 98 99 99 99 99 80 62 56 58 51 42 33 28 24 20 18 17 15 13 11 10 8 8 9 9 10 10 10 11 12 12 10 15 15 10 5 4
32 19 19 28 45 90 100 98 93 99 99 99 100 97 94 71 67 62 51 42 35 30 26 23 21 20 18 15 13 12 13 13 12 14 15 15 15 15 11 14 17 17 16 10 6
21 30 45 90 68 88 100 100 88 97 99 100 99 98 98 96 94 73 61 50 45 41 37 32 29 26 23 22 21 20 21 21 20 20 20 20 18 16 15 16 14 15 16 16 9
29 40 51 73 100 100 100 96 100 86 100 100 100 100 100 98 100 92 72 60 51 47 44 41 38 36 34 31 28 26 24 24 26 26 24 21 20 21 20 19 16 14 14 19 16
47 41 53 62 96 100 100 92 100 99 100 99 100 99 100 99 98 98 94 74 60 54 52 50 48 47 46 44 43 41 38 35 38 36 34 30 25 26 25 21 16 11 12 18 18
74 42 41 69 85 100 96 94 100 100 100 99 100 99 100 100 100 97 96 92 76 71 68 65 62 58 58 58 56 52 52 46 45 39 34 30 21 21 17 14 11 8 13 18 20
93 38 44 74 84 95 70 97 100 100 98 94 100 100 99 99 99 99 96 99 99 96 93 84 73 69 64 58 54 50 43 37 32 27 21 17 14 12 12 9 8 11 13 12 12
98 41 38 49 68 91 61 100 99 100 100 100 98 99 100 100 92 75 83 92 97 96 97 85 67 58 58 54 50 40 32 24 17 14 13 13 15 16 21 16 16 14 9 8 8
82 55 41 40 66 78 98 100 94 100 100 100 100 100 100 100 100 100 100 98 93 83 70 64 57 54 50 43 32 21 16 13 15 17 17 23 31 32 40 21 21 38 38 31 18
98 64 52 41 86 97 100 100 100 100 100 100 100 100 100 99 98 98 94 87 80 70 65 56 50 42 31 21 17 14 16 21 24 27 38 44 48 61 51 65 59 56 57 40 26
98 54 42 52 90 100 100 100 100 100 100 100 100 100 94 83 92 96 81 76 72 63 56 45 36 27 20 16 16 20 29 35 43 51 68 87 66 65 85 97 83 96 96 72 52
46 28 49 96 100 100 100 100 100 100 100 100 100 81 74 86 86 85 82 69 64 55 41 34 26 19 19 19 27 37 35 44 53 64 75 99 100 61 59 96 100 100 100 100 100
29 66 97 100 100 100 100 100 100 100 94 100 100 100 93 88 89 82 68 62 49 38 33 30 22 21 25 36 36 37 55 55 53 63 92 86 91 92 46 71 100 100 100 99 93
62 81 89 99 84 88 94 97 100 96 77 94 89 92 95 80 75 70 50 41 43 44 39 26 22 27 48 42 41 54 73 75 68 80 93 95 92 60 30 45 83 82 70 77 83
89 84 77 74 76 68 70 82 83 79 84 87 88 90 93 76 54 47 38 48 47 40 29 34 42 50 42 47 71 91 94 82 78 91 99 100 95 94 76 67 83 86 96 99 100
36 44 61 57 32 52 78 80 62 80 71 76 82 81 62 56 46 48 52 51 47 50 55 45 44 49 54 69 81 90 98 99 92 94 98 98 99 98 99 98 96 98 99 100 98
25 25 37 37 28 26 66 68 70 79 82 82 70 59 46 43 53 56 50 61 63 70 60 54 69 72 80 82 80 96 94 94 95 97 98 99 98 99 98 98 98 98 97 99 98
41 30 19 23 27 46 35 34 55 60 59 60 50 38 39 53 51 61 70 79 73 61 70 80 86 98 94 97 100 100 99 99 100 100 100 97 99 99 99 99 100 96 98 95 97
48 42 46 28 29 23 28 37 55 55 37 39 46 58 63 67 71 86 82 68 68 77 88 89 93 91 90 78 78 81 89 90 94 100 95 97 97 95 97 99 98 78 90 96 97
24 28 32 40 42 36 42 42 39 40 53 72 68 69 75 75 76 84 82 78 78 87 89 86 81 78 68 56 54 56 53 47 50 58 76 86 90 89 93 91 100 97 92 94 100
24 27 29 31 36 43 50 56 57 63 79 87 77 69 66 67 82 88 82 74 65 64 66 62 53 38 34 31 28 24 20 30 28 32 37 43 50 62 78 85 70 65 75 84 87
24 30 35 38 42 48 55 64 72 75 72 65 54 63 78 80 65 53 50 53 54 50 44 38 27 16 11 12 13 12 15 15 14 13 20 21 19 18 18 28 44 50 43 34 34
11 13 17 19 23 29 36 40 46 51 53 52 48 51 52 46 40 36 34 33 34 26 23 19 14 13 12 12 9 9 9 8 9 9 9 10 10 7 8 8 11 18 16 13 10
7 7 8 9 10 11 12 16 17 17 16 16 18 23 25 23 24 21 19 19 15 14 13 12 12 9 7 7 7 6 6 6 6 5 5 5 6 7 10 10 11 13 15 16 17

GFSSW_500_rhum_099.txt.gz
RH
28 24 22 23 19 17 60 98 98 91 59 44 37 29 31 30 31 26 19 18 12 6 5 5 5 5 6 6 6 6 5 6 6 7 8 8 9 8 8 9 7 6 6 6 12
64 34 29 30 29 25 20 43 96 98 97 69 51 42 36 37 36 36 32 23 20 17 8 6 5 5 5 5 5 5 6 6 6 6 6 7 7 7 8 8 9 8 7 7 6
71 62 48 34 28 29 25 21 21 100 99 98 91 67 55 49 42 40 40 36 28 25 21 13 9 8 8 7 6 6 6 6 6 6 6 7 7 7 8 7 7 7 7 7 8
66 44 37 29 23 24 23 20 18 18 99 98 99 97 88 64 64 45 42 42 38 28 27 24 21 16 14 12 11 9 8 7 7 7 7 7 8 9 8 8 10 9 6 6 5
29 34 31 22 19 18 24 17 20 16 35 100 99 97 99 95 68 51 50 49 46 39 32 27 24 21 19 17 15 14 12 11 9 9 8 8 9 9 10 12 10 10 8 7 6
92 53 28 27 25 26 50 38 91 31 39 79 100 97 100 100 96 77 54 55 52 48 41 34 29 25 22 20 19 18 16 14 13 13 12 11 12 12 14 14 15 14 13 11 10
100 78 35 36 30 45 97 100 98 99 88 86 100 94 100 97 100 97 82 72 63 55 48 41 35 32 30 28 26 24 22 22 20 18 18 14 15 19 21 17 14 14 15 17 14
96 68 46 32 47 61 88 100 100 100 95 92 100 99 100 99 98 99 93 97 85 67 56 48 44 40 38 37 34 34 33 33 31 30 26 25 24 34 25 20 17 18 21 19 15
86 96 61 37 56 60 93 90 97 100 84 100 100 100 100 100 100 100 95 89 96 84 68 59 53 49 46 44 45 47 46 47 46 41 38 38 34 32 28 25 22 22 21 19 17
100 81 33 43 65 58 88 96 100 97 94 100 100 100 100 100 98 99 97 99 97 97 94 79 64 61 58 58 59 58 56 48 41 35 31 26 21 18 16 14 12 12 12 12 13
93 60 36 32 58 71 94 100 100 96 100 100 100 99 100 100 98 88 88 97 96 99 96 93 89 87 83 75 62 51 42 35 30 24 19 15 13 11 10 10 10 9 9 8 7
64 45 46 45 58 83 97 99 100 100 100 100 100 100 100 100 99 88 86 89 96 98 93 94 88 81 68 52 41 36 33 24 20 15 11 12 18 19 30 34 28 29 21 16 18
53 42 44 37 65 82 92 100 100 100 100 100 100 100 100 100 97 93 81 80 94 89 85 80 69 54 46 40 36 29 20 14 11 14 29 32 37 43 43 51 40 51 56 59 49
56 63 59 82 95 99 100 100 100 100 100 100 100 100 100 100 92 94 80 80 83 80 69 59 47 44 41 30 19 14 12 17 28 29 30 40 35 60 56 49 39 72 80 98 100
99 100 100 91 100 100 100 100 100 100 96 100 99 96 94 92 85 90 92 86 75 63 54 53 46 37 24 16 14 18 32 37 32 35 36 50 46 70 65 38 49 79 98 99 100
85 91 97 85 95 100 100 94 100 100 93 100 97 99 100 100 99 89 77 74 66 60 53 39 34 22 19 20 31 38 40 55 52 44 37 53 58 70 59 41 72 91 98 96 100
43 53 93 100 92 86 98 97 99 70 93 94 88 80 87 89 88 85 75 67 57 44 35 27 22 20 24 39 40 56 62 50 50 52 55 63 83 93 90 66 44 66 87 88 94
46 47 65 91 99 84 90 97 66 65 80 100 100 100 100 95 81 72 54 43 41 33 25 24 24 40 45 51 64 63 57 59 61 64 65 82 92 98 99 98 93 97 95 90 93
26 50 70 84 87 90 97 76 45 73 83 94 94 87 78 67 54 44 40 37 32 29 31 40 44 52 62 58 58 59 55 60 70 74 84 89 98 100 98 100 100 97 97 98 98
30 22 42 43 54 71 80 40 58 67 69 78 80 70 49 42 42 41 38 38 42 51 67 77 75 68 60 59 61 65 64 70 68 72 82 93 98 99 98 98 100 100 99 98 99
30 22 26 32 42 45 24 34 52 54 58 51 46 43 45 44 43 45 51 64 71 80 93 81 70 72 77 83 82 89 90 90 84 92 92 90 98 98 99 99 100 100 98 98 98
19 20 24 31 37 19 23 26 30 38 44 38 39 40 43 50 61 71 62 74 93 89 81 75 72 64 59 63 68 62 62 72 89 96 97 95 98 95 99 98 100 100 100 100 100
32 32 38 47 29 26 28 34 38 44 48 45 49 64 80 82 68 69 90 88 88 86 80 69 58 50 41 34 29 28 32 38 39 45 54 60 77 82 86 92 96 97 98 99 98
33 35 42 44 46 48 44 45 45 45 52 61 64 73 74 72 76 77 77 72 67 59 48 36 25 19 19 14 13 13 12 15 16 20 25 22 22 34 63 68 65 66 61 62 70
23 24 30 34 38 40 38 38 48 48 50 60 65 67 59 51 52 54 53 47 39 34 25 17 13 13 11 10 11 10 10 9 9 10 10 14 13 11 13 18 25 27 31 30 22
12 17 20 26 29 31 42 43 42 45 48 47 45 41 36 34 32 33 32 27 21 18 13 12 10 9 9 8 7 6 6 6 6 6 7 8 6 6 7 7 8 8 8 8 9
6 6 8 12 15 14 15 15 15 16 19 20 21 20 17 16 15 15 14 11 10 9 9 9 8 8 6 5 5 5 5 5 5 5 5 6 7 10 12 10 10 12 13 14 15

GFSSW_500_rhum_102.txt.gz
RH
73 75 81 72 39 19 12 12 69 98 98 92 60 42 31 25 27 27 25 21 16 9 6 5 5 5 5 5 6 6 6 6 6 6 6 6 7 7 7 6 7 6 6 7 7
85 100 100 86 78 38 22 22 13 32 100 98 96 66 44 32 34 31 30 28 22 18 11 6 5 5 5 5 5 5 5 5 6 6 6 6 6 6 7 6 7 6 7 6 6
64 88 99 100 83 88 41 24 27 24 26 96 98 97 71 52 42 34 33 31 29 24 22 14 8 5 5 5 5 5 5 5 5 5 6 6 6 6 6 7 8 7 6 6 5
33 58 100 99 78 62 62 39 29 26 26 20 90 99 98 80 58 40 37 35 34 32 28 26 18 10 6 5 6 6 6 6 6 5 5 6 6 6 6 7 7 7 7 6 6
88 84 45 33 34 28 26 27 32 30 28 23 37 100 99 99 88 61 44 41 39 38 36 31 27 24 16 10 8 8 10 10 9 8 7 6 7 7 7 7 8 8 8 8 7
97 76 92 62 31 23 26 22 22 25 28 23 19 98 100 99 99 95 68 52 44 45 42 38 32 28 25 23 19 17 16 15 14 13 11 9 10 9 10 9 9 9 10 10 10
96 96 81 53 34 33 26 27 19 27 28 18 19 53 100 96 100 87 80 69 62 51 50 46 42 34 29 26 24 22 20 18 17 16 13 13 13 13 11 9 9 10 12 12 11
100 95 89 53 41 26 25 80 52 100 98 34 19 61 100 100 100 100 97 96 84 70 56 54 51 44 38 32 29 27 26 25 24 22 20 21 22 22 19 18 18 16 14 13 13
100 93 94 74 27 45 44 66 87 100 96 70 84 100 100 99 99 100 96 97 96 92 79 65 58 51 45 39 35 33 33 35 34 33 36 39 41 36 32 29 27 25 24 23 22
95 87 70 33 31 54 74 98 94 79 87 100 100 100 100 100 99 96 96 91 97 97 96 90 82 64 53 47 44 44 43 44 44 44 48 44 37 31 27 23 19 16 16 15 15
50 54 38 33 31 55 58 82 100 99 100 100 100 100 98 100 100 100 100 98 94 84 89 92 92 88 73 57 53 53 55 57 53 47 34 26 22 18 13 11 10 8 8 8 7
43 37 34 34 45 41 61 89 100 100 100 100 100 100 100 100 100 100 100 100 98 96 88 96 97 95 89 78 75 68 59 46 35 26 19 14 10 9 11 15 18 22 26 27 29
68 33 33 35 42 48 85 100 95 100 100 100 99 100 100 99 98 95 86 85 94 91 93 96 96 92 83 73 63 48 37 30 21 14 9 8 9 21 27 32 36 41 46 40 34
96 94 89 99 96 100 100 100 99 100 100 100 100 100 100 100 100 98 93 89 90 98 94 89 86 74 60 54 41 32 23 15 10 12 19 23 17 33 38 43 51 39 40 42 54
79 86 99 100 83 95 100 100 100 100 97 100 100 97 94 98 95 98 94 91 91 87 83 79 66 54 48 37 26 17 11 14 21 25 35 34 31 38 39 55 79 52 69 66 67
55 73 72 88 98 98 96 100 99 86 92 100 96 100 100 100 100 93 88 90 92 83 72 61 51 41 31 21 14 16 23 26 42 46 46 38 46 56 50 72 99 81 68 80 75
53 66 72 73 88 96 99 94 75 45 80 97 100 100 100 99 98 92 95 86 77 64 55 44 35 28 19 14 26 29 56 59 54 49 40 39 48 58 66 81 76 95 94 70 80
62 63 80 69 68 72 79 89 53 65 78 100 100 100 100 100 97 87 73 66 53 44 37 28 20 15 24 34 50 64 55 43 41 43 49 60 64 67 73 78 77 84 99 97 94
54 62 71 72 70 80 81 62 52 71 78 83 87 88 83 71 61 55 48 40 33 25 20 17 28 44 54 56 52 52 46 51 52 55 61 63 74 81 84 91 96 97 96 91 93
22 20 29 41 64 79 47 25 41 59 69 61 54 54 50 46 40 36 31 24 20 28 43 44 60 61 56 59 56 54 58 60 61 60 67 72 79 83 88 89 90 94 91 91 90
17 15 21 30 58 50 16 18 35 49 47 42 41 37 35 32 34 41 43 47 54 58 67 75 72 67 64 62 65 63 70 68 70 74 81 80 89 86 93 96 96 98 100 100 100
14 15 23 30 28 15 18 33 38 39 38 35 35 36 35 43 56 64 66 68 76 76 75 69 63 64 61 49 34 34 32 39 50 60 66 72 77 72 78 87 88 94 98 97 96
30 25 33 40 24 24 26 28 30 35 38 44 48 55 59 72 79 82 77 76 70 65 56 46 36 25 19 16 14 12 13 15 17 22 20 25 40 49 64 63 58 70 63 62 62
32 31 31 30 31 37 43 48 49 56 56 62 58 59 62 69 71 66 66 62 52 36 26 21 16 14 12 10 9 8 7 8 8 10 12 15 15 12 19 33 34 25 31 39 41
22 22 24 24 25 30 35 35 47 49 49 51 46 48 47 50 49 40 37 34 27 19 14 13 10 9 9 9 8 7 6 6 6 6 6 8 8 7 8 9 11 13 12 12 12
14 15 16 14 17 18 22 23 28 31 29 30 30 29 30 29 28 23 18 16 14 13 11 10 10 10 9 5 4 4 4 5 5 5 5 5 7 9 11 10 10 10 10 11 12
7 7 9 11 12 12 12 13 14 14 15 16 15 14 14 14 13 12 12 12 13 13 12 11 7 5 5 5 5 6 6 6 7 7 9 11 12 14 15 16 16 14 15 15 15

GFSSW_500_rhum_105.txt.gz
RH
51 69 67 78 78 72 77 46 17 32 91 99 99 78 46 30 25 23 23 19 14 8 5 4 5 4 5 5 5 5 5 6 6 6 6 7 7 7 8 8 8 8 8 8 8
26 24 27 64 87 91 99 74 56 15 60 89 99 98 76 48 32 27 25 24 20 15 8 5 5 5 5 5 6 6 6 6 6 6 6 6 6 6 6 6 7 6 5 4 4
52 42 35 24 100 100 98 100 79 31 17 79 96 100 99 75 46 32 29 28 25 22 15 9 5 5 5 5 5 5 6 6 6 5 5 5 5 5 5 6 6 6 5 5 5
73 77 73 44 94 100 100 100 91 36 22 19 100 100 98 98 75 42 33 32 29 26 22 17 10 6 5 5 5 5 5 5 5 5 5 5 5 5 5 5 5 6 6 6 6
86 93 100 100 97 100 100 98 95 81 25 24 30 100 100 97 93 73 39 37 35 31 28 24 19 13 8 6 6 5 5 5 5 5 5 5 5 5 6 5 6 6 6 6 7
84 96 93 100 100 68 67 58 39 84 50 24 25 58 100 100 96 96 74 44 38 37 34 32 29 25 20 13 9 8 7 6 6 6 6 8 8 8 8 8 7 7 7 7 7
97 94 90 86 63 47 25 24 24 40 58 28 26 25 76 100 93 100 98 87 44 41 41 39 38 35 31 27 23 19 15 12 10 9 9 11 14 13 12 11 11 10 10 9 9
100 100 88 62 34 32 33 28 23 22 30 30 29 25 24 96 99 99 100 98 86 49 47 45 44 43 40 36 32 29 26 24 22 19 18 17 16 13 14 14 14 13 14 17 17
100 98 92 71 54 32 33 25 23 37 60 41 29 25 40 95 100 100 98 100 99 90 62 52 51 51 48 45 40 35 32 29 26 25 23 23 24 24 24 27 30 30 29 30 29
41 67 69 80 42 27 26 29 63 100 98 46 36 26 88 96 99 99 99 97 97 92 94 88 65 60 56 53 48 44 40 37 34 32 32 32 38 43 38 39 36 32 27 24 21
36 43 38 28 29 50 84 85 98 98 94 71 100 72 99 95 100 99 98 99 98 98 96 98 96 91 84 80 66 56 50 45 42 40 42 46 46 39 33 26 20 16 11 9 8
78 85 50 44 49 64 84 100 93 100 82 100 100 100 100 100 97 98 100 99 93 95 91 96 99 99 95 94 93 91 83 68 58 54 50 39 28 22 15 10 8 8 9 10 11
66 36 39 41 44 58 88 99 99 100 100 100 100 100 100 100 99 99 100 99 92 95 94 93 99 97 90 94 92 85 78 67 53 39 26 18 12 9 10 11 14 20 28 36 42
78 90 99 100 94 96 96 100 100 100 100 100 100 100 100 100 100 100 100 100 97 97 98 95 92 89 86 80 75 62 55 39 27 17 11 9 8 13 17 24 29 37 52 59 70
77 89 100 74 70 86 96 100 100 100 100 100 100 99 95 93 94 97 98 95 94 100 99 100 99 91 82 70 57 46 30 19 11 10 16 22 23 32 32 36 41 44 59 70 73
83 88 81 55 67 93 98 100 96 96 97 100 100 100 100 100 97 98 100 99 100 100 99 94 88 77 66 50 36 24 14 10 18 28 28 33 40 37 38 46 47 44 50 67 67
73 83 97 90 85 81 73 74 78 69 98 100 100 100 100 100 100 100 100 98 92 87 83 73 59 48 38 27 18 11 16 30 33 37 47 48 41 41 61 58 60 52 54 67 60
60 65 71 84 98 82 69 77 63 81 88 98 100 100 100 98 95 95 89 79 72 58 53 44 32 30 21 16 17 25 46 43 45 47 45 44 52 57 60 61 64 63 66 68 78
32 32 40 59 66 71 80 64 72 86 94 92 89 96 96 88 75 69 60 52 46 40 30 23 20 15 20 24 46 52 46 48 49 45 50 58 60 66 70 69 69 76 77 72 81
18 22 31 40 56 49 43 34 50 54 58 62 58 57 54 49 46 42 34 30 21 20 19 21 27 37 49 53 52 54 56 55 50 52 57 62 70 71 79 84 83 85 86 92 95
21 16 28 50 50 36 21 20 20 28 34 34 36 33 31 31 28 28 22 19 26 31 40 49 56 60 70 68 63 58 57 59 63 56 60 57 59 62 69 71 74 72 73 71 69
26 23 29 36 40 28 27 27 27 27 28 26 26 32 38 40 39 41 44 57 68 75 79 78 75 70 52 36 26 21 20 23 26 29 35 40 39 36 34 43 53 65 61 60 56
28 28 35 44 32 30 32 34 35 38 42 46 48 55 67 74 71 77 74 71 71 58 49 45 26 16 12 10 9 8 7 7 12 14 15 16 15 13 11 13 17 22 23 26 30
24 29 36 40 33 37 35 41 43 48 56 66 73 76 75 74 72 68 66 57 36 24 16 12 10 9 9 9 8 7 6 5 6 6 6 7 8 6 6 7 8 8 9 9 9
17 16 20 23 26 31 32 31 35 38 41 44 47 50 43 42 44 34 28 22 18 14 11 10 9 10 9 6 5 5 5 5 5 6 6 5 5 7 9 9 9 10 11 12 12
8 10 10 12 14 15 19 19 18 18 20 21 23 24 21 17 14 12 12 11 11 11 12 11 9 6 5 5 5 6 6 6 6 6 7 9 11 13 14 15 15 15 15 15 14
9 8 7 6 8 10 11 11 12 12 14 14 13 13 14 15 16 15 15 14 13 8 7 6 6 7 8 9 9 9 11 11 10 11 12 12 13 13 13 14 14 14 15 15 15

GFSSW_500_rhum_108.txt.gz
RH
30 32 93 100 100 85 54 65 49 39 19 40 100 97 84 48 24 19 17 13 10 7 5 4 4 4 5 5 5 5 6 6 7 9 8 8 8 8 8 8 8 9 10 13 12
58 38 31 66 66 39 68 74 81 71 60 22 78 99 100 78 41 23 20 17 13 10 7 5 4 4 4 5 5 5 5 5 6 6 6 6 6 7 8 8 7 7 7 7 7
85 68 51 40 32 32 26 74 84 85 69 52 24 86 100 97 72 35 24 21 17 13 9 7 5 4 5 5 5 6 5 6 5 6 6 6 7 7 6 6 6 5 5 5 5
100 99 94 78 58 39 32 33 80 86 90 68 27 92 100 99 97 58 32 24 21 17 12 10 7 5 5 5 5 6 6 6 6 6 6 6 6 5 5 5 5 5 5 5 5
99 77 71 78 88 68 47 87 97 100 85 82 43 59 100 100 97 78 47 29 25 23 18 13 10 7 6 6 5 5 6 6 6 6 6 5 5 5 5 5 5 5 5 5 5
94 96 84 83 100 100 100 100 100 100 99 85 53 45 100 100 100 96 92 50 29 26 24 20 15 11 8 7 6 6 6 6 6 5 5 5 5 5 5 5 6 6 7 7 7
97 78 87 98 100 100 100 100 98 99 100 85 24 22 99 100 100 97 99 93 42 31 28 26 22 17 12 10 8 7 6 6 5 6 5 6 6 5 6 6 7 9 10 9 9
100 100 76 55 52 46 36 37 39 49 95 68 25 23 99 100 100 100 99 97 86 39 34 31 28 25 20 18 16 14 12 10 10 9 9 9 11 8 12 12 13 12 11 11 10
76 100 98 62 63 39 32 28 24 24 52 94 25 25 68 100 100 99 95 98 97 71 41 37 34 32 31 30 29 28 27 26 23 23 22 22 21 19 18 19 20 20 20 23 24
41 62 89 100 66 33 32 22 19 23 39 74 27 39 41 100 100 100 100 99 88 96 67 45 41 39 38 39 38 39 39 37 34 33 33 32 32 31 30 29 29 31 30 32 32
44 29 35 36 39 35 36 24 24 31 38 63 34 35 49 98 100 100 100 89 87 98 100 81 56 50 46 48 48 47 48 48 46 45 45 44 43 43 43 43 39 35 31 24 18
75 58 44 53 56 85 67 77 100 74 83 88 38 55 49 72 81 96 100 100 94 98 97 97 95 83 69 67 66 60 57 56 61 74 77 69 64 54 41 32 25 18 14 9 8
86 80 72 82 86 100 92 99 100 81 100 100 60 60 82 100 100 99 98 99 99 99 97 92 95 94 94 92 88 80 72 69 71 67 58 52 38 28 19 14 10 8 8 18 30
62 53 79 89 84 94 96 97 99 100 100 100 100 100 100 98 96 97 97 100 100 96 90 88 85 88 85 81 77 67 77 66 59 52 39 23 17 11 8 8 10 16 22 31 40
89 90 77 93 100 100 100 98 100 100 100 100 100 100 97 95 99 100 98 98 98 96 91 92 84 88 87 76 70 74 68 58 42 23 13 7 8 11 17 24 26 31 35 38 44
85 95 99 92 83 89 78 93 100 95 92 100 99 100 100 100 100 98 100 97 97 90 93 82 80 82 80 76 74 67 45 27 16 10 8 13 22 30 32 37 52 49 49 46 51
87 95 78 94 88 87 88 89 89 73 95 96 96 96 94 99 99 99 100 99 98 96 99 97 94 92 82 63 40 28 21 12 12 22 23 33 36 44 50 54 61 59 57 57 56
54 74 96 77 89 86 75 72 66 89 96 99 100 100 100 100 100 100 99 98 98 93 90 68 56 45 36 26 20 14 12 24 32 33 37 45 50 47 59 58 61 59 57 42 46
28 50 60 79 77 95 86 60 68 84 93 96 97 100 98 99 97 92 81 69 59 53 44 34 30 26 20 15 13 24 43 42 41 39 42 50 54 60 61 68 68 64 58 57 58
33 24 32 44 49 46 42 44 75 80 90 87 82 82 79 72 55 48 44 40 33 27 23 20 16 15 25 36 44 47 53 50 44 45 52 51 49 50 58 62 59 59 59 57 55
25 23 29 31 37 33 18 22 30 35 38 27 34 33 35 31 25 24 20 18 18 18 20 20 30 44 54 54 58 64 58 55 54 52 44 31 32 27 24 27 41 52 54 52 48
27 27 29 34 35 22 21 22 21 28 32 26 23 23 21 21 20 21 28 34 32 35 45 48 55 60 53 43 24 22 20 21 24 23 21 18 15 13 12 10 11 13 12 11 13
23 27 35 44 42 44 49 50 46 46 49 52 46 46 44 46 51 58 63 65 64 64 62 48 23 14 10 10 9 8 8 6 8 13 11 10 9 8 6 6 7 7 8 8 9
14 16 25 38 40 45 50 56 61 66 65 66 60 57 58 58 56 46 36 26 18 13 11 10 9 9 9 8 7 6 5 5 5 5 5 5 5 7 9 10 10 12 13 12 12
8 9 10 12 16 18 23 27 33 39 39 33 32 36 32 26 19 14 13 12 11 11 11 10 9 6 5 5 5 5 5 5 5 5 5 7 10 10 11 12 12 12 12 12 12
8 6 7 7 8 10 10 11 13 13 14 15 16 17 16 13 13 13 13 13 13 9 8 6 6 6 7 8 8 9 10 9 9 10 10 11 11 12 12 12 13 13 14 14 15
12 12 12 12 10 8 7 6 6 7 7 7 8 9 7 7 6 6 6 6 7 7 8 10 11 12 11 11 11 10 9 10 11 12 12 13 14 15 15 15 16 16 16 17 18

GFSSW_500_rhum_111.txt.gz
RH
99 94 52 51 100 74 92 83 58 32 30 29 24 70 100 83 60 28 17 11 8 7 6 5 5 5 6 6 8 12 15 18 18 20 27 30 29 28 27 26 24 23 21 17 13
94 95 84 52 85 100 100 100 94 42 32 31 29 49 100 92 82 44 22 15 10 7 6 6 5 5 5 5 5 8 9 10 10 10 15 16 14 13 10 8 8 8 8 8 8
97 86 92 46 74 100 100 89 99 60 60 34 25 66 88 100 91 76 32 19 14 9 8 7 6 5 5 5 5 6 6 6 6 6 6 6 6 6 6 7 8 8 7 6 6
100 100 97 80 50 42 60 56 53 48 68 62 40 32 99 100 95 86 58 24 18 14 10 8 7 6 5 5 5 6 5 5 5 6 6 6 6 6 6 7 7 6 5 5 5
88 82 64 63 78 74 63 44 31 28 71 84 75 60 45 100 100 92 87 46 22 18 14 9 7 6 6 5 5 5 5 5 5 5 6 6 6 6 7 6 6 5 5 4 4
87 89 59 58 77 76 72 67 51 52 62 80 82 63 45 90 100 100 95 73 34 21 18 15 10 7 7 6 6 6 5 6 6 6 6 6 6 7 6 5 5 5 4 5 5
95 76 40 54 85 96 73 90 66 99 87 96 88 76 55 52 100 99 100 94 65 25 21 18 15 10 8 8 7 6 6 6 6 6 6 6 6 6 5 5 5 5 5 5 5
100 94 43 52 87 92 100 100 100 94 74 82 78 70 64 44 99 99 97 96 90 37 25 21 19 14 10 9 8 7 7 7 7 6 6 6 6 6 6 6 6 6 6 8 8
92 100 89 45 40 37 95 90 86 84 83 88 93 62 52 74 98 100 100 98 99 67 30 26 24 21 17 14 12 10 9 8 8 7 7 7 8 9 13 15 17 17 17 22 23
39 85 100 72 40 32 30 24 31 57 99 100 68 56 68 94 97 99 95 98 100 92 70 31 28 26 24 21 19 17 16 16 15 17 20 21 25 22 24 25 29 33 35 37 39
44 29 47 62 42 36 26 19 30 39 91 69 53 42 92 97 99 100 100 99 100 98 94 65 34 30 29 28 27 27 28 28 27 32 32 30 33 35 34 42 46 50 43 34 29
91 72 61 36 29 22 26 22 44 53 85 39 46 72 100 100 100 95 100 97 100 100 100 86 55 38 34 33 33 33 33 33 35 36 34 35 46 55 55 51 40 33 26 19 14
73 80 80 62 42 41 35 49 51 78 79 36 76 94 100 98 100 94 100 97 88 93 96 98 75 62 48 39 37 38 38 40 50 56 59 59 50 44 39 31 21 15 11 8 7
87 72 75 68 69 76 76 98 98 98 70 63 100 100 100 100 100 100 100 100 95 94 99 97 93 85 78 72 66 66 69 67 58 56 53 52 38 31 19 11 9 8 10 17 21
96 76 68 59 68 62 94 94 100 96 93 100 100 100 97 93 87 98 98 94 100 100 100 94 82 71 69 67 69 72 64 62 56 51 44 29 16 10 10 10 15 20 25 30 28
96 84 61 74 79 60 73 92 100 78 93 100 98 100 100 100 96 87 90 86 98 95 83 72 73 73 71 70 73 68 66 60 49 28 14 9 9 16 23 20 24 32 43 46 45
97 98 99 80 77 66 72 93 95 73 100 99 98 96 100 100 100 100 100 98 93 87 80 73 71 68 72 72 69 64 49 28 16 10 10 19 22 24 36 41 43 48 48 46 41
60 86 83 94 93 85 72 71 55 81 87 99 100 100 100 100 100 100 100 95 93 89 82 78 71 75 75 58 43 29 18 12 9 21 23 24 34 40 52 60 58 50 49 46 42
24 36 70 92 98 100 79 63 65 70 74 88 92 100 98 97 97 99 98 95 88 82 70 62 51 44 33 23 16 12 13 24 29 26 28 40 48 50 58 61 52 46 51 59 58
25 23 28 37 60 56 42 40 74 99 98 97 88 97 92 86 78 72 64 58 50 37 31 25 19 15 13 13 15 29 32 36 36 34 40 43 46 42 36 35 42 43 42 37 42
36 27 34 34 32 32 19 19 28 38 43 34 34 33 35 32 29 30 24 23 20 19 15 13 18 26 29 35 36 40 42 40 44 46 44 37 31 16 12 11 10 9 8 8 9
32 36 43 50 53 42 44 42 37 38 30 23 23 22 21 22 21 21 20 20 19 23 28 38 46 46 42 37 28 24 23 27 33 34 33 18 12 9 7 5 6 6 7 8 8
14 20 36 48 50 48 50 56 57 56 50 40 38 41 46 53 52 54 50 46 47 45 40 27 13 10 9 9 8 8 7 6 8 12 11 7 6 6 7 7 8 9 9 9 10
9 10 12 17 31 37 38 42 46 49 50 50 43 40 39 33 27 22 17 13 11 10 10 9 9 8 7 6 5 5 5 4 5 5 5 6 8 9 9 10 10 11 12 13 14
7 6 7 8 9 12 16 21 23 23 22 20 18 16 13 12 12 12 12 11 10 10 9 6 5 4 5 5 5 5 6 7 8 8 9 10 10 11 11 12 12 13 14 14 15
12 10 11 9 8 6 7 7 9 10 11 13 14 16 15 14 13 10 7 6 5 5 7 8 9 10 10 10 10 9 9 10 11 11 12 13 14 15 16 17 17 18 18 18 18
16 16 15 17 16 16 16 15 14 13 12 10 10 10 9 8 8 10 12 13 13 14 14 14 14 13 12 12 12 12 12 13 14 17 18 17 20 23 26 26 28 30 33 35 38

GFSSW_500_rhum_114.txt.gz
RH
71 95 90 94 82 100 100 87 100 100 45 28 26 82 43 14 58 69 30 17 12 8 10 16 26 35 35 31 31 32 29 26 24 21 25 26 26 24 26 26 25 25 27 27 26
77 75 75 90 98 100 100 100 97 92 88 41 29 44 32 94 31 86 54 22 15 11 7 7 10 14 21 22 22 23 21 16 14 17 24 28 28 25 28 29 29 27 25 19 14
86 72 79 99 81 67 100 100 100 100 99 42 34 31 65 89 99 43 78 38 16 13 8 7 7 7 6 6 7 9 9 10 11 13 14 18 19 21 21 18 12 8 8 8 8
72 80 79 90 85 57 98 100 100 100 95 45 37 32 47 77 100 70 72 59 22 13 10 7 6 6 5 6 6 7 7 8 7 6 7 8 9 8 7 6 7 7 8 8 7
96 86 69 62 56 50 73 98 97 98 100 77 41 38 36 95 100 100 83 77 34 16 12 8 7 6 5 6 6 5 6 6 6 6 6 6 6 6 6 6 6 7 8 7 5
100 76 40 34 33 37 60 82 80 85 75 85 71 90 64 70 100 100 70 91 45 23 14 11 7 6 6 6 6 5 5 6 6 5 6 6 6 6 6 6 7 8 7 5 5
100 85 40 34 60 67 58 68 68 85 55 59 90 55 60 84 100 100 90 93 71 31 18 11 9 7 6 6 6 6 5 6 6 6 6 6 6 6 6 6 7 7 6 5 5
98 93 40 49 100 61 58 64 77 75 56 41 76 74 49 50 100 94 83 98 87 36 22 13 10 9 8 7 6 6 6 6 6 6 6 6 7 7 6 6 6 6 4 4 4
98 84 40 34 100 94 90 91 66 66 48 46 72 97 59 48 61 97 100 82 100 58 28 19 12 10 9 8 7 7 6 6 7 6 6 6 6 7 6 6 5 5 6 8 9
72 50 67 37 48 55 97 98 100 92 92 59 91 97 58 48 97 100 100 100 96 87 46 29 18 14 11 10 9 8 8 7 7 7 7 6 6 6 6 7 10 12 15 24 29
34 42 42 34 30 23 49 54 66 83 94 89 90 92 66 49 100 99 100 99 100 99 60 35 24 18 15 13 12 12 11 11 10 10 9 9 14 13 15 17 20 24 28 36 43
30 29 29 30 23 24 31 47 81 100 100 99 80 71 63 56 78 100 100 99 100 99 90 61 31 24 21 19 19 19 18 18 18 19 19 20 26 24 25 26 30 43 44 37 27
36 23 20 23 20 28 44 58 97 99 100 100 68 72 71 88 96 97 99 100 100 100 99 82 47 31 27 25 24 24 24 25 25 26 26 27 29 41 47 50 44 39 29 20 14
60 42 47 54 67 84 85 88 79 73 100 100 100 100 100 100 100 100 93 87 100 96 100 96 86 59 38 34 32 33 32 30 29 30 36 47 44 53 52 46 35 21 11 8 8
68 37 57 80 99 100 87 65 64 98 100 100 100 100 100 100 93 98 79 97 100 100 99 93 83 79 74 61 50 43 42 44 49 51 50 48 44 46 36 21 11 8 11 12 21
56 54 65 77 82 80 81 69 87 82 87 100 96 100 100 100 99 99 100 100 99 99 98 89 80 74 69 68 63 60 57 54 53 54 50 47 36 17 10 10 14 20 28 34 31
71 66 70 83 82 81 90 72 68 56 85 92 95 89 88 94 96 100 100 99 97 95 96 81 71 64 59 59 58 61 61 54 50 49 35 18 9 12 16 18 27 42 38 31 30
58 81 98 96 98 90 80 69 57 69 76 90 99 97 100 92 99 88 78 97 98 92 77 67 57 62 62 62 56 57 55 47 29 14 10 13 16 20 23 30 38 40 38 38 39
23 26 53 92 99 97 97 69 74 79 84 86 95 96 97 99 100 100 100 89 91 92 82 71 65 67 64 65 57 41 22 12 10 16 15 17 22 38 47 52 50 39 35 33 26
44 38 28 28 42 78 69 61 87 93 95 97 95 99 100 97 96 94 94 90 83 75 69 62 58 50 39 23 14 11 12 18 16 18 20 30 38 42 35 23 20 20 20 16 12
40 39 48 42 31 20 20 23 32 43 47 44 48 55 54 51 62 60 47 37 33 26 20 14 14 11 10 11 15 20 20 20 24 29 32 36 33 23 14 10 8 7 6 6 6
30 29 37 43 51 34 28 26 24 24 25 25 25 24 24 23 22 22 19 17 14 15 17 20 20 22 24 31 36 35 32 32 34 37 30 29 14 8 5 5 5 6 6 7 8
12 20 26 35 40 39 41 45 51 54 56 54 49 49 49 43 34 32 30 33 38 38 36 28 20 16 11 9 8 7 8 9 10 10 9 6 4 4 5 6 8 9 11 13 14
7 8 11 16 20 25 27 29 30 27 30 34 30 32 33 25 23 19 15 11 10 9 9 8 7 7 6 5 5 4 4 4 4 4 4 5 6 8 9 10 10 11 13 14 15
12 10 8 7 8 9 11 14 16 16 15 14 13 12 12 12 11 11 11 10 10 8 6 5 4 4 4 4 4 5 6 6 8 8 9 11 12 14 16 17 20 22 23 26 26
16 16 16 16 13 12 11 8 7 7 6 7 10 12 12 10 9 8 6 5 6 7 7 8 9 9 10 9 9 9 10 11 12 16 18 19 20 22 26 27 26 22 19 14 15
18 18 18 19 18 19 19 19 18 17 17 16 14 12 10 10 12 12 12 13 14 14 14 15 15 14 14 14 15 16 19 20 21 20 21 22 20 22 15 13 13 11 12 12 12

GFSSW_500_rhum_117.txt.gz
RH
46 66 83 82 95 80 90 100 100 100 85 33 82 100 100 60 13 28 64 43 22 13 9 15 30 29 26 25 24 22 20 16 15 15 17 18 18 18 20 20 18 20 20 21 22
68 70 83 95 98 89 100 100 100 100 100 85 52 100 78 94 32 17 45 56 29 17 11 10 23 39 35 28 25 23 21 19 19 19 19 19 21 22 22 20 18 20 24 24 24
67 70 81 78 78 100 99 100 100 100 99 93 41 45 99 100 88 44 31 66 40 20 14 10 13 23 34 37 34 30 26 25 26 27 29 27 23 22 21 22 24 26 29 29 27
94 83 67 74 100 100 100 100 100 96 92 100 51 48 100 100 100 70 51 69 56 23 15 12 9 12 19 27 30 30 29 30 28 28 25 19 18 20 21 22 23 22 15 9 7
96 67 47 52 88 96 98 99 100 100 99 96 68 39 100 100 100 100 48 54 71 36 16 13 9 8 11 17 19 19 18 17 15 15 14 12 11 12 13 12 9 7 7 7 8
95 45 43 33 28 32 62 68 100 100 99 95 71 42 56 92 100 100 76 42 76 52 19 12 10 7 9 8 8 8 9 10 11 9 7 7 7 7 7 6 6 7 7 7 7
90 56 42 39 34 36 39 71 91 100 98 91 60 56 43 98 93 99 74 64 81 65 25 12 10 9 8 7 6 7 7 7 7 7 6 6 6 6 6 6 6 6 6 7 7
56 56 37 83 59 58 61 93 98 91 89 92 83 76 37 93 100 100 98 77 80 72 28 13 10 9 8 7 6 7 6 6 6 6 6 6 6 6 6 6 6 6 6 7 7
46 45 44 78 97 70 65 69 65 77 72 57 95 92 59 98 100 100 92 99 92 66 25 14 11 9 8 7 8 6 6 6 6 6 6 6 6 6 6 6 6 6 7 6 6
28 31 36 35 90 86 73 67 61 52 49 42 93 76 60 60 99 98 100 100 99 59 35 19 13 11 9 8 7 7 6 6 6 6 6 6 6 6 6 6 6 6 6 5 5
25 28 26 23 28 57 80 80 76 43 29 53 71 75 70 63 92 99 100 74 96 94 39 23 14 10 10 9 8 8 7 6 6 6 6 6 6 6 6 6 5 5 6 9 12
22 21 22 40 74 73 90 86 84 85 53 68 81 96 69 75 84 91 97 98 81 97 60 30 16 11 10 9 9 8 8 8 7 7 7 7 8 8 9 10 11 14 18 22 31
81 70 58 61 84 100 97 100 100 97 77 82 84 79 68 96 100 100 100 66 90 100 91 36 24 16 12 12 11 10 10 10 11 12 13 14 16 16 18 20 24 32 38 37 37
84 88 74 74 76 72 84 95 100 97 94 95 100 87 70 99 100 100 100 92 98 100 99 61 34 25 20 17 16 16 16 17 18 19 20 22 23 26 30 39 42 37 37 36 27
67 78 76 60 65 78 91 100 100 100 99 100 97 79 66 87 93 95 100 97 100 98 90 77 61 46 32 24 22 21 21 21 23 25 28 32 39 40 44 38 37 36 32 17 8
95 88 91 87 85 89 88 97 84 86 92 100 100 100 99 99 89 91 91 98 77 80 94 93 84 67 55 44 35 31 31 34 38 43 45 44 44 40 40 37 31 17 10 11 24
79 83 83 98 92 76 75 76 86 68 100 100 100 100 100 100 83 57 98 97 75 75 75 81 76 81 73 63 58 56 56 53 50 49 45 46 36 34 27 16 10 10 24 36 33
37 68 85 88 95 92 76 65 46 61 75 85 97 96 100 90 93 70 79 98 99 97 93 80 78 71 65 64 60 57 56 52 48 42 39 34 28 15 10 11 13 27 40 37 33
19 26 46 75 92 96 97 67 70 82 86 73 80 90 97 100 100 100 100 100 100 97 88 79 73 70 64 57 52 55 50 46 40 36 26 15 9 10 13 29 38 39 36 28 25
49 28 22 28 55 86 81 68 86 91 98 97 89 90 82 76 73 84 95 94 91 85 72 67 61 61 58 53 48 41 36 26 13 10 9 10 12 27 35 37 30 27 22 17 11
43 45 47 37 24 22 18 24 54 78 92 99 100 97 98 90 76 77 80 81 75 68 64 60 53 49 48 35 24 13 10 11 13 12 12 17 24 28 22 13 8 6 5 5 6
26 33 38 44 58 49 50 44 36 28 25 26 35 49 58 64 61 59 57 50 35 25 23 19 14 10 11 11 12 14 13 12 16 19 22 23 25 12 5 4 5 6 7 9 11
10 14 22 26 27 26 36 47 56 59 60 53 39 29 25 22 19 19 20 20 22 24 22 18 20 20 24 24 25 22 19 22 21 17 10 6 5 4 6 8 10 10 11 12 13
13 9 9 12 15 15 16 15 16 19 25 32 39 43 46 45 40 36 35 31 28 24 21 19 15 11 9 7 6 5 5 4 4 4 4 6 8 10 11 13 15 17 20 22 24
17 17 17 14 9 7 9 12 14 13 13 13 12 12 12 12 11 10 10 10 10 9 8 6 5 5 4 4 4 4 5 7 9 11 12 12 13 14 20 24 24 20 18 17 13
18 19 18 20 20 19 17 14 9 7 6 7 9 11 11 11 10 8 7 6 5 5 5 5 5 5 5 6 9 10 11 12 16 19 22 24 23 25 25 21 14 12 10 10 11
19 19 19 20 20 21 23 22 21 20 18 16 14 13 12 10 9 8 9 10 11 12 11 11 11 12 13 13 15 18 22 22 21 17 16 13 13 12 12 10 11 10 11 12 10

GFSSW_500_rhum_120.txt.gz
RH
45 54 48 56 69 87 77 69 86 89 84 30 16 10 9 21 12 6 23 53 36 22 10 12 31 30 28 18 11 9 9 9 9 10 11 11 11 11 12 15 17 17 15 15 16
76 66 67 78 99 100 100 77 81 96 100 72 52 18 90 100 98 22 12 44 53 29 19 9 18 32 30 30 26 18 12 10 10 10 10 11 12 13 15 17 17 16 15 16 16
98 83 76 78 95 96 100 98 100 100 100 100 90 71 100 95 96 88 19 25 62 46 21 14 10 22 33 31 29 26 23 22 19 18 17 18 18 18 18 18 18 18 19 20 21
89 71 48 49 90 96 100 100 100 98 96 96 87 98 99 100 100 95 43 16 54 63 28 16 12 12 22 31 30 29 25 23 23 22 20 20 19 18 17 20 20 20 22 26 27
74 41 38 32 64 99 100 100 100 100 100 95 69 76 100 100 99 98 68 44 33 72 46 18 15 11 12 21 33 32 29 27 24 26 24 26 26 24 22 19 18 21 23 23 15
52 42 29 31 27 44 99 100 100 100 99 90 52 75 100 100 100 100 75 41 34 68 58 23 16 14 13 21 26 34 33 34 32 29 27 31 29 18 16 16 16 17 13 8 7
29 40 59 54 54 55 69 98 100 100 84 72 91 99 100 100 100 100 100 57 38 64 48 22 16 15 14 16 17 21 28 30 24 24 23 18 13 10 9 10 8 7 6 7 7
37 55 64 65 52 51 48 84 100 100 79 57 80 98 92 95 100 98 100 100 78 73 66 27 16 15 14 12 11 16 20 17 16 13 13 10 8 7 6 7 6 6 6 6 6
33 31 30 76 64 70 81 92 89 75 68 70 67 80 57 99 100 100 100 96 100 83 62 35 16 14 12 13 12 10 9 9 10 11 9 7 7 7 6 6 6 6 6 6 6
27 28 39 79 57 60 59 59 63 55 36 44 51 67 68 96 100 100 100 100 100 90 72 38 17 14 12 11 7 7 6 9 8 8 7 6 6 6 6 6 6 6 6 6 6
58 70 90 61 61 73 38 41 54 56 53 86 76 59 72 90 98 100 100 95 100 100 78 43 18 13 12 10 8 6 6 7 7 7 7 6 6 6 6 6 6 6 6 5 6
70 73 85 94 86 78 71 44 42 39 40 92 92 89 95 82 98 100 100 100 100 92 78 40 17 13 11 10 8 7 6 6 6 6 6 6 6 6 6 6 6 6 7 10 12
70 75 74 90 100 100 83 37 37 38 72 82 100 79 77 96 100 100 100 96 100 60 39 26 17 12 11 10 9 8 7 7 6 6 6 6 6 6 7 9 10 12 16 22 32
85 88 92 90 100 97 91 67 32 40 52 63 90 90 90 95 94 95 95 100 96 89 38 28 20 13 12 11 9 9 8 8 8 8 8 10 11 13 16 19 23 29 36 37 32
85 92 99 100 88 97 94 79 69 75 79 94 94 90 100 100 98 97 98 83 93 96 97 45 26 15 12 10 10 10 10 10 10 11 13 15 18 21 26 31 37 39 36 33 31
70 69 66 75 89 89 92 72 63 80 100 100 75 78 96 100 100 99 91 76 85 94 98 74 36 23 16 14 13 13 14 14 15 17 18 21 28 34 37 38 36 34 32 28 16
74 74 72 65 78 82 79 78 81 92 100 100 72 75 92 97 99 87 68 77 93 90 96 89 52 32 29 24 21 21 20 22 25 27 36 40 39 39 35 32 31 26 15 9 20
31 68 83 82 80 88 85 79 54 83 94 98 88 67 60 87 92 85 88 86 95 99 95 84 67 63 57 57 52 46 44 42 47 46 43 41 30 29 25 22 14 10 10 20 33
30 21 30 77 92 100 100 73 73 74 98 97 96 100 72 76 84 76 90 96 87 84 79 76 68 63 62 58 57 56 55 54 46 38 36 31 28 24 13 8 11 20 28 34 34
41 51 38 25 48 92 91 67 80 90 94 88 79 90 87 91 75 66 83 100 98 92 85 80 73 65 65 57 55 52 47 42 42 34 27 22 12 9 13 29 36 34 32 26 16
23 26 39 59 56 28 23 60 89 98 98 93 69 47 65 74 82 83 87 91 98 88 81 74 65 59 50 47 45 43 32 29 23 13 10 9 13 21 26 25 15 7 5 5 5
9 12 18 21 33 51 56 28 23 47 90 99 89 69 59 62 65 71 80 77 73 71 64 59 50 46 43 36 30 23 18 12 10 12 11 15 26 24 19 6 5 6 6 8 10
14 9 9 13 15 15 16 30 56 46 26 22 31 40 45 52 54 53 46 45 49 42 33 32 25 24 19 15 12 10 10 10 13 18 21 14 10 5 5 7 8 9 10 12 15
18 18 16 10 8 10 13 14 13 14 24 44 48 39 34 32 29 28 29 26 21 18 17 18 16 17 18 18 17 15 16 16 11 6 5 4 6 8 9 11 14 18 19 20 16
20 20 19 19 18 16 10 7 9 12 13 12 12 12 14 15 15 15 16 18 19 18 18 16 14 12 9 7 6 5 4 5 6 8 10 11 13 15 17 19 15 13 12 12 11
21 21 23 23 24 21 19 18 16 12 9 7 7 7 7 7 7 7 7 6 6 5 5 5 4 4 4 5 6 8 10 11 13 16 19 22 20 17 16 14 13 12 10 11 13
20 21 21 23 24 24 24 23 22 20 19 18 17 16 14 12 11 11 11 11 12 11 10 10 10 10 10 10 11 14 17 20 21 20 15 14 11 12 12 11 11 10 10 11 11